GFSWCAN_700_spd_000.txt.gz
Wind_Speed
50 48 41 38 37 36 34 34 31 29 28 26 25 24 23 22 21 21 21 20 18 18 16 15 17 17 17 17 17 16 16 19 17 16 11 10 10 12 16 19 20 21 17 25 16 9 11 5 20 31 38 45 46 48
44 44 45 43 40 37 36 34 31 30 30 28 27 26 24 24 24 23 22 22 21 20 16 18 19 18 18 18 18 19 21 20 14 13 10 11 16 23 25 29 30 23 27 23 21 23 40 44 45 31 38 41 41 44
35 41 42 44 39 42 39 34 30 31 30 29 29 28 27 26 24 24 23 23 23 22 22 23 20 19 19 19 20 23 23 21 22 21 22 24 28 30 28 28 28 33 24 31 34 38 34 30 30 31 36 37 42 40
37 35 44 42 42 40 41 35 35 32 30 30 30 29 28 27 26 25 25 25 25 25 26 24 18 21 26 24 24 26 27 28 27 23 25 30 33 28 33 31 33 31 39 35 36 32 35 32 33 35 38 39 35 43
21 36 37 44 38 36 36 34 32 34 35 32 30 30 29 28 27 27 27 27 27 26 21 21 24 30 28 26 27 27 24 25 27 30 34 38 38 35 33 28 33 30 29 34 39 30 36 34 35 34 37 43 44 33
15 22 31 37 39 38 36 36 40 35 33 31 30 30 29 28 28 29 30 30 28 28 31 31 29 29 23 25 29 26 28 33 36 37 39 39 29 27 26 24 23 39 35 25 32 36 31 31 36 35 35 31 32 33
20 19 27 30 33 40 36 40 37 36 36 34 31 31 30 29 29 30 31 29 28 28 30 32 32 37 33 34 27 22 26 28 25 31 33 31 28 25 30 35 36 31 24 28 27 29 31 30 28 29 31 29 32 34
16 19 22 29 29 34 38 37 41 43 36 32 31 30 29 30 29 29 30 31 30 28 28 22 27 28 27 25 22 24 22 24 28 30 31 30 32 29 28 33 24 24 25 27 33 29 28 31 29 28 32 36 38 38
12 15 24 27 29 34 38 41 37 38 38 31 33 33 31 33 33 35 27 30 29 31 32 33 26 23 23 15 15 21 26 23 28 30 29 25 21 22 25 24 29 28 29 29 30 31 32 31 29 34 36 39 42 42
15 12 16 13 19 27 32 46 47 44 41 39 35 33 38 38 38 34 27 24 33 34 36 37 32 26 28 18 18 19 21 15 19 22 21 24 33 24 22 27 26 26 27 30 30 33 30 33 34 34 36 39 44 50
19 16 14 16 10 8 7 11 31 34 33 36 31 30 26 23 23 24 21 14 15 23 26 30 30 30 28 26 24 14 13 10 15 18 19 15 19 22 25 26 27 29 32 32 32 31 33 34 36 38 42 46 50 50
22 19 22 22 13 13 14 13 10 9 10 17 19 21 21 13 11 11 9 11 12 12 13 11 12 14 20 23 18 14 20 12 8 9 8 8 20 21 24 25 25 26 26 27 28 31 32 37 43 47 49 50 46 45
22 20 22 22 17 16 16 16 17 18 19 17 19 20 13 13 13 11 14 14 12 15 22 24 20 18 18 17 11 10 8 9 10 7 7 15 22 23 23 23 24 26 28 30 31 35 41 48 50 51 47 42 43 43
20 19 18 17 19 15 15 14 14 15 17 20 21 20 13 10 12 24 24 21 26 24 19 16 14 10 15 12 12 7 9 6 5 8 19 20 20 21 23 25 27 29 33 38 41 47 49 50 48 44 40 40 42 42
26 22 18 16 16 17 15 14 14 12 14 10 9 8 15 18 15 8 11 16 18 17 16 13 12 13 11 10 7 8 5 6 6 8 13 14 16 19 23 28 32 36 40 45 48 49 45 42 39 39 39 41 40 41
29 26 22 19 18 19 18 17 15 13 17 13 12 12 11 13 15 14 11 11 11 12 13 15 12 7 11 8 10 9 5 8 11 11 14 18 24 27 32 35 40 44 46 45 42 40 38 38 39 39 39 40 41 42
33 30 25 22 19 17 16 15 14 17 15 17 17 19 13 9 7 9 11 13 14 14 15 12 8 10 7 8 8 11 19 17 17 17 24 25 30 35 40 40 38 38 39 38 37 37 36 35 36 37 38 37 34 30
38 28 22 18 17 16 16 17 17 17 20 22 17 15 15 16 16 16 14 12 12 12 13 15 14 17 11 12 18 18 16 17 25 30 32 35 37 36 35 38 37 34 33 35 34 33 34 34 35 36 37 37 36 34
23 22 19 18 17 17 17 16 18 16 18 17 16 14 14 12 13 12 12 14 15 16 17 21 16 18 22 24 22 21 22 27 31 34 36 36 34 36 35 32 31 32 32 30 31 31 33 35 34 34 35 36 36 33
19 17 16 16 16 16 15 14 14 13 13 14 14 14 15 15 16 17 16 16 18 20 23 28 28 27 26 26 24 25 27 29 32 34 35 35 33 33 31 31 30 28 27 27 28 30 33 33 31 32 35 36 34 31
20 19 18 17 18 17 17 11 10 11 11 14 12 11 13 13 15 16 16 18 22 28 29 29 26 25 22 26 26 28 30 31 34 37 36 35 31 30 28 25 25 26 26 25 26 29 33 35 32 32 33 33 32 31
20 18 16 17 15 15 17 13 10 11 9 8 8 9 10 12 13 16 19 22 26 25 24 24 23 23 25 27 28 31 32 32 31 32 34 33 30 28 23 21 24 25 27 29 31 33 35 35 31 30 31 31 29 27
17 17 17 15 13 11 11 16 15 13 10 11 10 11 14 14 15 16 19 21 19 14 17 21 23 26 29 29 28 24 23 25 28 28 26 24 22 20 21 23 26 29 32 31 34 34 34 32 30 30 30 29 27 23
15 14 15 11 12 10 11 10 11 14 15 15 14 14 12 12 13 16 21 21 16 15 18 21 24 27 27 26 27 24 22 22 20 19 17 18 20 22 25 28 31 34 35 34 34 33 32 31 30 30 30 28 26 23
15 12 8 11 11 10 13 13 13 13 11 10 11 11 11 11 15 20 24 24 13 15 17 20 22 23 23 21 21 20 18 20 22 24 22 24 27 31 33 33 32 34 35 35 33 31 31 31 30 31 31 28 26 23
13 10 7 6 10 14 12 11 10 11 10 10 9 10 10 13 19 18 26 16 15 14 17 21 22 23 23 24 27 28 28 28 29 32 31 33 35 36 34 33 32 33 33 32 30 30 31 30 30 30 29 27 26 24
9 8 12 12 7 6 7 8 8 8 8 11 15 16 15 13 18 19 15 9 14 22 26 28 29 26 27 30 33 35 37 37 36 32 30 31 32 33 31 30 32 32 29 27 28 30 30 30 30 29 28 26 25 25
11 10 9 8 8 8 11 12 14 16 18 19 20 22 15 18 22 22 26 30 33 34 32 32 31 29 30 31 33 35 36 35 32 28 29 30 29 28 29 32 30 27 27 27 28 28 29 29 30 29 29 28 26 25
15 14 12 12 13 16 18 20 22 22 22 23 25 27 30 31 33 36 39 40 40 38 36 35 33 35 36 37 38 39 39 36 34 33 34 35 31 29 27 26 25 25 26 25 25 26 27 28 28 27 27 26 26 25
18 18 20 22 24 26 24 22 24 21 23 26 29 33 36 37 39 41 42 42 40 39 38 38 38 38 38 38 36 34 33 31 30 31 32 31 29 27 26 26 26 25 23 24 24 25 26 26 26 26 25 24 24 23
19 19 21 21 23 22 22 25 28 29 31 32 32 35 37 37 39 41 41 39 36 34 34 34 34 34 33 31 28 27 28 27 27 27 27 30 28 27 26 23 22 22 23 24 25 26 26 26 27 26 26 25 25 24
17 20 21 23 23 22 24 27 29 30 28 28 29 27 29 30 31 34 36 36 35 35 33 30 26 26 27 28 28 29 28 25 26 27 24 21 18 18 19 20 21 23 24 24 25 26 27 28 28 27 28 27 27 27
13 18 21 23 23 22 21 22 25 26 24 22 17 15 12 14 19 23 25 21 18 19 22 23 22 19 17 17 18 20 21 21 20 19 17 16 16 17 19 21 23 25 26 27 26 27 27 27 26 26 26 25 24 22

GFSWCAN_700_spd_003.txt.gz
Wind_Speed
39 38 38 37 37 34 32 31 30 29 28 27 26 24 22 21 20 19 19 18 16 15 14 13 13 14 14 14 14 12 10 12 12 11 8 8 8 10 11 12 18 25 17 21 12 9 8 6 21 28 37 46 34 37
35 42 38 38 37 36 34 32 30 29 29 27 26 24 23 22 21 20 19 19 18 17 14 16 18 16 18 19 17 16 15 14 9 9 7 8 13 17 19 21 21 19 17 19 16 23 28 36 39 38 40 38 34 36
23 35 45 40 35 35 35 33 32 32 29 28 27 25 24 23 22 21 21 20 20 19 19 21 19 18 20 21 20 19 18 18 18 18 19 21 25 26 23 23 25 33 30 30 32 30 31 31 31 29 33 33 37 39
15 26 34 46 42 37 36 35 33 32 30 30 29 28 27 25 24 23 23 22 22 21 22 21 16 21 24 22 21 21 21 20 21 23 25 28 27 25 28 32 38 32 31 29 31 30 30 31 30 32 36 34 42 43
12 18 27 32 41 40 41 38 34 32 31 31 30 29 27 26 25 24 23 23 23 22 16 17 22 27 25 23 21 26 25 23 23 25 27 29 33 32 39 38 35 18 26 22 32 30 32 32 32 30 35 41 40 36
13 12 21 31 33 37 44 37 37 35 34 30 28 27 27 27 26 26 26 27 26 25 26 28 27 28 27 25 23 28 28 24 26 32 34 31 28 27 29 26 20 29 24 27 30 31 31 34 36 39 39 37 33 29
15 14 15 23 31 39 39 40 40 39 35 32 30 29 27 27 27 28 29 26 26 25 24 25 26 31 27 25 26 28 28 30 29 31 36 33 27 26 31 32 37 32 28 25 22 29 34 34 36 35 35 29 31 33
17 15 16 16 22 31 44 39 35 36 34 31 27 27 27 28 28 30 29 27 25 22 23 18 21 25 25 19 15 19 24 28 34 34 34 30 28 25 30 30 30 24 27 24 29 34 33 30 32 33 31 33 38 38
18 16 15 16 18 22 33 45 41 35 31 31 30 29 29 31 32 33 29 28 27 26 26 29 32 25 23 21 21 26 25 25 31 32 30 27 25 22 18 23 24 31 28 31 30 28 30 31 31 31 34 37 41 44
16 14 13 17 17 26 26 29 43 41 38 37 33 34 31 34 31 28 29 28 33 35 36 33 38 31 27 25 20 19 20 23 18 20 19 22 27 26 29 30 28 25 27 24 25 28 32 33 34 37 40 42 46 50
16 13 10 15 19 25 26 32 32 39 43 37 41 36 38 34 35 34 27 20 21 21 24 31 31 29 30 18 18 11 10 9 8 14 15 13 23 23 24 21 23 23 25 27 29 30 32 34 38 41 43 48 48 46
17 16 12 14 10 8 19 27 34 39 34 38 37 32 32 27 16 13 15 13 11 15 12 12 15 16 11 9 10 11 10 9 9 10 9 10 19 20 20 20 21 23 25 26 27 29 32 35 39 46 47 45 43 42
17 17 16 17 14 11 10 10 22 25 28 29 22 17 12 12 10 11 13 11 10 7 5 7 9 15 13 15 13 11 9 10 10 7 7 14 19 17 16 17 20 23 25 27 29 32 38 43 44 42 41 40 39 40
22 18 17 16 20 15 14 10 11 14 14 13 8 4 7 5 5 10 11 8 12 12 13 13 11 10 14 12 12 7 10 8 6 9 18 17 14 11 13 18 23 26 27 32 36 41 43 41 39 38 37 38 39 40
27 23 19 17 26 19 16 17 17 15 16 10 6 5 10 10 11 6 4 8 12 15 15 14 13 13 13 10 9 10 6 7 8 10 10 9 10 16 22 25 27 31 34 39 41 39 39 39 38 37 36 37 38 38
27 23 18 14 23 26 21 15 15 14 17 7 8 7 4 7 10 10 8 8 8 12 15 14 14 8 13 8 9 9 6 8 12 13 12 11 19 25 28 32 34 37 39 37 39 39 36 36 37 37 37 36 37 37
32 26 21 18 19 20 21 20 17 17 11 11 14 15 14 13 7 8 10 10 10 12 14 12 8 10 8 8 9 11 18 19 19 15 13 22 28 33 35 35 33 32 36 36 35 34 35 33 34 35 36 35 35 35
30 27 23 20 18 18 21 22 22 16 14 15 13 13 13 11 12 12 12 11 11 12 17 19 17 16 10 11 14 16 16 16 14 20 28 32 34 34 33 31 33 33 33 33 33 31 30 31 31 33 35 35 33 34
28 28 27 24 22 18 16 13 15 8 13 15 15 15 13 12 13 15 15 14 14 14 17 21 15 17 20 22 22 18 18 21 27 32 34 33 31 30 32 32 31 31 31 30 28 29 30 28 28 31 35 35 33 34
29 29 30 27 22 18 14 10 14 16 11 11 11 12 12 13 13 14 14 15 16 19 23 26 26 24 22 21 22 24 27 29 30 29 29 28 30 32 31 30 28 30 29 26 27 27 28 28 30 32 34 33 32 32
25 26 24 20 18 16 12 8 9 10 12 13 13 13 13 13 15 16 17 18 20 26 28 23 21 21 22 25 26 28 28 28 28 29 31 33 32 32 31 28 28 28 26 25 26 28 30 32 33 33 32 30 30 31
24 20 18 16 15 14 13 12 11 11 11 9 8 11 12 13 14 16 18 22 26 24 20 19 20 21 20 20 22 25 27 28 28 29 28 28 31 32 31 28 24 23 23 26 30 33 34 34 34 33 31 30 29 29
13 14 15 15 14 12 10 15 14 12 8 9 9 11 13 13 15 16 20 22 20 12 13 16 17 18 20 22 23 25 27 28 28 29 29 29 30 27 24 21 21 25 28 31 34 33 35 34 33 32 31 31 31 29
19 16 16 11 11 9 10 9 11 13 15 14 12 12 12 13 14 16 20 20 14 15 17 18 19 20 21 22 24 27 28 25 25 26 26 26 26 25 25 27 29 31 32 31 33 34 34 33 31 30 31 31 30 30
14 12 7 9 8 9 10 11 12 11 12 9 10 9 9 9 13 18 22 19 16 15 14 17 18 19 23 25 26 27 26 28 30 32 29 28 31 33 34 32 31 33 34 33 31 32 33 31 29 29 30 30 30 29
9 7 7 6 7 10 10 8 8 11 11 10 7 8 8 10 13 15 22 15 15 19 16 18 21 27 28 28 28 28 30 32 34 37 34 33 32 30 27 28 29 29 28 27 30 32 29 27 28 29 28 28 29 29
6 4 7 6 4 3 6 8 7 5 5 6 8 9 10 9 12 15 15 15 14 16 20 24 32 36 36 35 35 35 33 32 32 33 33 33 32 27 26 28 28 28 28 29 30 28 27 28 27 27 27 28 30 30
4 3 4 4 3 6 7 4 5 8 10 13 16 17 11 13 14 16 17 23 28 34 38 39 40 40 40 38 36 35 35 37 38 38 36 33 31 30 30 29 29 28 27 26 26 27 27 26 26 27 28 29 29 29
3 4 3 3 5 7 10 12 13 15 17 19 21 24 26 28 31 33 36 38 40 43 43 43 41 40 38 37 36 37 38 38 38 36 32 29 27 26 27 27 27 26 26 26 27 26 25 26 27 28 28 29 29 29
7 9 11 13 15 17 17 18 19 20 22 24 26 28 30 32 35 37 39 40 41 42 44 44 43 39 36 34 33 34 33 32 30 28 26 27 27 27 27 28 27 26 25 23 23 23 24 26 27 28 28 29 29 29
17 15 16 17 18 16 17 20 24 25 27 28 28 30 29 29 32 34 35 35 31 29 31 32 34 34 34 34 33 30 27 27 26 26 26 28 26 27 28 26 22 20 20 21 23 24 25 27 28 29 30 30 29 29
15 17 20 22 19 17 20 23 25 28 27 24 22 22 24 28 29 27 21 21 22 25 25 25 23 22 22 24 24 25 24 24 24 24 24 24 23 22 20 19 19 20 21 23 25 27 29 28 28 28 29 28 28 28
11 12 15 21 23 22 20 20 23 25 24 22 23 21 18 16 18 21 21 22 23 22 19 20 21 19 17 17 18 20 21 21 22 21 19 19 18 17 17 18 20 22 24 26 27 26 26 27 27 27 27 26 25 25

GFSWCAN_700_spd_006.txt.gz
Wind_Speed
29 34 35 35 33 31 32 34 34 33 30 27 25 24 23 21 19 19 18 17 17 15 12 13 13 13 13 14 14 12 12 14 11 10 7 6 8 8 9 12 13 12 7 9 7 8 7 6 16 22 27 33 36 36
35 28 35 34 33 33 31 32 33 33 32 28 26 25 24 22 21 20 19 19 17 16 11 14 14 14 15 16 16 16 16 10 10 8 9 7 10 13 15 13 16 13 11 14 13 18 21 27 28 30 29 32 33 34
27 37 32 37 39 34 34 32 31 30 30 29 27 26 24 23 21 20 20 20 19 18 17 18 16 15 17 18 18 19 19 19 18 16 16 16 18 20 21 19 20 24 24 27 25 27 19 23 28 32 31 31 36 31
15 24 37 37 39 36 35 34 32 31 30 29 28 26 25 24 23 22 21 21 21 20 21 18 15 20 21 21 20 20 21 21 21 20 19 20 22 20 25 24 28 31 28 34 25 25 23 26 29 37 29 34 32 35
9 15 24 34 39 39 37 35 34 32 31 30 29 27 27 26 25 24 23 23 22 21 13 20 24 24 23 21 19 20 22 24 25 26 25 25 25 29 33 33 35 29 25 24 27 20 25 30 33 26 33 34 33 32
9 11 13 23 35 44 39 34 34 33 32 30 29 29 30 29 27 26 25 26 24 24 25 25 23 23 19 17 17 23 23 24 27 27 28 30 30 29 24 30 35 29 28 26 27 28 26 25 28 32 30 28 29 28
11 10 10 13 24 35 48 41 36 34 33 31 30 30 30 29 28 28 27 26 25 25 25 24 26 30 28 26 24 23 23 24 25 28 33 35 35 28 35 38 32 33 29 32 28 27 25 27 33 28 27 30 29 30
15 13 12 12 15 27 30 40 42 37 36 36 32 31 29 29 30 31 29 27 24 22 24 18 17 21 20 18 18 18 20 21 26 31 35 33 31 29 32 36 33 29 30 25 26 24 26 30 27 27 28 29 32 34
18 16 14 12 14 18 29 30 35 36 38 35 35 31 32 33 34 33 29 28 27 27 21 29 32 23 22 21 19 19 21 25 30 35 36 30 30 24 25 29 32 22 22 22 26 26 25 24 25 28 29 32 38 42
19 17 15 13 14 14 21 29 34 39 37 37 36 38 37 38 33 28 26 28 29 33 35 38 31 26 21 19 20 22 26 20 17 22 21 28 34 33 26 27 25 27 27 23 21 22 24 26 28 30 36 39 43 46
18 16 13 13 13 14 17 22 26 42 41 42 41 43 38 35 35 30 29 22 22 29 32 40 37 33 31 27 30 22 16 11 11 17 16 12 22 21 22 21 21 19 16 18 21 24 27 29 31 37 39 43 39 39
20 17 14 13 11 13 15 17 22 27 43 47 48 46 45 35 22 19 20 17 16 23 17 21 25 26 25 23 21 11 10 7 8 10 9 11 19 17 16 17 16 15 19 21 24 26 27 30 34 40 39 38 39 38
18 16 14 11 9 8 11 18 21 27 29 39 39 36 22 17 14 13 15 19 17 12 16 16 18 25 17 9 6 10 6 8 9 8 10 18 20 15 11 10 12 17 21 22 24 27 30 35 39 37 38 36 37 35
20 18 15 14 13 9 7 13 16 19 11 19 14 16 15 7 8 8 11 13 16 15 18 12 6 7 10 6 10 5 10 9 8 10 19 21 17 10 9 12 19 20 21 25 28 32 37 36 36 36 34 35 34 35
24 22 17 14 16 17 12 10 14 13 10 6 5 4 6 9 10 9 8 6 7 6 6 8 11 12 12 10 9 9 6 7 7 10 13 11 9 9 15 18 20 22 26 30 34 34 34 35 35 35 33 32 33 35
25 24 21 15 13 22 20 14 10 11 10 4 2 3 4 3 3 3 1 0 1 6 9 12 10 7 11 7 9 10 8 10 14 15 15 13 13 17 20 22 25 29 31 32 32 35 35 35 36 33 30 29 30 32
21 29 19 17 16 23 21 21 20 18 2 7 7 6 4 2 1 2 2 3 4 6 10 9 8 10 7 7 10 12 18 21 21 18 17 18 20 22 26 30 32 31 30 32 34 34 35 34 32 31 29 27 29 30
16 26 23 19 16 18 26 21 17 13 13 11 9 7 6 6 6 8 9 10 11 12 13 16 15 15 10 12 12 15 17 19 19 19 20 21 26 30 33 31 30 30 32 33 34 33 32 30 30 31 30 30 32 33
16 26 24 22 20 18 22 20 21 12 13 12 9 7 6 7 8 10 10 12 12 13 15 19 13 14 15 17 19 18 14 15 19 24 27 29 29 28 29 29 31 32 32 33 32 31 29 29 29 30 32 34 35 36
17 26 27 24 20 18 16 9 15 13 7 8 7 8 9 11 12 13 13 13 13 15 19 22 22 19 18 17 16 19 22 25 26 26 25 25 25 27 29 30 30 31 32 32 31 28 27 27 30 33 34 35 35 33
26 33 31 28 25 25 15 9 11 8 9 11 9 10 11 11 13 14 15 16 19 24 25 20 15 13 16 20 21 21 21 19 20 22 25 27 28 28 29 30 31 31 31 29 26 25 26 30 34 35 35 35 33 31
23 35 32 31 30 23 12 13 12 10 10 8 9 10 11 12 13 16 16 20 23 20 16 15 15 18 19 18 16 17 18 21 23 25 27 28 29 29 29 29 28 27 27 25 26 29 31 34 35 34 34 33 30 28
30 29 23 21 18 14 10 13 12 10 8 9 10 11 13 14 14 14 17 20 16 13 14 15 15 15 15 16 18 19 22 24 24 25 26 26 27 27 28 27 27 29 30 31 34 35 35 33 34 34 35 32 29 28
24 25 21 16 12 11 10 9 10 12 13 12 11 12 12 13 13 15 19 17 10 12 14 16 16 16 17 17 17 20 24 26 27 27 27 28 29 30 31 32 33 35 36 36 35 36 35 33 30 33 35 30 29 29
17 14 8 10 10 9 10 10 10 11 12 10 10 12 11 10 12 15 16 11 9 10 9 10 14 17 19 18 22 25 27 28 29 31 30 31 33 35 34 31 31 32 31 31 33 33 32 30 31 33 31 29 29 28
10 7 7 6 9 10 9 8 9 11 11 10 10 11 11 11 10 8 11 9 9 10 14 18 20 21 22 25 30 33 34 34 37 37 34 32 32 33 34 34 32 29 28 30 31 32 31 30 29 28 28 28 27 27
7 5 10 9 7 6 8 10 10 9 9 10 10 9 8 7 7 7 11 12 16 18 20 21 23 26 31 35 40 43 42 41 40 39 37 35 35 37 37 35 34 31 30 30 30 31 29 27 26 27 27 26 27 28
6 7 8 7 7 7 5 5 6 6 6 8 10 10 7 7 10 13 16 19 21 24 28 33 38 43 45 47 48 47 45 41 39 37 36 36 36 36 35 32 30 28 28 28 27 28 28 28 28 27 26 27 27 28
6 6 7 7 6 6 6 7 8 9 10 13 16 16 19 22 24 27 30 31 33 35 37 39 40 40 40 40 41 41 40 38 36 34 33 32 32 32 29 27 27 27 27 27 28 27 26 24 24 25 26 27 28 30
3 2 4 7 9 9 10 12 14 16 19 21 22 23 25 28 30 31 33 35 35 35 35 33 31 30 29 29 30 32 31 30 30 31 30 28 27 28 28 26 28 27 27 28 25 21 21 22 24 26 28 29 30 30
6 7 9 10 11 10 13 17 19 21 23 23 24 26 28 31 33 33 31 31 31 29 25 25 28 30 26 24 24 24 24 23 24 25 26 27 28 28 29 28 27 26 23 20 19 19 21 23 25 27 29 29 29 29
13 14 16 18 18 16 16 17 21 24 25 25 25 24 25 26 28 29 29 23 22 22 24 26 27 27 28 28 26 24 22 21 20 20 22 23 23 24 24 23 21 20 18 18 19 20 23 25 27 28 28 27 27 26
8 10 11 14 19 21 21 21 23 24 23 22 23 23 22 23 23 21 19 22 24 26 29 29 29 30 32 29 27 25 24 24 23 23 23 23 22 21 21 21 20 19 20 20 22 23 24 25 24 24 25 25 26 27

GFSWCAN_700_spd_009.txt.gz
Wind_Speed
43 36 38 35 35 39 39 38 36 33 30 26 24 22 21 21 20 19 17 16 17 18 16 19 21 18 17 17 16 17 15 16 16 14 11 9 9 8 7 5 8 7 6 7 6 7 8 6 9 17 19 24 30 34
36 37 38 36 35 34 36 37 36 35 32 29 27 24 22 22 21 20 19 18 17 17 13 16 17 18 19 19 16 16 15 12 13 12 15 10 11 9 10 5 7 8 12 8 9 14 19 26 29 26 24 28 29 28
31 35 39 32 34 33 32 32 34 35 32 31 29 26 24 22 22 21 20 19 19 18 17 16 18 17 17 16 16 18 18 20 18 19 16 17 17 16 16 16 14 18 14 24 21 21 22 23 21 24 31 32 34 26
25 28 33 38 34 33 31 30 30 30 31 31 30 28 26 24 22 21 21 20 20 19 21 19 18 21 19 19 19 19 20 19 20 22 24 24 23 20 24 21 19 24 16 23 29 27 25 21 25 27 31 27 32 34
18 22 29 31 38 35 32 31 30 29 29 29 29 29 28 26 24 23 22 22 21 22 13 21 24 21 20 20 20 21 21 22 22 23 26 26 26 27 34 31 34 30 24 24 28 26 28 27 33 26 24 27 31 27
11 9 16 28 33 33 35 36 32 31 28 28 28 28 29 27 26 25 25 25 24 23 25 24 21 20 21 24 25 26 25 25 23 27 28 27 28 27 25 34 37 30 24 25 23 29 28 36 32 18 23 24 27 29
9 9 11 16 24 34 35 37 33 32 30 30 29 29 28 27 27 28 27 27 25 25 26 26 25 30 26 25 26 25 26 29 28 30 33 31 30 29 35 40 35 31 32 28 27 29 27 25 22 23 23 26 30 28
10 9 8 10 14 23 34 38 37 33 31 31 30 30 28 29 30 29 29 27 23 24 27 23 18 22 24 28 28 29 30 30 32 33 36 33 30 32 34 39 33 29 27 23 26 20 23 20 21 21 25 27 29 31
14 12 10 9 9 13 21 33 41 38 33 30 29 28 29 33 34 30 27 27 28 28 24 28 33 27 26 26 23 23 24 27 31 34 34 33 34 33 31 27 29 28 27 27 23 23 24 17 20 25 27 28 33 37
19 16 13 12 10 11 14 20 29 35 42 38 33 34 37 37 32 26 27 29 32 35 38 40 35 29 25 20 21 24 24 20 20 27 28 34 43 39 32 29 28 26 26 21 24 22 17 20 24 26 29 32 37 39
19 19 17 15 14 11 15 15 21 30 32 35 35 38 39 38 31 30 28 24 26 31 36 45 43 35 31 26 22 22 22 15 17 23 20 16 27 27 18 16 19 20 18 19 18 18 20 23 26 29 33 36 38 38
20 18 16 15 16 13 13 16 20 27 31 43 42 43 39 26 26 18 19 23 27 26 33 29 34 34 37 36 33 31 28 11 10 13 10 9 18 12 13 16 15 16 17 18 18 20 23 26 29 32 35 36 37 37
18 17 15 13 14 13 12 14 15 19 20 29 42 35 20 21 15 16 20 21 24 25 28 29 28 23 28 30 28 17 11 10 8 8 8 9 17 16 16 14 15 17 18 18 20 23 26 28 31 35 34 35 36 37
16 16 14 13 11 10 8 9 12 14 16 20 18 18 13 7 9 9 15 21 25 26 21 19 25 28 25 22 10 8 9 7 6 6 11 14 16 16 16 15 14 15 16 18 23 26 29 32 33 33 35 35 36 34
18 17 15 13 13 12 11 8 9 11 10 9 9 6 5 5 8 9 11 13 15 17 21 22 20 10 8 6 7 6 5 6 5 5 12 12 13 13 13 13 15 16 19 24 28 32 33 32 34 35 35 36 34 32
20 19 17 14 14 16 15 12 9 12 8 8 4 8 10 11 10 9 9 9 9 9 9 9 6 3 7 6 6 8 5 4 9 15 15 15 14 13 14 16 17 20 26 30 33 32 33 34 35 36 36 33 32 32
25 20 20 18 15 13 15 12 12 11 5 5 7 9 12 5 8 10 7 7 8 6 10 6 3 6 4 6 8 12 18 20 20 19 17 15 15 16 18 19 25 30 32 32 32 33 35 35 36 35 34 31 31 31
21 23 19 21 19 17 15 18 16 7 8 7 7 4 3 2 3 3 3 2 3 4 8 12 11 12 9 9 14 18 19 17 16 16 15 17 19 21 25 30 31 30 31 32 33 33 33 34 34 32 30 30 31 34
17 23 21 23 19 16 22 14 18 9 9 8 7 5 4 5 7 7 7 7 8 9 12 17 12 12 13 17 20 20 19 17 17 19 21 22 25 27 27 27 28 29 30 30 30 31 32 32 31 28 27 30 33 35
17 23 18 22 21 18 17 17 12 14 8 9 9 9 9 9 10 12 14 15 15 16 18 21 20 17 18 19 19 19 22 22 22 23 23 23 23 23 24 25 26 28 30 30 30 29 29 27 25 27 31 35 37 36
18 22 26 25 22 18 12 6 10 10 11 10 10 10 10 10 11 12 14 14 16 20 19 17 15 15 19 20 20 20 19 19 19 20 21 22 23 25 26 27 27 28 29 30 28 28 27 28 30 33 36 37 36 35
25 16 29 30 26 21 18 12 13 11 11 8 10 11 11 12 13 14 14 18 20 16 16 15 14 16 18 17 17 16 16 18 20 21 23 25 27 27 27 27 29 29 28 29 31 34 35 35 37 38 37 37 37 34
20 19 20 32 23 25 19 17 15 13 10 10 11 11 13 13 13 13 16 16 12 12 14 14 14 14 13 14 15 16 18 19 21 23 26 27 28 28 28 29 30 32 34 35 36 36 37 36 35 35 36 36 34 33
16 20 28 17 13 13 14 16 16 14 13 12 12 13 14 14 14 15 18 15 10 12 13 14 14 14 16 16 17 19 21 22 25 28 29 29 30 31 31 34 36 36 34 31 32 35 35 33 33 33 33 33 33 33
24 16 10 11 14 13 12 12 13 13 14 13 12 13 11 11 12 14 12 9 10 10 11 11 11 12 14 18 20 23 25 28 30 33 35 37 41 42 40 37 36 36 35 36 35 36 35 33 34 35 35 34 31 29
6 8 8 12 13 12 13 11 12 13 12 11 11 12 11 12 11 7 7 9 10 9 10 14 15 17 19 23 26 28 30 33 37 42 46 46 45 44 43 41 39 36 36 36 36 35 34 34 34 33 32 29 28 28
8 7 11 10 10 10 10 11 10 10 10 11 14 12 10 7 7 11 11 12 13 16 19 20 22 24 27 30 33 36 42 46 47 47 45 43 41 40 39 39 37 37 36 36 34 31 31 31 30 29 29 29 28 27
6 9 10 10 9 8 6 6 9 9 9 10 10 9 6 7 12 13 14 17 20 22 24 27 30 33 37 41 43 44 42 38 34 34 35 35 35 35 34 34 33 33 32 31 31 29 29 29 29 29 27 25 24 25
9 8 7 7 7 8 8 9 9 10 9 10 12 14 18 21 21 22 23 26 28 31 33 34 37 37 36 37 37 35 35 35 34 33 32 32 31 30 29 30 30 31 31 32 31 31 30 30 28 25 23 22 24 26
5 4 6 7 8 9 10 11 12 14 16 18 20 22 24 25 26 27 29 30 32 34 35 33 33 32 30 29 31 34 33 33 33 33 31 29 28 28 27 29 30 30 30 30 31 31 29 26 23 22 22 22 24 27
6 7 9 10 12 13 15 17 18 19 20 20 20 22 26 28 30 31 32 32 31 30 31 29 26 25 27 29 31 31 32 33 34 34 32 30 29 28 27 27 26 26 26 25 24 23 22 21 21 21 20 22 24 26
7 8 9 11 11 11 12 13 15 18 21 22 25 24 25 26 28 28 29 29 28 25 22 24 26 30 33 33 33 34 35 36 35 33 32 31 31 30 28 26 25 24 23 22 21 21 20 20 21 20 21 22 23 23
5 7 9 11 14 17 18 20 22 23 22 21 22 23 23 23 23 23 21 19 19 22 27 29 32 33 34 34 34 34 34 34 34 33 33 32 32 30 26 22 21 21 22 22 21 21 21 21 22 22 21 21 22 24

GFSWCAN_700_spd_012.txt.gz
Wind_Speed
38 36 35 36 39 39 36 34 32 30 27 25 23 21 19 17 16 16 14 15 16 16 13 17 19 16 17 13 16 15 16 17 18 16 13 12 10 11 12 7 7 6 5 6 5 6 8 9 11 13 15 21 31 32
41 33 33 33 35 37 37 35 33 31 29 26 24 21 19 18 18 17 17 16 15 15 11 16 18 19 19 18 17 18 12 13 12 10 14 11 12 12 15 9 8 10 14 9 11 10 10 19 23 30 32 32 33 30
37 36 34 32 31 33 36 36 35 33 31 29 26 23 20 19 19 19 18 18 17 16 15 15 17 18 19 20 19 18 17 15 17 19 16 16 15 14 17 19 17 16 16 20 20 26 20 22 24 29 35 30 33 31
36 36 32 33 31 32 31 33 34 34 33 31 28 26 23 21 21 21 20 19 20 18 19 18 15 19 18 19 19 20 19 19 21 20 20 22 24 21 26 24 20 22 20 25 23 25 23 26 32 31 28 32 32 27
26 36 33 32 32 32 28 28 28 31 31 31 29 28 26 24 23 22 21 21 20 20 13 19 23 19 20 21 22 21 21 21 21 22 24 25 27 25 31 32 33 28 32 29 30 24 26 28 32 34 32 35 24 21
19 14 27 36 34 30 30 29 27 27 27 26 27 28 27 26 25 24 24 24 23 23 24 24 21 19 22 25 24 22 21 21 23 26 27 27 29 26 24 32 35 28 24 22 25 30 34 29 29 31 28 29 18 21
11 13 19 20 29 35 36 27 29 28 26 24 25 24 25 26 27 27 27 24 24 24 24 25 25 28 24 23 25 24 26 27 24 25 27 27 27 28 32 38 35 30 29 20 33 32 27 28 30 24 17 21 22 22
8 9 10 10 17 25 29 36 34 27 26 27 26 24 24 25 27 27 26 24 22 23 25 23 18 19 22 27 28 29 31 29 31 32 34 32 28 28 30 36 35 31 24 30 26 24 26 26 20 23 20 18 21 22
7 6 5 7 8 12 21 28 31 30 29 27 26 25 26 28 28 26 26 25 27 26 22 31 30 24 25 27 26 25 28 30 32 36 37 35 37 34 35 30 31 22 32 29 24 26 21 19 17 15 19 21 26 30
10 8 7 5 4 4 9 14 24 30 31 29 28 28 31 31 26 26 25 27 30 32 35 37 33 30 27 23 21 22 26 23 23 31 28 34 44 42 38 35 35 33 32 27 25 22 17 16 15 19 22 26 30 32
14 13 12 10 7 5 5 8 12 22 31 33 31 32 33 30 25 26 24 22 25 35 38 42 43 37 34 28 23 19 18 11 17 24 23 25 34 31 21 20 20 19 19 21 20 20 16 15 19 23 27 31 32 34
16 16 15 13 12 9 8 7 10 13 21 28 35 33 31 22 18 21 23 22 27 25 35 32 31 36 37 34 28 23 24 13 13 19 11 18 22 17 11 9 10 14 16 17 18 15 16 19 24 28 31 32 34 34
14 14 13 13 12 10 10 10 8 12 16 23 28 34 23 17 19 10 16 19 22 32 33 32 31 27 27 29 25 18 13 16 21 13 15 11 11 7 9 10 11 13 14 15 13 15 20 24 29 32 33 33 34 36
10 12 11 10 9 7 7 7 8 9 13 15 10 11 12 7 9 13 16 17 20 20 27 26 18 16 26 23 20 10 12 9 8 6 5 7 10 9 9 10 13 13 13 11 16 20 25 30 32 33 32 33 35 35
9 10 9 8 8 7 5 5 4 5 7 8 6 6 7 6 6 9 14 17 16 18 15 17 23 25 21 14 10 9 7 5 7 4 6 2 5 8 11 13 14 13 16 19 23 28 32 33 32 33 33 34 35 35
13 12 10 9 9 8 8 8 6 6 5 5 4 3 5 6 8 9 10 10 10 12 14 12 8 4 3 4 5 5 3 3 3 6 13 14 14 14 13 14 14 17 22 25 29 32 32 32 32 34 34 34 34 33
6 13 13 13 11 8 8 9 5 6 6 5 8 6 5 5 6 6 6 5 5 4 5 4 4 3 1 1 2 3 3 12 13 15 16 15 13 12 14 17 20 23 26 30 30 30 31 32 33 35 36 35 33 31
9 12 16 13 14 11 8 9 11 1 5 8 10 5 4 4 5 3 0 1 0 3 5 3 3 3 2 3 10 13 13 15 15 15 16 17 17 18 20 23 27 29 28 27 28 29 31 32 33 33 33 30 29 28
15 12 16 16 13 14 12 12 9 7 9 10 9 6 6 7 9 7 7 7 6 6 7 6 5 6 10 14 17 18 18 17 18 18 18 19 22 24 25 25 25 25 26 26 28 29 31 31 31 29 28 28 28 30
13 12 15 13 15 15 11 12 12 12 10 12 10 11 10 9 10 10 11 12 12 13 13 13 16 16 16 17 17 18 21 22 21 21 22 22 23 24 22 23 24 25 26 27 28 30 30 31 32 31 33 35 35 35
14 12 15 11 14 19 18 10 9 11 11 13 12 14 13 13 13 14 14 14 17 17 15 14 13 15 19 21 22 22 20 20 21 22 22 21 21 22 24 25 26 27 28 29 29 31 33 33 36 36 35 34 35 35
18 15 18 21 25 21 19 14 11 10 11 9 12 14 14 14 13 12 12 15 15 11 14 15 16 17 17 16 17 19 20 20 19 19 21 21 22 24 26 27 29 30 30 31 32 36 38 36 34 34 34 35 32 33
19 18 16 13 16 26 18 19 15 13 12 11 12 13 13 12 11 11 14 11 9 11 12 14 15 14 14 14 14 15 18 19 20 21 22 23 25 28 29 29 31 35 39 41 40 39 37 34 34 36 37 36 33 33
22 17 18 13 13 16 19 19 19 17 16 13 11 11 11 10 11 13 14 12 13 14 13 14 14 14 14 14 15 16 19 19 21 23 25 26 30 32 35 41 43 43 44 44 42 41 41 39 38 38 38 36 34 34
19 18 10 14 13 18 18 19 20 19 17 13 13 14 11 10 10 13 12 14 15 15 14 12 11 10 9 13 15 19 23 24 26 29 31 33 38 42 46 47 44 41 42 44 43 41 39 38 37 37 35 32 31 31
13 8 10 11 19 19 16 15 14 16 13 13 12 11 10 12 11 7 10 13 13 12 12 10 12 15 18 21 23 25 28 30 33 36 39 43 43 42 40 39 40 39 36 34 36 38 36 34 34 32 31 29 27 28
7 7 12 15 13 13 14 14 12 11 11 11 13 11 9 6 6 12 13 13 12 13 15 17 22 23 25 27 29 32 36 39 41 41 39 36 36 36 38 39 40 37 32 31 32 33 32 32 32 31 30 30 29 28
7 11 11 11 10 9 8 8 8 7 8 10 10 8 5 6 11 13 12 12 15 20 23 26 28 28 31 35 39 41 39 38 36 34 33 36 37 36 35 36 36 35 34 34 33 32 33 33 33 32 31 30 28 28
9 11 10 8 7 6 6 7 7 7 7 7 8 10 15 16 17 19 21 24 25 26 29 31 34 35 38 37 37 37 35 33 33 34 35 36 35 36 36 35 35 34 33 32 33 33 33 33 33 32 30 28 26 25
6 4 4 5 5 6 6 6 7 9 11 14 16 18 21 24 24 25 27 27 28 29 32 34 36 33 33 33 30 30 33 34 38 39 40 40 40 39 38 37 35 34 32 31 30 28 28 27 26 26 24 23 22 24
1 2 4 6 8 10 12 14 15 17 18 19 20 22 26 27 28 28 29 31 32 31 31 31 31 28 25 26 29 33 36 38 39 39 40 40 39 38 37 36 35 34 33 32 29 27 25 24 23 23 22 20 20 21
6 8 9 10 12 12 14 15 16 17 18 18 22 25 26 26 26 26 26 26 25 24 24 21 21 25 29 33 35 37 37 37 36 36 36 36 37 37 37 35 33 31 30 30 28 25 23 23 22 22 21 20 21 21
5 6 7 10 13 15 16 18 21 22 22 20 21 21 22 23 24 22 21 21 21 20 22 24 28 31 33 32 30 30 30 29 29 30 32 34 34 34 34 34 33 32 30 28 28 27 24 21 21 21 21 22 23 22

GFSWCAN_700_spd_015.txt.gz
Wind_Speed
40 39 40 40 40 38 35 32 29 27 24 22 20 18 17 16 15 14 13 12 12 12 9 14 18 18 18 16 17 17 17 18 17 16 14 15 11 14 13 14 12 13 9 11 9 7 10 7 14 16 21 26 25 28
44 36 37 39 39 37 35 33 30 28 25 22 20 18 17 17 16 15 14 13 12 11 9 13 19 19 19 17 15 14 15 13 13 11 15 12 13 13 18 15 18 16 19 13 14 11 20 23 21 27 28 28 28 32
36 35 32 34 36 37 35 33 31 30 27 24 21 20 18 17 16 15 15 14 13 12 12 13 17 18 18 21 20 18 17 16 17 17 16 15 15 15 18 20 20 14 18 22 20 23 21 18 26 29 32 32 30 28
34 33 32 31 33 35 34 33 31 30 28 26 24 22 20 17 16 15 15 16 16 15 15 13 14 16 18 20 20 19 18 18 18 17 18 19 21 19 23 22 24 23 23 27 31 27 23 28 30 31 34 32 31 34
35 35 32 32 31 31 33 33 32 30 28 26 25 24 22 20 18 16 18 18 17 18 8 15 19 17 18 20 20 20 20 20 21 21 23 23 23 24 30 32 33 26 28 29 35 33 32 31 31 31 32 34 34 33
39 35 31 31 30 29 28 29 30 29 28 28 27 25 24 23 22 21 20 20 21 20 21 21 18 16 20 22 21 21 23 23 24 25 26 26 26 26 26 32 36 27 25 24 27 29 29 30 30 30 29 32 34 23
12 21 35 32 29 30 27 27 27 26 27 29 28 27 26 25 24 24 22 22 22 23 22 23 24 25 21 20 22 24 26 27 28 30 32 29 26 26 34 39 36 32 30 31 29 30 30 29 29 29 29 27 18 19
16 14 13 23 32 30 29 28 27 25 24 23 23 24 24 25 25 24 23 22 21 22 24 21 16 17 20 22 24 26 28 27 30 32 34 33 31 31 39 43 37 32 28 27 29 28 27 28 28 26 22 22 19 20
16 14 11 11 19 28 33 30 25 23 26 24 23 22 22 23 22 22 23 23 24 25 23 27 28 23 24 23 22 23 24 27 30 34 35 35 37 34 37 33 32 31 32 30 24 26 29 25 23 22 19 17 19 23
12 12 11 10 9 6 12 20 23 29 30 25 23 23 25 22 21 20 22 24 27 29 32 34 29 27 24 23 20 20 22 23 23 29 25 31 41 40 35 29 29 31 32 27 23 28 26 23 20 15 15 18 23 27
7 6 7 6 7 7 7 9 14 21 26 27 28 28 26 22 21 22 19 18 20 26 32 37 36 35 31 28 25 22 19 13 19 22 21 24 36 34 26 21 23 28 29 25 23 23 20 18 14 13 18 23 28 31
9 8 7 6 6 5 4 4 7 10 18 23 24 24 21 22 18 13 16 18 20 19 25 22 25 30 34 33 28 23 22 13 13 16 11 16 19 17 14 13 14 19 22 20 18 18 15 11 12 18 23 29 33 34
11 11 9 8 7 7 6 6 5 7 11 19 24 28 17 14 13 13 17 14 15 23 22 21 22 24 23 22 22 19 13 16 20 13 13 14 13 13 12 9 7 10 12 14 15 11 11 14 18 24 29 32 33 32
7 9 9 8 7 6 7 7 7 7 8 14 9 10 10 7 9 13 15 16 16 12 17 18 18 14 22 20 18 9 12 10 10 7 6 11 13 9 5 3 2 7 10 12 13 14 16 21 25 30 33 32 32 33
7 6 6 5 5 5 4 4 4 6 7 8 6 6 9 8 8 7 12 15 15 15 13 13 17 22 19 16 10 9 6 5 5 4 8 6 4 3 5 5 4 8 13 15 16 18 24 28 32 31 30 30 31 33
7 7 6 6 5 3 4 6 3 2 4 6 5 3 2 3 4 6 8 10 10 7 10 15 13 6 8 3 4 3 4 3 4 4 8 11 10 10 10 9 13 14 14 17 21 25 28 30 29 29 29 30 32 34
4 6 6 5 4 3 3 3 4 4 4 5 7 7 6 5 4 5 6 6 6 5 6 4 3 3 3 2 4 4 2 7 10 12 13 13 12 10 10 12 14 17 21 24 27 27 27 27 28 28 30 30 31 30
6 6 9 9 7 5 5 3 5 3 4 5 8 8 6 5 6 6 5 3 4 5 6 6 5 5 4 3 4 7 9 11 12 13 13 13 12 13 15 18 20 24 25 23 24 25 27 27 28 30 31 32 31 31
8 7 7 10 9 7 7 7 5 4 7 6 6 6 7 8 8 9 8 7 7 6 5 3 1 2 5 6 8 10 11 12 12 13 14 16 18 20 21 21 20 21 22 23 25 26 28 30 31 31 31 31 33 34
9 9 8 8 11 9 9 7 9 8 5 7 9 12 11 10 12 13 11 10 10 10 9 9 10 11 13 12 13 15 17 18 18 18 18 20 22 22 20 20 21 22 23 25 27 29 31 33 32 33 35 36 35 33
10 10 9 8 11 11 13 8 8 8 9 9 11 14 15 16 14 13 13 13 15 13 13 13 12 12 15 16 18 19 20 20 20 20 21 21 20 19 20 21 22 24 27 29 29 30 32 34 37 36 36 35 33 33
11 11 9 14 15 18 16 15 11 11 12 11 13 14 15 15 15 14 13 14 12 11 13 13 15 14 15 16 15 16 19 20 20 19 19 20 20 21 22 24 26 29 29 30 35 37 39 37 37 38 39 39 38 37
13 14 15 13 7 12 14 17 17 13 11 12 12 14 16 15 13 11 13 11 10 13 12 13 14 13 16 17 16 19 20 20 19 20 21 21 23 25 27 29 32 35 39 41 44 45 44 42 43 45 43 40 38 36
15 15 16 11 12 10 15 21 21 19 15 14 14 14 12 11 11 13 14 13 15 10 12 14 14 15 15 17 21 20 19 17 17 19 22 25 28 30 33 36 40 43 44 40 38 37 39 39 36 36 35 36 34 32
10 9 12 12 14 15 19 22 25 21 21 18 17 14 9 9 10 11 12 13 10 13 14 15 17 16 17 16 14 16 18 21 23 26 29 33 37 40 41 42 39 38 36 37 38 38 37 35 32 32 32 31 30 28
8 9 11 10 14 15 18 21 21 22 20 17 14 13 12 12 10 7 12 11 10 10 10 11 12 11 13 16 19 23 25 27 30 33 37 41 42 40 40 39 38 36 35 36 37 37 35 34 33 32 31 30 30 29
18 15 16 17 18 16 17 20 18 17 12 12 13 11 9 7 8 10 11 9 9 10 11 13 14 17 22 24 27 30 32 34 38 40 39 39 39 36 36 38 39 40 40 39 38 37 37 35 34 32 32 31 31 31
13 12 13 15 11 8 6 10 10 10 10 10 10 9 6 7 8 8 7 10 12 13 16 19 22 25 27 30 34 36 37 38 36 34 33 36 35 36 38 40 41 42 42 41 40 38 37 35 35 33 32 32 32 32
8 11 10 9 8 8 7 7 8 8 7 8 8 10 11 10 10 12 14 17 20 23 25 27 27 30 31 34 38 37 34 33 31 29 31 35 38 39 40 41 41 41 41 39 37 37 35 33 31 30 29 28 28 27
9 7 7 7 6 6 5 5 5 6 8 9 11 13 15 15 18 21 24 24 25 27 28 30 30 31 31 31 31 31 30 30 33 37 40 40 39 38 37 36 36 37 37 37 36 34 33 31 29 28 27 26 25 25
5 5 4 5 6 6 7 9 10 11 13 14 17 19 21 22 24 24 25 26 26 26 27 27 26 26 25 24 25 28 33 36 36 34 33 32 31 31 33 34 35 34 34 34 33 32 31 29 28 27 26 25 23 22
5 6 7 8 8 9 11 12 13 15 16 16 19 21 22 23 23 23 21 23 23 22 21 21 22 22 24 28 33 34 30 28 28 28 27 27 28 29 30 29 29 30 32 34 33 30 27 26 25 23 22 22 21 19
7 7 6 7 10 11 12 13 16 18 19 19 19 19 20 21 22 20 20 18 19 20 21 21 22 26 30 32 27 25 26 27 27 27 27 28 29 30 30 31 33 34 35 37 33 27 24 22 22 21 19 18 19 19

GFSWCAN_700_spd_018.txt.gz
Wind_Speed
48 39 40 42 40 38 36 33 31 29 28 26 24 24 23 22 20 18 17 15 14 13 15 20 19 20 18 18 16 17 18 19 18 17 16 15 12 15 16 18 16 14 12 16 14 11 12 14 14 17 19 25 25 21
42 45 40 41 39 38 36 33 31 28 27 25 23 22 21 19 18 17 15 14 13 14 13 16 20 18 17 17 16 16 17 15 11 11 16 13 13 14 18 18 20 18 23 17 17 12 15 23 26 25 27 26 28 27
40 38 38 39 39 37 35 33 30 28 26 24 22 21 20 18 17 16 15 14 14 13 12 14 18 19 18 16 16 15 15 15 14 16 17 15 16 17 18 19 21 22 22 23 25 28 27 26 29 28 27 28 28 29
38 37 35 36 38 35 33 32 30 27 25 23 21 20 19 17 16 15 15 14 14 13 14 13 17 20 20 19 18 19 18 17 15 16 18 19 21 18 21 22 22 20 22 23 30 31 31 30 27 25 30 32 30 30
37 35 33 34 35 35 34 31 30 28 26 24 22 20 18 17 16 14 14 14 14 15 7 16 16 17 18 19 19 20 20 20 20 20 22 22 22 24 28 30 31 26 27 30 35 30 33 36 36 30 28 28 28 33
39 31 33 33 33 34 33 31 30 28 26 25 24 22 20 19 18 16 15 15 14 16 17 17 14 16 20 20 18 20 21 22 23 23 25 27 26 27 27 32 34 28 24 25 30 30 30 30 28 28 29 30 36 31
34 37 29 28 29 31 32 31 30 29 27 26 25 24 22 21 20 19 19 17 17 18 18 19 20 21 19 18 19 22 23 25 26 28 30 30 30 31 38 41 35 33 31 32 31 31 30 29 29 29 31 36 29 30
34 36 32 33 29 28 29 29 30 30 28 27 26 25 24 23 22 22 21 20 20 19 20 15 12 16 18 19 20 22 23 25 28 30 32 33 33 33 36 39 35 32 28 28 26 27 25 29 32 34 38 27 21 19
21 27 30 31 29 29 27 26 25 25 25 24 25 24 22 22 22 22 22 22 22 23 21 23 24 22 22 21 20 20 20 24 29 32 32 33 36 34 39 37 35 32 31 28 28 28 26 28 30 35 21 16 12 13
20 18 16 19 27 29 25 27 26 24 23 22 21 20 19 18 18 19 19 21 24 27 28 28 26 23 22 21 20 19 22 21 23 27 26 31 41 38 34 30 30 29 27 28 24 27 30 38 29 14 10 12 12 18
18 18 17 15 14 18 27 29 26 25 24 24 24 22 18 17 18 18 17 13 15 17 25 31 30 29 27 26 25 24 20 14 22 22 22 25 34 32 29 28 24 21 22 23 22 28 22 25 13 12 12 12 17 23
12 11 12 12 12 12 11 15 23 26 25 24 24 25 22 20 18 14 13 14 13 14 15 15 19 22 28 29 27 24 25 16 13 17 14 16 24 19 17 16 18 21 24 23 25 19 10 15 14 14 12 17 23 30
9 8 8 9 8 8 8 8 11 13 17 18 18 17 10 11 11 10 14 10 13 17 16 16 16 15 17 17 19 15 12 14 18 12 11 14 12 9 11 12 11 9 8 7 7 10 10 13 15 13 19 27 31 33
10 9 8 8 8 8 8 7 6 7 13 20 17 12 12 8 11 13 16 17 20 22 22 19 17 11 17 14 16 8 11 9 7 6 6 10 11 12 5 4 1 2 5 7 10 16 17 19 19 22 28 31 30 28
10 10 10 9 8 8 8 9 8 8 9 9 9 7 9 8 7 6 9 11 13 13 12 11 17 20 15 12 8 9 5 4 4 4 8 9 6 4 2 1 4 4 6 11 14 17 17 20 25 29 29 27 27 26
11 11 11 9 9 10 10 10 10 9 10 9 8 5 4 6 6 6 8 9 10 10 10 11 15 9 12 7 5 4 3 3 4 2 1 0 0 4 7 5 7 10 13 16 17 19 24 28 29 26 25 26 26 29
8 7 9 10 10 9 9 8 8 7 5 5 7 9 7 7 6 5 4 3 4 4 7 6 4 7 3 4 4 4 4 2 5 6 8 10 11 10 8 10 11 14 16 20 24 27 27 25 25 26 27 27 30 31
7 7 6 6 5 5 5 7 7 5 6 6 7 8 7 6 5 5 5 7 7 8 8 8 6 8 4 5 4 7 8 11 12 13 14 14 13 12 12 14 18 22 25 25 23 23 24 25 27 28 31 33 35 35
3 4 5 8 9 7 6 5 5 6 8 11 11 7 4 5 7 8 8 8 7 6 4 2 3 3 2 3 4 6 7 7 8 10 12 13 15 17 19 20 20 21 22 22 22 23 25 27 29 32 35 38 39 40
6 6 6 6 8 9 7 6 9 9 10 11 10 10 11 10 11 12 11 11 11 7 5 5 7 8 8 9 10 11 12 13 13 14 14 16 18 19 19 19 20 20 21 22 24 26 29 32 33 37 39 41 43 43
8 8 8 8 8 12 10 7 9 7 10 11 11 12 13 13 15 15 15 14 12 9 10 11 12 12 13 12 12 14 16 16 16 16 18 18 19 19 19 20 22 23 26 28 31 34 35 38 42 44 47 47 45 44
8 8 8 9 11 11 12 12 12 12 10 9 10 13 17 19 18 17 15 14 13 12 12 12 12 11 13 14 15 18 18 19 20 20 20 20 20 20 21 23 25 27 31 35 39 42 44 45 44 42 41 42 43 43
10 10 9 9 11 10 12 15 16 15 12 12 13 13 14 14 14 12 14 13 15 14 13 13 13 14 17 19 19 19 19 19 19 19 18 19 20 22 25 28 32 36 39 42 43 43 43 42 41 41 41 41 41 38
11 11 10 8 11 10 12 15 17 20 18 16 14 14 14 14 13 14 15 16 14 12 13 15 16 18 18 19 19 20 19 17 15 17 20 24 27 29 33 36 40 42 43 43 43 42 40 40 40 40 39 39 37 35
9 9 8 11 13 12 17 15 17 21 22 20 19 16 10 11 12 15 15 14 12 14 16 17 17 17 19 18 17 15 15 17 20 24 28 32 35 38 41 44 44 42 42 41 41 41 41 41 41 40 39 39 38 36
7 8 10 12 14 14 15 15 19 22 23 22 19 17 15 14 14 11 13 11 14 13 14 15 13 14 15 15 17 19 22 25 28 31 36 39 41 44 44 43 41 39 40 42 45 47 47 45 44 42 40 37 36 35
10 10 10 12 15 15 13 17 16 18 21 19 20 16 12 10 9 13 13 11 10 10 12 12 13 15 16 19 22 26 29 31 34 38 42 43 42 40 40 41 42 44 47 49 49 49 48 46 44 41 39 36 36 34
15 18 17 19 19 17 15 13 15 14 11 8 8 9 7 7 8 9 7 9 10 10 11 13 17 21 24 26 28 29 32 35 39 40 38 36 35 37 39 43 45 46 44 43 42 42 41 40 39 37 35 33 32 31
13 12 8 8 11 7 4 5 5 6 6 8 10 11 11 11 10 10 11 13 15 18 21 23 23 24 26 29 31 33 34 33 30 29 30 33 36 38 39 37 35 34 34 34 33 34 35 36 35 34 33 31 30 30
7 7 6 4 5 5 5 4 4 5 6 7 8 10 11 12 14 16 18 21 22 24 25 26 27 29 29 30 30 29 28 27 29 33 35 35 33 31 30 29 29 30 31 32 33 32 33 35 34 32 30 29 28 28
5 5 6 7 6 4 5 6 8 9 11 13 15 17 18 19 20 21 21 22 24 26 25 24 25 24 23 23 24 26 29 33 35 33 29 29 30 29 29 29 29 31 33 34 35 36 36 38 33 28 26 24 24 24
6 7 8 9 9 9 9 9 9 11 12 15 17 19 20 21 21 22 20 20 21 22 21 19 19 21 23 23 27 32 33 30 28 28 28 29 29 28 28 29 31 34 34 34 34 34 36 35 28 23 20 20 21 20
8 8 8 8 8 9 11 12 13 16 18 19 20 21 20 19 19 17 16 17 18 18 19 21 20 22 25 28 29 28 28 30 30 31 31 31 30 29 29 30 33 33 31 31 30 30 30 27 24 20 18 18 18 17

GFSWCAN_700_spd_021.txt.gz
Wind_Speed
49 48 46 45 43 41 38 37 34 31 30 30 30 35 39 35 27 21 18 16 17 19 20 22 21 19 18 17 16 16 16 18 18 18 17 16 12 14 16 19 19 17 11 14 16 13 15 20 21 20 16 17 24 24
48 47 45 43 42 40 37 36 34 31 29 31 30 31 33 33 29 21 18 17 17 19 17 20 20 18 17 16 16 14 15 13 12 12 17 15 13 14 17 19 21 21 22 17 17 14 18 18 16 20 27 27 29 27
43 45 44 43 41 39 37 34 33 32 30 27 29 29 27 26 24 22 20 18 17 17 15 19 21 19 18 18 17 17 17 17 17 15 14 15 17 17 18 18 20 21 20 25 27 28 27 28 27 32 34 32 28 28
40 43 44 42 40 38 36 33 32 31 30 29 27 26 25 24 23 21 19 18 17 16 16 17 19 21 20 20 19 17 17 15 16 17 18 19 20 17 20 22 21 21 22 27 30 28 29 30 32 32 32 31 29 33
44 43 38 38 39 39 35 32 30 29 28 27 26 25 23 22 21 19 18 17 16 17 10 16 17 20 22 22 21 19 19 19 20 20 21 21 21 23 27 28 30 27 28 29 33 27 30 30 29 30 32 33 30 30
43 40 37 39 37 35 33 31 30 29 28 25 23 22 21 20 19 18 17 16 16 15 15 12 14 19 19 18 19 20 21 21 22 22 23 25 25 26 26 29 33 28 27 28 32 30 32 32 32 30 28 27 29 30
37 36 38 37 35 33 32 30 29 28 27 25 24 22 21 20 19 18 16 15 14 14 15 15 17 18 16 17 18 20 20 22 23 25 27 28 29 31 36 39 31 31 32 31 30 30 31 29 29 28 28 29 30 30
36 33 34 34 34 33 31 30 28 27 26 25 24 23 22 21 20 19 18 17 15 16 17 11 10 14 16 18 19 20 22 23 26 29 30 30 32 34 41 35 34 31 29 28 27 28 28 28 29 30 31 32 33 35
33 31 31 30 31 32 32 31 29 29 28 25 24 23 22 21 20 19 19 19 19 20 18 19 21 19 18 17 17 17 19 23 27 30 29 30 35 36 37 37 37 35 34 33 32 32 31 31 31 32 34 39 33 17
37 34 31 29 28 27 28 28 29 28 26 25 24 23 22 21 20 19 19 20 22 24 24 23 21 19 18 16 16 17 20 20 20 25 24 31 38 36 34 35 34 33 32 29 31 31 31 29 29 33 31 16 16 11
28 32 32 30 27 22 23 23 23 23 22 22 21 20 18 18 18 17 15 12 14 15 19 25 25 25 23 23 21 18 14 12 17 19 20 24 29 29 29 29 29 27 24 24 26 29 27 26 25 22 14 11 9 6
20 19 19 22 24 25 26 22 22 22 22 20 20 19 18 16 12 11 10 11 9 11 11 13 16 21 26 25 21 18 19 13 11 15 13 17 23 23 21 22 24 25 23 22 23 24 28 19 14 15 10 9 8 15
17 16 16 17 16 16 19 21 23 24 21 21 21 20 12 13 15 10 12 8 12 15 15 13 12 13 13 13 13 12 10 12 16 10 10 13 19 17 12 10 8 8 7 6 3 4 7 10 11 9 14 19 21 25
11 12 13 13 13 12 12 13 14 19 20 21 18 13 13 7 10 13 15 16 16 16 14 14 12 7 10 8 11 7 10 8 6 5 6 9 6 8 7 5 8 12 10 7 6 9 13 17 19 19 21 25 30 31
10 9 9 10 11 12 12 12 11 12 17 14 7 5 10 9 8 8 12 13 14 15 12 10 11 14 13 10 8 8 5 4 5 4 4 7 8 6 2 2 5 9 7 8 10 15 16 18 21 24 29 31 30 28
10 10 11 11 11 11 12 13 13 14 15 10 8 6 7 9 9 8 7 7 8 8 7 8 10 7 10 7 6 6 3 6 5 7 8 7 6 2 6 7 8 9 16 17 15 17 20 23 27 28 26 27 28 29
12 11 10 10 10 11 10 10 11 13 9 6 8 10 9 8 7 7 8 9 9 10 12 9 8 9 6 5 6 6 6 7 6 6 6 6 7 9 12 13 11 10 12 16 20 24 26 25 25 26 27 28 30 32
9 9 9 10 9 9 9 9 9 6 7 7 8 9 9 9 8 7 6 6 4 5 6 8 6 7 5 5 6 6 6 7 8 9 10 10 11 11 11 12 15 19 22 24 24 24 25 26 28 29 31 33 36 38
3 4 5 6 6 7 8 9 7 6 7 8 8 9 8 8 8 8 7 6 6 6 6 5 5 5 6 5 5 5 7 7 7 8 10 11 12 14 16 19 21 22 23 24 25 26 27 28 30 33 37 40 43 45
1 2 3 4 5 6 5 5 8 7 11 12 13 9 7 7 8 9 9 8 7 8 7 5 5 5 7 8 9 10 11 11 11 12 13 15 17 18 19 20 20 21 21 22 24 27 30 32 35 39 42 45 47 47
7 7 8 8 8 10 10 7 9 8 12 13 15 15 14 14 14 13 12 12 13 12 11 10 10 12 12 12 12 12 13 13 13 13 14 16 17 17 18 19 21 22 24 26 29 33 37 40 43 45 45 45 45 44
9 9 9 10 10 11 13 14 12 13 12 12 14 16 16 16 15 16 15 16 15 14 13 13 13 13 14 14 14 13 13 14 15 15 15 16 18 19 20 21 22 25 29 33 37 41 44 45 45 46 45 45 44 44
9 9 9 10 9 8 11 12 15 15 12 13 14 16 16 17 20 19 19 18 17 15 14 14 14 15 16 15 15 15 16 16 17 17 18 18 18 20 23 27 31 34 37 41 44 46 46 46 46 46 46 46 46 47
9 8 8 6 6 8 10 11 11 13 18 16 16 16 14 13 12 13 16 17 14 12 13 14 16 17 17 17 17 17 17 17 17 16 17 20 23 27 30 34 38 42 45 47 48 46 46 46 47 48 50 51 50 49
5 6 5 7 10 10 12 13 16 15 16 16 18 18 15 11 11 13 15 13 12 15 16 17 17 18 18 18 18 18 18 18 18 20 24 27 31 34 37 42 45 48 47 45 45 45 47 49 50 49 47 45 44 43
3 4 6 7 10 11 11 12 14 17 20 20 16 17 18 16 13 9 13 14 17 18 16 16 16 16 17 16 16 17 18 20 24 28 31 35 37 40 43 45 44 41 42 44 47 49 47 44 43 42 41 40 38 37
6 7 10 10 12 12 12 15 15 14 14 14 16 17 17 10 9 11 11 12 14 13 13 14 14 15 15 16 17 20 23 27 31 33 36 39 42 43 42 41 42 43 46 45 43 41 40 40 39 39 39 38 38 37
10 16 16 17 17 16 15 18 17 14 13 12 12 10 5 8 6 7 8 8 9 11 11 12 14 16 19 23 26 28 31 33 34 37 38 37 36 36 38 42 44 42 39 38 37 38 38 40 40 41 41 41 41 37
13 13 13 8 7 10 11 8 6 7 6 5 7 6 6 7 8 9 9 10 11 13 15 18 22 26 28 28 29 31 32 33 33 32 32 32 34 38 38 37 35 34 33 33 33 36 38 39 40 41 41 43 40 34
7 5 4 3 3 3 5 5 4 4 5 6 7 7 8 9 10 12 14 16 19 21 24 26 27 28 29 29 28 27 27 26 27 30 33 36 37 34 32 32 32 32 32 31 33 35 35 35 35 36 38 35 30 26
4 5 7 7 8 7 7 6 7 8 9 10 11 13 14 15 16 18 20 22 24 26 27 26 25 25 25 24 24 26 27 30 32 34 32 31 31 32 32 33 32 31 31 32 34 33 33 33 33 32 31 28 24 22
9 10 11 12 12 11 11 11 11 11 12 14 16 16 17 18 20 22 21 21 21 22 21 21 21 21 23 24 24 26 30 32 30 31 33 34 34 33 32 31 30 30 31 32 31 31 31 30 28 26 25 24 22 22
13 12 12 11 10 11 12 12 14 16 18 19 21 22 21 20 20 18 16 16 17 19 21 21 22 22 24 26 28 31 30 30 32 33 32 31 30 28 27 27 28 28 28 28 28 29 28 26 25 23 21 21 21 20

GFSWCAN_700_spd_024.txt.gz
Wind_Speed
59 56 54 50 46 43 40 36 33 30 28 29 29 31 35 39 40 30 25 24 20 23 25 26 24 22 21 19 19 18 18 17 15 18 17 16 11 13 14 18 17 15 9 12 11 10 12 15 18 18 17 17 17 23
53 50 48 47 44 41 37 35 33 31 30 28 28 32 37 41 39 38 26 19 19 22 22 23 22 22 18 18 18 15 14 10 10 12 16 15 15 16 18 18 19 18 20 15 13 13 18 23 26 27 24 24 27 32
48 47 47 45 40 38 36 34 30 31 32 29 29 32 33 33 26 22 16 16 17 18 18 23 22 20 20 19 18 18 16 16 16 15 15 15 16 16 18 18 19 20 19 23 25 25 25 25 27 27 28 30 30 31
45 46 45 41 38 36 34 31 29 29 32 30 30 31 31 29 24 23 18 17 18 18 15 20 20 20 19 20 20 20 18 17 16 17 18 19 21 18 19 20 18 18 20 26 29 29 29 26 27 27 29 30 30 30
41 42 42 39 37 35 35 28 28 27 27 30 31 31 30 28 25 22 20 19 19 19 15 18 18 20 21 20 20 19 18 18 18 20 21 22 22 23 25 25 25 25 25 27 31 25 27 28 28 29 31 32 32 33
39 38 40 37 35 35 33 29 28 27 26 25 24 24 25 24 24 23 21 20 18 18 11 13 18 19 19 20 20 20 20 21 22 22 23 24 24 24 21 23 28 27 26 30 33 31 33 32 31 30 29 30 30 28
39 37 36 37 34 33 33 28 27 27 26 24 24 24 24 24 23 21 21 18 18 17 16 13 11 15 17 18 19 20 20 21 22 23 25 26 27 28 33 34 29 29 29 29 28 28 30 26 28 29 30 29 27 27
37 35 34 34 34 34 32 29 28 27 25 23 22 22 22 22 21 20 18 15 16 15 14 9 8 11 14 17 19 19 20 22 25 26 27 28 30 30 35 33 32 30 30 31 31 31 31 32 32 32 31 30 27 27
39 36 30 29 30 31 37 30 27 27 26 25 24 22 20 19 18 17 17 16 16 15 13 13 14 13 12 14 16 18 21 25 25 28 27 28 31 26 26 32 33 34 34 34 33 32 31 31 31 30 29 28 31 33
33 31 33 32 28 26 28 30 26 25 25 24 22 21 20 19 17 17 17 18 19 19 19 17 15 16 15 15 15 18 21 18 17 21 21 26 30 29 31 32 32 30 29 28 28 28 28 29 29 25 25 31 30 22
31 27 27 27 28 27 25 23 23 23 23 23 22 21 19 16 18 18 16 13 13 14 16 20 21 22 21 20 18 15 11 10 13 15 17 18 24 24 23 24 25 26 25 24 25 26 24 21 26 26 22 20 16 18
33 31 28 26 23 20 18 19 21 20 21 21 19 18 18 17 14 12 11 10 9 10 10 11 17 22 24 22 17 12 14 10 9 10 9 8 17 18 20 21 22 26 24 22 19 16 15 16 16 15 14 9 10 17
24 28 27 27 23 22 21 20 21 20 19 19 18 17 11 12 13 9 11 8 11 16 15 11 12 12 12 13 10 10 8 10 12 7 7 10 14 13 12 9 9 7 6 7 1 1 3 6 7 9 14 20 25 27
14 14 14 15 22 23 22 22 23 22 21 21 19 15 11 8 9 14 18 17 17 15 13 11 9 8 11 9 11 5 8 7 5 5 6 8 5 6 8 7 6 9 9 8 7 7 10 13 18 21 22 23 25 27
13 12 10 12 13 12 14 20 22 22 21 16 12 9 14 13 10 10 13 14 13 13 11 9 9 9 8 8 7 8 5 5 5 6 7 7 8 6 5 6 7 7 6 8 13 18 20 20 20 22 26 29 29 28
10 10 11 12 12 12 12 13 16 16 19 8 6 5 7 10 10 9 9 10 11 11 10 9 8 4 8 6 6 7 4 5 6 8 8 9 9 8 8 7 6 9 15 18 15 16 18 22 24 25 25 26 27 28
8 8 8 10 11 11 11 12 12 13 10 6 6 9 9 10 11 11 12 12 13 15 16 9 7 9 7 6 7 7 8 9 8 7 8 10 9 9 11 13 10 9 11 15 18 20 21 22 24 24 25 26 29 31
10 10 10 9 9 9 9 9 9 7 6 7 6 8 8 8 7 7 7 7 7 8 10 10 7 8 5 5 7 8 7 6 6 8 9 8 8 8 9 10 12 15 18 19 20 20 22 23 25 28 30 33 36 39
7 7 7 6 7 7 7 8 8 4 6 7 7 8 8 8 7 6 6 5 6 6 7 7 6 6 9 10 8 7 6 6 5 6 6 8 10 12 13 14 16 18 19 20 21 23 24 27 30 33 37 40 43 45
3 2 2 2 2 2 2 2 5 3 4 6 7 9 8 6 6 6 6 6 5 5 5 5 6 6 6 7 7 8 9 9 9 10 11 12 12 13 15 17 19 20 21 22 24 25 27 30 35 39 42 45 46 47
4 5 5 4 4 4 5 4 5 5 7 8 11 11 9 10 10 10 9 10 10 10 9 9 10 11 11 11 11 11 11 11 11 12 13 13 15 16 17 18 20 21 21 23 26 30 35 39 43 45 46 47 47 48
9 9 8 8 7 8 8 10 8 9 10 10 12 16 17 15 15 15 15 14 13 11 11 12 14 14 14 14 13 13 13 12 13 13 14 16 17 18 18 18 19 22 26 30 34 39 43 46 48 48 48 49 50 51
11 10 10 9 6 3 4 6 9 9 10 11 12 13 13 12 14 14 17 18 15 15 15 15 15 16 16 16 15 14 14 14 14 14 15 16 17 17 18 21 25 30 33 37 41 45 47 47 47 48 49 51 52 50
11 10 8 4 3 5 9 9 9 8 9 11 12 14 15 14 13 14 16 17 15 13 13 16 16 17 17 16 16 16 16 16 17 17 17 18 19 22 25 29 33 37 40 43 46 46 45 45 47 48 46 44 43 43
6 5 4 5 6 7 11 11 7 11 12 13 14 13 13 13 12 12 13 14 12 15 17 16 17 17 16 17 17 17 18 18 18 19 19 21 25 29 32 36 39 41 43 43 42 43 44 45 42 40 40 41 41 40
5 4 5 8 10 10 11 9 7 11 13 12 10 14 16 14 13 9 14 14 14 16 16 16 15 15 16 16 16 16 17 18 19 20 23 27 30 34 37 39 41 39 40 42 44 44 40 37 37 37 39 40 40 41
2 3 6 10 11 13 13 12 12 14 14 12 13 14 13 7 8 10 12 12 12 12 12 11 12 13 14 14 14 15 18 21 25 28 32 34 36 38 39 38 38 40 43 42 40 38 37 37 36 39 40 39 41 41
4 7 9 11 12 10 9 10 12 12 8 9 12 9 4 3 4 5 5 5 7 9 10 11 13 14 15 17 20 24 27 30 31 32 34 35 33 34 36 39 42 41 39 37 36 37 36 36 38 39 38 39 38 39
9 11 9 8 6 6 8 6 5 5 5 6 7 7 6 6 7 6 6 7 9 10 12 14 17 20 23 27 29 30 31 31 30 30 30 31 33 36 38 37 35 35 35 35 36 36 36 36 37 36 36 35 35 35
8 7 7 7 6 5 6 9 9 8 6 6 7 7 8 9 10 11 12 14 16 17 19 22 25 26 27 27 27 26 25 25 26 28 30 33 35 35 34 34 35 35 34 34 33 32 33 33 32 32 32 30 28 28
8 8 9 8 8 8 9 10 11 12 12 12 13 13 14 14 15 16 18 19 21 22 23 23 23 23 23 23 23 24 25 26 28 31 34 32 32 33 33 33 33 31 29 29 29 29 28 28 29 29 27 26 24 24
11 11 12 13 14 13 13 13 13 14 15 16 17 18 17 18 20 21 20 19 19 20 19 18 19 21 22 23 24 25 28 29 31 31 29 31 31 31 31 30 29 28 28 27 26 26 27 27 27 26 25 23 21 21
13 13 13 13 13 14 14 14 16 19 20 20 20 20 19 18 18 16 15 15 15 17 19 21 21 22 25 26 27 27 29 31 30 30 31 30 30 29 28 27 26 24 23 24 25 27 27 26 26 25 23 21 20 19

GFSWCAN_700_spd_027.txt.gz
Wind_Speed
54 58 54 51 51 48 47 43 39 37 35 35 37 39 41 42 40 35 27 22 23 21 15 24 26 30 30 26 21 19 19 19 15 15 12 12 9 10 11 13 11 11 7 7 8 7 8 5 7 10 15 24 21 17
55 50 54 52 46 43 39 37 34 31 31 33 34 36 38 39 36 34 27 23 20 18 17 25 23 22 27 25 22 20 18 13 15 13 13 9 12 12 14 13 15 13 15 11 11 11 18 23 23 21 22 22 21 22
50 53 49 45 43 39 36 33 32 31 31 31 32 33 34 37 39 34 24 20 19 18 19 25 24 22 21 20 19 20 17 16 16 14 13 12 13 13 14 13 14 16 15 20 22 21 21 23 24 23 22 23 22 24
52 48 44 41 39 37 34 32 31 30 28 26 28 33 36 41 41 40 29 17 18 19 21 24 23 23 23 20 18 18 17 16 15 15 16 17 19 16 15 16 14 18 19 24 26 23 22 20 23 24 25 26 26 27
47 45 41 39 36 34 31 29 29 29 27 27 30 32 35 38 27 23 16 14 16 18 18 23 22 21 20 20 20 19 18 18 17 17 18 18 19 19 20 20 20 22 19 21 24 23 27 27 27 28 30 30 29 29
40 38 36 34 32 30 28 27 34 30 29 28 30 33 31 29 24 20 18 16 17 20 10 20 19 21 20 20 18 18 19 19 19 18 19 21 22 21 14 15 20 21 23 26 28 28 27 25 25 26 27 27 28 30
38 36 33 34 32 32 27 20 30 33 31 28 30 31 30 28 25 24 22 20 19 18 14 12 13 18 16 17 18 19 20 21 21 22 22 23 22 22 24 24 24 25 26 25 25 26 26 27 29 29 29 29 29 27
36 34 31 30 29 30 30 24 22 24 25 24 24 23 24 23 21 21 19 17 19 17 16 12 9 12 15 16 17 18 20 21 22 23 24 24 24 24 21 19 23 25 25 26 27 29 31 31 30 30 28 27 25 24
29 36 32 28 25 26 31 28 25 23 22 22 22 20 20 20 20 19 17 15 16 17 12 12 13 10 9 12 14 17 20 23 23 24 24 23 24 17 20 23 26 29 30 30 30 28 27 27 26 25 26 27 21 21
22 26 33 29 28 24 29 25 21 21 22 21 20 19 17 17 16 15 14 14 15 15 15 12 11 12 12 13 15 17 18 15 13 17 17 19 21 24 24 26 28 29 28 25 25 24 24 24 24 24 20 22 21 21
26 22 21 21 22 23 24 29 24 23 22 20 18 18 17 17 16 15 14 11 10 10 12 16 16 17 18 19 17 12 10 8 9 11 14 10 13 19 22 23 24 22 23 25 25 27 23 20 17 15 13 7 8 6
30 22 18 15 14 13 11 25 27 24 21 19 18 17 17 15 10 9 8 9 8 10 13 15 19 23 24 21 15 11 13 8 8 9 9 5 15 19 18 19 21 21 19 16 15 13 8 5 4 5 8 13 20 25
25 23 22 21 19 16 13 12 12 12 13 14 14 14 9 10 11 9 12 11 13 14 14 15 16 17 16 17 12 9 7 9 8 6 7 12 14 12 13 14 9 8 7 6 7 7 8 10 14 17 19 18 17 18
29 25 23 21 19 18 19 17 16 17 19 20 15 14 10 7 9 14 16 15 13 12 11 12 11 9 13 10 9 6 9 7 6 7 9 10 8 6 9 10 8 7 7 6 5 9 13 14 14 15 17 19 19 20
16 14 15 21 23 23 19 18 19 18 18 15 9 8 12 12 9 8 12 15 13 12 10 10 9 10 8 7 6 7 5 5 6 6 6 6 8 9 10 9 6 4 5 9 13 12 12 15 17 18 19 20 22 24
11 10 9 9 9 9 14 21 21 19 18 10 9 6 9 11 11 11 11 11 12 13 11 12 9 5 9 6 7 8 5 6 6 6 6 5 7 8 6 6 5 7 9 9 10 13 14 15 17 19 20 22 24 27
8 9 9 9 8 9 9 9 9 10 5 4 3 4 5 6 8 9 10 11 11 12 14 9 7 8 5 5 6 5 4 6 4 4 5 5 7 8 9 9 5 5 8 11 12 14 16 17 19 21 23 25 28 31
10 9 8 8 8 9 9 9 7 6 4 5 5 7 9 10 10 10 10 11 12 14 15 13 9 8 5 4 4 5 5 5 4 4 6 9 8 5 6 6 8 11 13 15 16 17 18 20 23 25 28 31 35 38
12 12 11 10 8 7 7 6 5 2 3 3 4 7 8 8 8 7 8 8 8 8 9 9 5 6 8 8 6 4 4 5 6 6 6 6 7 9 10 12 13 15 17 17 18 19 22 24 27 31 35 39 43 45
7 7 7 6 6 5 5 4 3 2 2 3 4 6 6 6 6 7 7 8 8 8 7 6 6 5 5 4 5 6 7 8 9 9 9 10 11 12 14 15 17 19 18 19 20 22 24 28 33 37 42 45 47 48
3 2 2 2 2 1 1 1 0 2 1 2 3 6 7 6 5 5 5 5 6 8 7 7 8 8 9 9 10 10 11 12 12 12 13 14 14 15 17 18 19 20 20 21 23 27 31 36 40 44 46 47 46 47
6 5 5 5 4 3 3 3 3 4 5 5 6 9 11 11 11 11 11 12 11 11 11 11 11 12 13 14 14 14 13 14 14 14 15 16 17 17 18 19 20 20 22 25 30 34 38 42 44 45 45 46 47 46
10 9 8 6 2 1 1 2 2 3 3 4 6 8 8 8 8 9 12 12 13 13 14 14 15 15 15 16 16 15 15 15 15 16 16 16 17 18 19 20 21 24 28 33 36 40 42 43 43 45 46 44 41 39
12 8 6 5 5 5 5 6 5 5 4 5 6 7 8 8 9 10 12 12 13 14 15 16 16 15 17 19 19 17 15 15 16 16 16 17 18 19 20 23 27 31 34 38 40 41 41 42 44 43 40 38 37 38
6 7 7 10 8 8 8 8 4 6 8 8 7 5 6 7 8 10 12 11 10 11 13 13 14 15 16 17 16 15 15 15 16 17 17 17 19 21 25 28 32 35 38 38 37 39 41 42 39 36 36 35 36 38
6 6 5 6 7 6 6 6 5 7 8 9 4 6 7 7 5 5 9 8 8 10 10 10 11 12 14 14 15 15 16 16 16 17 18 21 25 28 31 33 35 36 37 38 40 41 38 36 35 34 34 34 36 36
5 4 5 6 7 6 6 4 4 6 7 5 7 8 5 3 4 6 9 8 7 7 8 9 10 10 9 10 11 12 13 15 18 22 25 28 30 32 33 33 33 36 38 39 37 36 35 36 35 34 33 34 34 34
6 4 4 6 7 6 7 8 8 5 4 4 6 5 3 3 5 6 5 5 6 6 6 8 10 11 12 13 15 18 21 25 28 29 30 30 30 30 32 34 37 38 36 36 36 37 37 35 33 32 32 31 32 31
10 10 7 7 8 8 9 8 6 6 7 8 7 7 7 7 8 7 7 8 8 9 10 12 13 15 18 21 24 26 28 28 27 26 27 28 30 32 34 36 35 34 34 35 35 34 32 31 30 30 30 30 29 28
9 8 8 8 7 6 6 6 6 6 7 7 8 9 10 10 11 12 12 13 14 15 17 19 21 23 24 25 24 24 24 24 25 27 28 30 32 34 33 31 32 32 32 32 30 30 30 29 28 29 29 29 28 26
8 8 8 8 8 8 10 11 12 13 13 13 14 15 15 15 16 16 17 18 19 20 21 20 20 20 19 19 20 22 23 25 27 29 30 32 33 31 31 31 31 31 31 30 29 27 25 26 26 27 27 26 25 23
9 10 10 11 10 10 10 11 12 13 14 15 16 18 18 19 20 21 19 18 18 18 18 16 17 19 21 21 23 24 26 28 28 30 30 31 32 32 31 30 30 29 28 26 24 24 25 26 26 26 26 25 24 22
12 13 13 12 11 11 12 13 15 16 16 16 17 17 17 17 16 13 12 14 15 16 17 18 19 20 21 23 24 26 27 29 31 32 32 30 29 28 27 27 26 26 25 25 24 25 26 26 26 26 25 24 23 21

GFSWCAN_700_spd_030.txt.gz
Wind_Speed
33 39 41 43 44 55 58 55 54 53 51 50 52 53 52 50 47 42 37 34 26 22 17 19 28 29 33 30 26 23 22 22 20 17 14 11 8 11 10 10 7 7 5 6 7 6 6 1 7 8 12 20 20 19
47 42 47 58 65 47 51 49 45 44 45 48 50 50 49 48 46 41 34 30 28 24 16 15 23 27 31 30 26 23 24 15 19 16 14 8 10 9 11 6 9 9 10 8 7 5 13 18 13 16 21 23 23 22
48 45 48 51 49 47 44 43 40 40 42 43 45 46 46 46 44 38 33 25 23 21 16 19 24 25 26 30 26 23 21 20 15 18 14 11 9 9 10 10 11 12 11 15 16 14 14 18 19 21 21 23 24 25
50 51 50 48 46 43 39 38 38 38 38 39 40 43 45 44 40 34 30 24 24 22 16 24 25 22 23 28 26 23 20 18 17 15 16 15 14 12 12 12 11 15 17 18 19 17 18 19 23 25 25 26 27 28
50 48 44 42 40 37 36 37 36 35 35 36 37 39 42 42 40 37 34 27 21 19 15 26 24 23 23 21 18 18 19 17 17 17 16 16 16 16 16 15 16 17 18 15 18 20 22 23 25 26 24 25 26 27
45 41 39 37 37 36 35 35 33 32 34 35 37 40 40 41 39 33 30 23 19 17 15 27 25 25 24 23 21 20 18 17 18 17 17 16 16 16 10 12 15 17 19 21 23 23 25 24 24 25 26 28 29 30
38 37 33 32 35 34 31 33 30 31 32 35 36 36 36 36 32 28 28 18 18 17 10 19 24 24 24 22 20 19 18 18 19 19 20 19 19 19 19 17 19 20 23 25 25 23 23 22 25 29 30 30 29 27
35 34 33 28 27 32 31 34 32 31 30 34 37 36 35 32 23 15 10 15 19 18 14 11 13 20 20 20 20 20 20 21 22 22 22 22 20 20 17 20 20 21 23 25 25 25 26 29 28 27 26 25 25 26
31 31 30 27 24 20 32 32 32 33 32 32 32 31 30 26 25 24 15 15 19 17 15 15 14 12 18 18 18 19 19 20 21 22 22 21 21 16 20 20 21 22 24 25 26 26 23 23 23 22 23 24 19 20
27 25 26 24 19 20 33 23 29 30 30 29 29 28 25 24 21 19 19 19 19 19 16 13 15 14 13 14 16 17 16 13 13 17 17 22 25 24 23 24 25 23 21 19 19 21 22 23 22 18 14 12 11 8
24 22 19 18 14 17 25 25 26 29 25 27 27 22 21 21 21 18 12 13 10 11 16 16 14 14 15 15 16 11 10 7 7 13 14 10 16 20 22 21 20 17 14 15 14 12 12 12 10 8 7 6 7 10
14 19 18 13 13 14 17 27 26 26 25 24 20 18 21 16 9 7 10 8 7 10 11 14 16 16 20 19 16 12 13 8 8 10 10 7 20 19 18 17 12 11 10 9 9 8 7 5 5 7 9 11 12 12
13 15 14 14 12 12 11 15 24 23 22 23 21 18 11 13 7 9 14 13 15 15 17 21 24 23 22 19 13 9 9 8 8 7 7 14 14 14 14 10 8 7 7 6 6 5 5 6 8 8 9 10 12 12
18 18 13 13 14 12 11 11 10 19 21 21 16 13 9 6 10 13 17 15 14 15 17 19 18 14 15 12 10 7 9 7 7 7 10 12 12 10 9 9 8 8 6 5 5 5 6 8 9 11 11 12 14 16
17 18 19 17 17 14 13 16 15 14 16 10 7 7 13 11 10 14 17 16 14 14 14 14 14 13 11 8 7 8 6 6 7 8 7 9 10 10 12 11 10 9 8 7 7 8 9 11 12 12 14 15 17 20
16 16 21 21 20 20 21 20 19 18 19 11 9 8 13 15 15 14 15 17 16 17 15 14 11 6 10 7 7 8 5 6 4 5 5 5 7 11 11 11 10 10 10 9 9 11 12 13 14 15 17 20 22 26
14 11 12 9 9 8 12 15 17 16 9 8 9 11 10 12 13 15 15 13 14 17 17 10 8 8 6 6 7 6 5 5 5 3 3 5 8 9 10 12 12 11 10 11 12 13 14 15 16 19 21 22 25 29
9 8 8 9 9 7 7 7 5 4 5 8 7 6 4 5 7 8 10 10 12 14 15 11 8 9 5 5 6 6 5 5 4 4 5 6 9 10 10 9 10 10 12 14 15 16 17 19 21 22 24 28 32 37
15 14 11 9 8 9 9 9 8 8 8 8 9 10 9 9 11 11 11 11 12 13 14 11 6 8 10 9 7 6 6 5 4 4 5 7 8 9 10 12 13 14 15 17 17 18 20 21 23 26 30 35 40 44
11 11 11 11 10 7 6 7 7 7 10 10 10 10 9 9 8 8 8 7 7 8 8 7 8 6 6 6 6 6 6 7 7 8 9 10 10 12 14 15 16 17 18 19 20 21 23 25 28 33 37 42 45 46
4 4 4 4 4 4 5 6 5 7 8 7 8 8 8 7 8 8 8 8 8 8 8 8 7 8 8 9 9 9 10 10 12 13 14 14 15 16 16 17 19 20 20 21 23 24 26 30 35 39 42 44 45 46
4 3 2 1 0 2 3 3 4 4 4 5 5 4 5 7 7 9 9 11 10 11 12 12 13 13 13 14 14 15 15 15 16 16 16 17 17 17 18 19 20 21 22 24 25 28 32 36 40 42 43 43 45 44
6 4 3 1 2 3 4 2 3 2 3 2 0 0 1 2 4 5 7 8 11 12 14 15 16 15 15 15 16 16 15 16 17 17 17 17 18 18 18 20 22 23 25 27 30 33 37 40 40 41 43 43 41 38
5 0 4 4 5 6 5 5 4 5 4 3 3 3 2 3 4 5 6 7 9 10 12 14 16 16 16 16 17 15 15 18 17 16 17 17 18 19 20 22 23 25 27 31 35 37 37 38 40 42 40 37 36 35
5 7 7 8 7 7 7 8 8 8 7 6 4 1 1 2 3 4 8 9 9 9 9 10 12 13 13 14 15 18 17 15 15 16 16 18 19 20 21 23 26 29 32 33 34 35 37 39 38 37 36 36 34 32
7 6 6 5 6 6 5 5 3 2 2 4 4 4 5 4 3 4 6 8 9 8 8 9 11 12 13 14 16 16 16 15 15 16 17 18 20 22 25 29 31 31 31 32 34 36 37 35 34 34 34 33 31 30
7 5 6 5 3 2 2 2 2 2 3 3 4 5 3 2 2 4 7 6 6 6 7 9 10 11 12 11 10 11 12 14 15 17 19 23 25 26 27 27 28 30 33 36 36 34 32 32 32 32 30 29 29 28
5 5 5 6 7 7 7 5 5 3 3 3 3 1 2 2 3 5 4 4 4 4 5 6 8 10 11 11 13 14 16 19 22 24 24 24 24 25 27 29 32 34 35 33 31 31 31 31 30 29 28 27 26 27
12 10 9 8 7 7 6 5 3 1 3 4 4 4 4 5 6 7 7 7 8 8 9 11 12 14 15 17 19 22 22 21 21 21 23 25 28 29 31 33 34 34 32 31 31 31 31 30 29 27 25 26 26 26
7 5 4 3 3 2 4 5 5 6 7 8 8 10 10 10 11 12 13 13 14 14 15 17 18 18 19 19 19 19 19 20 22 24 25 27 29 31 32 32 32 31 31 30 30 30 30 28 26 25 25 26 26 26
6 5 5 5 5 6 7 9 9 10 11 11 12 13 14 15 15 15 16 16 17 17 17 17 17 17 17 16 17 20 21 23 25 27 28 29 31 32 33 33 32 31 30 29 28 27 25 24 24 24 25 26 26 25
7 7 7 9 8 9 9 10 11 12 13 13 14 16 17 18 18 19 17 15 15 14 14 14 15 15 17 18 20 22 24 26 27 29 31 32 30 29 29 28 28 27 27 26 25 25 24 24 25 25 25 25 25 24
10 11 10 10 11 10 10 11 12 14 13 14 15 15 14 13 12 11 11 11 12 14 15 16 16 17 19 21 23 24 27 30 30 30 30 30 30 30 29 28 28 27 27 26 26 26 25 25 25 25 25 25 24 24

GFSWCAN_700_spd_033.txt.gz
Wind_Speed
36 32 33 34 32 31 33 32 41 52 41 53 71 68 67 69 56 44 44 34 26 24 28 30 26 28 26 24 27 26 22 21 20 17 15 10 10 11 8 7 7 6 7 8 8 6 6 6 4 2 7 15 17 23
30 31 32 29 30 40 42 44 40 56 58 65 69 66 64 64 51 42 38 33 30 23 26 22 30 27 32 25 23 22 17 18 20 14 15 12 11 9 12 6 11 6 9 5 7 3 9 9 14 14 19 22 22 24
28 38 46 33 37 43 47 59 63 50 62 65 65 64 63 58 50 43 38 34 31 27 22 19 26 28 26 34 31 24 23 20 18 19 14 14 9 11 11 11 9 10 11 11 11 4 7 9 16 16 19 21 24 25
33 36 40 41 45 58 51 47 52 57 55 57 58 58 58 55 42 40 34 34 30 27 21 22 23 28 27 29 29 26 24 19 18 15 19 18 13 11 13 11 9 9 10 9 13 13 11 7 9 21 24 25 26 25
46 48 50 46 49 47 46 49 52 51 52 53 54 54 53 51 41 33 29 26 27 24 25 20 22 24 24 26 30 26 23 20 19 19 20 18 17 15 14 14 12 16 12 13 9 16 18 18 27 27 28 27 26 27
45 44 43 44 43 42 42 42 42 45 47 48 48 49 48 46 40 31 27 27 26 22 21 25 27 27 23 23 26 26 23 21 21 22 21 20 17 15 11 14 18 19 20 19 19 21 23 25 28 28 27 27 30 32
41 40 39 38 36 36 38 39 40 40 41 43 44 45 46 44 37 28 24 27 27 15 15 23 25 26 24 25 25 23 21 21 22 21 21 19 18 18 19 15 17 20 21 23 23 23 26 22 25 26 29 31 29 27
36 38 39 40 36 34 35 36 37 39 40 41 43 44 41 39 32 23 13 24 20 15 16 15 16 26 27 26 23 22 23 22 21 22 21 21 21 21 20 23 24 23 27 27 27 24 23 24 26 26 24 23 24 24
31 35 36 39 37 34 38 33 36 37 39 39 41 40 37 32 26 24 19 20 19 12 9 11 18 22 26 24 24 23 22 22 20 22 23 23 23 17 23 24 25 25 27 27 25 25 24 22 20 21 22 19 15 15
24 28 28 36 38 36 36 33 33 35 37 38 38 40 37 34 25 25 24 22 17 15 13 13 15 13 22 26 24 22 21 19 14 21 23 25 27 27 26 27 27 25 24 23 21 18 17 17 14 11 9 9 9 9
19 18 19 18 29 37 35 33 32 33 33 38 40 36 34 32 24 13 8 13 12 13 17 15 15 16 17 20 22 17 12 9 9 14 15 14 22 23 25 27 25 21 17 12 12 11 9 8 7 8 8 8 8 9
15 14 13 14 13 36 35 35 31 30 30 25 27 27 29 20 7 5 11 12 9 10 14 20 19 18 18 17 15 16 13 8 8 10 12 8 23 21 21 19 17 12 9 8 7 7 7 8 8 8 8 9 9 10
11 13 11 8 10 10 22 38 39 31 30 27 29 25 19 14 12 11 13 13 12 15 18 18 21 21 19 19 14 10 9 10 9 8 8 18 19 17 16 15 11 10 9 8 8 8 7 7 8 9 10 11 12 12
11 12 11 12 13 11 12 17 23 29 29 28 21 16 9 7 10 10 17 17 17 17 16 21 21 18 18 15 10 7 9 7 7 7 12 15 14 14 14 12 11 9 8 8 7 8 9 11 12 13 13 13 14 15
7 11 8 9 13 14 15 18 23 24 24 17 10 8 11 9 9 13 12 15 16 18 16 16 17 16 13 9 8 8 6 6 8 10 16 10 12 13 11 11 10 10 9 10 11 12 14 15 15 15 15 16 17 19
5 3 7 9 12 13 12 14 16 18 14 8 7 8 13 13 12 15 18 18 16 15 15 14 12 8 10 7 8 9 6 7 8 8 8 8 9 10 13 13 12 12 13 14 15 15 16 16 16 16 17 19 21 23
10 9 6 8 12 11 15 15 15 17 9 7 9 11 13 14 13 13 13 16 16 16 17 11 8 9 6 7 8 8 8 8 6 5 6 7 9 12 13 14 14 15 16 16 15 15 16 17 17 18 20 22 24 27
11 9 11 11 10 8 16 19 20 6 12 15 13 11 10 10 11 12 13 12 13 16 18 12 9 11 6 5 7 7 6 6 6 6 8 9 11 13 14 15 17 17 15 15 16 17 18 18 19 21 23 24 27 32
10 7 7 7 8 11 9 7 4 9 9 9 8 8 7 6 6 6 6 7 8 10 10 7 4 6 8 7 6 6 7 7 6 7 8 9 11 13 15 15 14 15 16 17 18 19 20 21 22 24 26 29 33 38
12 12 11 10 8 7 4 6 7 9 13 10 11 10 10 9 9 9 8 8 8 9 8 6 5 4 3 5 7 7 7 7 7 8 8 10 11 13 13 15 16 17 18 19 21 22 22 24 25 27 30 35 39 43
6 5 5 5 5 4 6 6 6 9 12 12 11 9 8 7 7 8 8 8 7 6 5 6 6 6 7 7 8 8 9 10 11 11 12 12 12 13 15 17 18 19 20 23 24 23 25 27 29 32 36 40 44 45
4 3 2 1 1 2 4 5 7 9 8 11 10 8 7 7 7 7 8 8 8 8 8 8 9 10 10 11 12 12 11 11 14 15 15 17 17 17 18 18 20 21 23 24 25 26 28 30 33 37 41 43 44 45
3 2 1 3 3 3 5 3 5 4 5 6 6 5 5 4 5 6 7 9 12 13 13 14 14 14 13 13 14 15 16 17 17 17 18 19 19 19 19 20 22 23 24 25 26 28 31 35 39 41 42 42 44 42
4 2 2 2 3 5 5 6 6 6 5 4 3 3 2 1 1 3 5 7 9 11 11 12 15 16 16 16 17 18 19 19 20 18 18 18 18 19 19 19 20 22 24 26 30 33 37 39 39 40 42 41 39 38
2 4 5 6 5 6 7 9 9 9 8 7 6 3 1 0 0 2 4 5 7 8 10 10 11 13 14 15 13 13 13 14 14 13 14 15 16 17 18 20 22 25 28 32 35 36 37 38 40 40 38 37 36 35
5 5 6 7 8 8 8 7 6 6 5 4 3 2 2 1 0 1 3 6 7 8 8 8 8 8 9 10 11 14 16 16 16 15 16 17 18 20 22 25 29 31 32 33 34 35 37 38 37 35 34 34 34 32
7 8 8 5 4 5 5 5 4 3 3 2 1 1 1 1 1 1 4 5 5 4 5 6 8 10 11 12 12 12 12 13 14 15 17 19 22 26 28 29 29 30 32 33 35 36 36 35 33 32 32 32 32 30
8 9 9 9 9 7 5 4 4 2 1 0 1 1 2 2 3 6 7 7 7 7 8 8 9 10 11 12 13 14 15 16 19 22 25 25 25 25 26 28 30 32 34 35 35 35 34 33 32 32 31 30 28 26
13 11 10 8 7 6 5 3 1 1 3 4 5 6 7 8 9 10 10 11 12 13 13 14 14 15 16 17 18 20 22 23 23 22 23 24 26 27 28 31 32 33 34 35 35 35 33 32 31 30 28 27 26 26
7 6 4 3 3 2 3 5 6 8 9 9 10 11 12 13 13 14 15 16 16 16 17 18 19 20 20 20 20 19 19 19 20 22 24 27 29 30 32 33 34 34 33 32 32 31 30 29 28 27 26 25 25 26
5 4 4 5 6 8 9 10 11 11 11 11 12 13 14 15 16 17 17 17 18 19 19 19 19 17 17 17 17 17 19 21 23 25 27 29 31 33 33 33 33 33 33 32 31 30 29 28 27 26 26 26 26 26
7 8 9 11 11 11 12 13 13 14 14 14 15 15 16 18 18 19 17 16 15 15 14 14 14 15 16 17 18 20 23 24 26 29 32 33 33 33 33 33 33 33 32 31 30 29 28 28 27 27 26 26 26 26
10 10 10 10 12 11 11 12 14 15 15 15 16 17 15 13 11 11 11 10 11 12 14 14 15 16 17 19 21 23 27 30 33 34 33 33 33 34 33 33 32 31 30 30 29 28 28 27 27 27 26 26 26 25

GFSWCAN_700_spd_036.txt.gz
Wind_Speed
44 37 33 31 31 33 33 33 35 39 40 39 41 52 51 67 76 56 46 27 34 25 31 45 38 37 29 28 23 29 27 23 20 14 14 10 10 13 9 7 7 6 8 10 12 6 7 10 6 4 9 10 14 21
34 30 28 28 28 30 33 33 35 33 32 36 43 61 56 82 59 59 39 40 35 31 39 49 44 41 32 28 25 26 26 21 19 15 12 13 12 13 15 8 10 7 8 5 7 1 7 8 10 8 12 17 19 19
29 29 29 30 32 32 33 34 34 35 35 43 59 61 78 72 60 51 36 36 7 39 40 38 34 35 33 28 26 25 23 16 15 17 15 14 12 13 12 14 8 10 12 11 11 5 5 8 9 10 18 19 17 22
24 25 27 28 30 32 35 35 35 39 42 36 60 65 79 64 50 43 34 18 15 28 31 33 35 33 36 34 25 24 24 21 17 15 13 14 13 11 12 8 11 11 11 8 10 12 12 12 15 20 21 23 24 24
22 21 22 27 32 36 35 38 48 42 45 56 71 68 77 45 22 16 25 21 18 16 22 25 27 32 31 28 32 27 22 19 17 16 18 19 16 14 12 12 13 14 12 14 12 18 18 24 26 25 25 27 26 24
36 36 39 44 47 49 51 51 52 63 66 60 66 69 61 46 31 26 23 28 24 20 16 22 27 28 29 28 27 28 22 21 21 21 22 22 18 16 10 16 17 19 18 18 22 23 25 26 28 26 28 24 25 28
40 37 37 40 39 43 47 54 57 56 56 60 67 56 45 34 36 32 24 27 24 22 15 21 22 26 29 28 28 28 28 26 25 22 24 21 21 20 18 15 19 19 22 21 21 23 27 28 28 24 25 27 29 28
40 32 39 39 39 42 54 54 52 52 53 55 55 55 40 37 32 20 15 19 21 25 18 16 16 27 29 30 28 30 30 27 24 23 24 24 21 21 21 21 23 24 26 26 25 26 27 25 25 25 26 25 23 22
32 33 33 35 35 35 38 42 42 43 45 45 50 45 33 29 25 19 16 16 21 22 9 12 22 29 31 29 30 27 27 25 23 26 24 22 23 18 22 25 27 29 28 28 26 24 25 25 25 23 21 19 14 12
35 32 31 33 34 35 37 38 39 39 39 41 40 44 36 28 22 18 11 12 21 6 9 11 22 25 31 30 29 26 24 20 15 22 22 26 28 27 26 26 27 27 28 26 24 24 23 21 18 16 13 11 11 10
42 36 32 37 36 35 34 36 37 38 38 40 44 35 27 25 18 16 11 14 10 6 9 13 21 18 27 30 27 22 17 14 11 16 18 17 25 25 26 28 29 29 27 24 22 18 14 13 10 10 10 11 10 10
30 36 42 35 32 34 36 38 36 40 42 38 36 25 24 22 10 10 10 9 10 8 13 16 17 16 19 23 17 22 11 10 7 11 12 10 22 19 20 23 23 23 20 17 14 12 10 9 10 10 10 10 11 12
21 22 22 39 35 35 35 34 36 37 34 32 27 25 15 14 7 6 7 10 10 14 16 22 19 18 17 18 12 10 10 10 9 9 10 18 17 20 21 21 20 18 14 13 11 10 10 10 10 10 11 12 13 14
16 23 22 20 30 29 31 29 31 30 34 25 22 18 6 8 9 11 16 14 11 13 17 18 21 19 17 16 9 7 10 8 8 8 14 15 16 18 19 18 17 13 13 12 11 10 11 11 11 12 13 14 15 16
13 13 13 13 15 19 27 33 32 28 27 17 10 9 11 9 10 10 14 16 14 13 12 16 18 16 13 8 8 8 7 7 8 10 15 13 13 15 14 16 13 14 13 12 11 11 12 12 13 14 15 16 17 19
7 8 9 9 8 7 8 11 22 32 28 6 5 10 13 9 9 13 12 13 13 12 13 15 12 8 9 6 8 8 5 6 10 11 11 10 8 12 16 12 13 13 13 12 12 13 14 15 16 16 17 19 21 22
12 7 8 9 12 10 9 11 13 14 7 7 8 7 9 10 8 7 8 10 11 11 12 8 8 7 6 6 7 7 10 11 10 8 6 4 6 11 11 10 12 13 14 14 15 16 16 16 17 19 20 20 23 26
14 15 14 9 6 11 12 12 12 6 7 10 10 9 8 8 8 9 8 8 8 10 11 9 7 8 5 4 6 7 7 5 4 3 5 8 11 12 12 14 14 16 15 17 17 16 16 18 20 20 21 22 25 28
10 10 10 9 12 11 11 10 5 10 13 13 12 11 9 8 7 6 5 6 8 9 9 7 4 5 5 6 5 6 5 5 4 6 8 10 12 14 17 16 15 17 17 17 17 18 19 20 22 23 23 26 28 31
14 14 12 9 6 5 7 9 10 8 9 9 6 4 2 2 2 2 3 4 4 4 3 4 5 5 3 3 4 5 5 6 6 7 9 10 11 13 15 17 17 15 16 18 19 21 22 23 23 24 26 29 31 35
9 8 8 8 8 7 8 7 6 10 13 12 10 7 6 6 5 5 6 5 5 5 6 5 5 5 5 6 6 5 6 7 8 8 9 10 11 11 13 15 16 18 20 21 21 21 25 26 26 28 29 32 35 39
7 6 5 5 5 5 5 5 8 8 9 10 9 7 5 3 3 3 5 5 5 6 6 6 6 6 7 7 7 7 9 9 9 12 12 13 14 15 15 15 17 21 22 22 22 25 26 26 28 30 32 36 40 42
6 5 4 3 2 3 5 5 8 7 6 7 6 5 3 2 2 2 2 2 4 5 5 7 8 9 9 9 9 11 12 12 13 13 14 15 15 17 18 19 19 20 21 24 26 26 27 29 31 34 38 39 40 42
7 5 3 3 3 4 4 4 6 6 6 5 4 4 3 2 1 1 1 1 3 5 7 8 9 11 11 12 13 13 14 15 17 19 18 18 17 18 18 19 20 22 22 23 25 27 30 33 36 38 39 40 41 40
2 5 5 7 6 6 6 8 8 7 8 7 6 4 3 3 2 2 1 2 3 5 7 9 10 10 11 11 12 13 12 12 12 12 14 14 16 18 19 19 20 22 24 26 28 31 34 35 36 38 39 39 38 37
5 6 5 7 9 8 8 9 8 8 6 6 5 5 5 3 2 2 2 4 5 6 7 8 8 8 8 8 9 11 13 15 16 17 16 17 18 19 20 21 23 25 28 30 31 32 34 36 37 37 37 36 36 35
9 9 9 8 8 7 8 7 5 5 3 3 3 3 4 2 2 1 4 6 7 7 8 8 8 9 10 12 13 13 13 13 13 14 15 17 19 21 24 27 28 29 30 31 33 35 35 36 36 36 36 35 34 34
10 11 11 11 10 8 7 6 5 4 3 3 4 3 1 2 3 7 7 8 9 10 10 11 12 12 13 14 14 15 16 17 18 20 22 25 25 24 24 26 27 30 32 33 34 35 35 35 35 34 33 33 31 30
14 12 10 9 7 6 6 4 3 2 4 6 6 7 7 9 10 11 13 13 14 15 16 16 17 17 18 19 20 20 21 22 22 22 23 24 26 26 27 29 31 32 33 34 35 34 34 34 33 33 32 30 29 28
9 7 6 5 5 5 5 7 8 9 10 11 11 12 12 14 14 15 16 17 18 19 19 20 20 21 22 22 22 21 21 20 20 21 23 25 28 29 31 33 34 35 35 35 35 34 34 33 32 32 31 30 29 28
6 7 7 8 9 10 11 12 13 13 13 13 14 15 14 15 15 16 17 18 19 20 20 19 19 18 18 18 18 19 19 20 22 24 26 28 31 34 36 36 36 35 35 35 35 34 33 32 31 30 29 29 28 28
9 10 11 12 13 12 13 13 13 14 16 16 15 16 16 17 16 16 14 13 13 13 13 13 14 15 17 18 19 20 22 24 26 29 32 35 36 36 36 36 36 36 35 34 33 32 31 31 30 29 28 28 27 27
10 11 11 11 13 12 12 13 14 15 15 15 16 16 14 12 10 10 11 11 12 13 13 14 15 16 18 20 22 24 28 32 35 36 35 35 35 35 35 34 34 34 33 33 32 31 30 30 29 28 28 27 26 26

GFSWCAN_700_spd_039.txt.gz
Wind_Speed
34 37 40 38 37 34 27 26 28 31 36 47 43 52 59 57 77 69 61 55 33 15 21 37 35 53 44 39 40 38 37 30 33 32 22 13 10 18 11 16 13 12 16 16 13 9 9 13 13 12 12 15 14 13
40 36 35 35 32 34 29 30 34 32 36 39 44 51 49 52 83 68 56 47 35 30 26 37 43 44 50 38 36 35 38 26 24 24 16 16 13 22 19 13 11 12 11 10 8 5 7 10 14 14 13 14 17 22
36 34 34 32 34 34 31 32 36 38 33 40 45 48 46 55 82 63 43 38 31 23 32 39 47 42 38 34 35 30 39 26 27 24 20 14 14 18 21 19 15 15 12 11 9 6 7 17 18 19 19 20 20 17
28 28 29 30 29 30 30 33 32 31 38 42 42 38 43 74 82 60 43 34 26 30 18 49 47 39 36 30 28 24 26 22 24 21 18 14 16 14 18 12 19 18 17 16 15 14 14 17 18 19 21 23 20 21
23 23 24 25 27 28 29 30 30 33 37 33 33 39 50 78 72 49 43 37 22 24 28 18 48 39 33 31 30 22 29 26 24 18 18 17 15 14 13 17 18 19 19 18 19 23 25 26 26 25 23 22 22 24
22 21 20 23 29 29 30 32 32 34 31 32 39 53 62 67 71 52 33 20 8 28 17 22 34 38 29 28 25 24 23 18 19 20 21 18 17 17 13 20 20 20 19 20 22 21 22 22 23 24 25 24 25 23
20 20 20 24 31 30 30 31 31 33 37 45 56 58 59 60 49 47 39 27 32 11 19 25 32 33 32 30 29 28 26 26 25 22 21 21 20 19 21 21 19 20 19 21 24 24 24 23 23 24 25 26 25 24
35 33 33 33 36 39 36 34 35 38 52 50 44 68 62 38 34 30 20 25 30 25 24 21 22 33 35 34 31 33 33 29 27 25 23 22 20 23 24 25 21 20 20 21 24 27 26 24 23 25 25 24 25 24
38 38 37 37 34 39 42 39 40 47 51 38 65 61 67 57 23 15 13 13 16 17 15 15 23 24 32 34 35 32 33 31 28 26 24 21 26 25 24 22 21 24 25 25 25 26 25 24 24 24 23 23 22 17
38 46 44 38 40 41 44 41 39 43 47 48 47 39 20 25 23 21 16 12 11 13 15 12 18 20 30 31 31 30 25 21 19 25 22 25 26 27 26 23 22 25 26 25 25 24 23 25 25 24 21 16 10 11
30 34 38 36 35 38 42 44 43 55 57 48 32 14 22 26 24 17 9 6 4 5 12 10 17 21 29 32 31 25 15 17 11 16 19 20 30 28 26 26 27 29 28 26 25 24 23 23 20 15 10 11 11 11
33 30 31 33 32 35 36 36 38 44 40 39 21 21 23 17 7 4 4 3 3 5 5 10 20 22 25 29 20 23 11 11 7 15 17 15 18 19 20 23 26 27 26 26 22 18 16 16 11 8 10 10 11 11
34 34 32 29 32 31 29 31 35 30 25 24 24 15 5 3 5 5 7 8 9 12 13 14 17 20 18 17 11 11 10 11 7 9 8 9 11 14 17 20 23 23 23 21 17 13 9 10 10 10 11 10 12 13
21 24 40 34 38 35 32 32 33 32 28 18 12 7 4 5 5 5 12 12 9 14 14 16 18 10 13 15 7 7 7 8 8 8 9 13 15 18 19 20 21 21 20 12 12 13 12 11 10 10 11 12 13 14
23 21 21 23 32 32 32 29 24 24 23 12 7 4 7 5 6 6 8 10 9 11 18 17 19 16 16 8 8 7 8 7 7 9 11 12 13 14 16 18 17 17 12 14 14 12 10 9 10 11 12 14 15 16
19 20 18 17 20 19 19 20 25 28 23 9 6 6 10 10 8 11 11 13 13 13 16 16 12 7 7 5 7 8 6 5 6 7 9 11 12 13 13 12 15 15 14 13 11 10 10 10 12 12 13 15 17 18
17 16 17 16 13 10 10 14 19 21 9 8 10 12 13 13 12 12 12 13 13 14 16 10 8 8 5 6 7 7 7 8 7 7 6 7 8 8 9 14 13 12 12 11 10 11 12 13 14 13 15 18 19 20
16 16 14 12 10 9 11 12 16 7 12 16 14 13 11 12 11 9 8 7 9 11 14 8 7 8 6 6 6 5 5 5 5 5 4 3 5 9 13 13 14 12 10 11 12 13 15 15 15 16 18 21 23 23
19 18 17 14 10 12 14 10 7 10 16 15 12 10 10 10 9 7 6 7 6 8 12 11 5 7 7 8 6 5 4 6 4 4 6 9 10 11 13 13 12 12 13 14 14 14 16 18 19 19 21 22 23 26
19 19 17 14 10 8 10 10 13 13 16 16 12 10 9 9 7 6 5 6 5 5 6 8 12 10 8 6 4 4 3 3 5 5 7 10 14 15 13 13 13 14 16 17 16 17 19 20 20 22 24 24 26 29
14 14 13 15 13 16 18 11 13 15 14 11 7 5 5 3 1 0 1 3 2 3 12 11 9 8 6 5 4 3 3 3 3 4 5 6 9 10 12 15 17 18 18 19 20 22 22 22 23 25 26 27 29 31
11 11 11 11 12 14 11 10 13 13 11 10 7 4 3 3 3 4 5 2 9 12 10 8 6 6 6 6 5 4 5 6 7 8 10 12 13 13 15 17 16 16 18 20 21 20 23 24 26 28 28 29 32 35
10 9 7 9 8 6 9 9 7 7 7 9 6 5 6 7 6 4 5 8 9 6 3 3 4 5 6 8 9 9 9 9 11 15 17 17 17 18 19 22 21 17 18 20 21 22 25 26 27 29 31 34 36 37
6 5 8 5 6 7 7 7 8 7 7 6 5 7 7 6 4 4 7 6 4 3 2 4 4 3 6 8 10 12 13 14 15 16 15 16 16 16 16 16 18 19 20 22 24 25 26 28 30 32 35 36 37 39
5 7 7 9 7 8 9 11 10 10 11 8 8 7 5 5 3 5 4 5 3 4 5 6 6 6 5 5 5 6 7 9 11 12 13 13 14 15 17 19 19 20 21 24 25 27 29 32 33 34 35 37 37 37
7 8 6 8 10 9 11 12 12 13 11 10 9 8 7 4 3 4 4 4 5 6 7 7 7 8 8 8 9 9 10 11 13 14 15 16 16 17 19 19 21 23 25 27 30 31 31 33 34 35 36 36 37 36
11 11 12 12 12 11 12 10 8 8 7 6 7 6 4 1 2 2 3 4 5 6 7 8 9 9 9 10 10 11 12 12 13 14 15 16 17 19 22 24 26 27 28 28 30 32 33 34 35 35 35 34 34 34
18 16 16 14 12 12 10 9 7 7 6 5 4 3 1 1 2 5 6 8 8 9 11 12 13 14 14 15 15 16 17 18 19 20 21 22 22 22 24 24 25 27 29 31 32 33 34 34 34 34 34 33 32 32
18 15 13 11 10 9 10 8 6 6 6 6 6 5 5 7 8 9 11 12 13 14 15 16 16 17 16 18 19 19 19 20 20 21 22 23 22 22 25 27 29 31 33 35 36 36 36 35 34 33 33 32 31 30
13 10 9 9 9 8 8 7 8 9 9 9 9 9 9 10 11 12 12 14 15 16 17 17 18 19 19 17 16 17 17 17 18 20 22 24 26 29 31 33 35 37 37 36 36 35 35 34 33 32 31 31 30 29
9 9 9 10 10 10 10 10 10 10 10 11 11 11 11 11 12 12 12 14 15 15 12 12 13 13 14 15 16 17 17 19 21 23 26 29 33 36 37 38 37 37 36 36 35 34 33 32 31 30 29 29 28 28
10 11 12 12 11 11 10 9 10 12 15 13 12 11 12 10 9 8 7 8 9 9 11 12 13 14 16 17 19 21 23 25 28 31 33 34 34 34 35 35 35 35 35 34 34 33 32 31 30 29 28 27 26 26
10 11 11 12 12 12 11 12 12 13 13 13 12 10 8 6 6 8 9 9 9 10 12 13 16 18 20 22 24 28 30 30 31 32 33 33 33 33 34 34 34 34 33 33 32 31 31 30 29 28 26 25 25 24

GFSWCAN_700_spd_042.txt.gz
Wind_Speed
35 37 36 33 34 35 35 35 37 42 43 43 45 47 56 60 66 74 69 60 33 38 28 40 33 47 39 48 50 49 39 36 41 31 31 22 12 21 18 19 23 27 25 22 21 14 13 16 21 23 17 17 17 16
32 32 35 36 35 35 33 33 34 33 36 36 42 49 54 63 67 69 76 65 35 39 18 37 43 49 45 42 48 41 43 34 31 34 22 25 17 21 20 18 21 17 21 18 17 9 14 13 20 20 18 13 11 12
32 32 34 38 35 30 32 31 27 27 29 36 41 42 55 64 58 61 74 66 38 33 10 35 41 35 44 44 49 38 38 39 39 33 22 25 28 23 22 23 20 20 14 15 15 13 13 14 14 14 13 13 13 16
34 32 35 33 31 31 30 31 28 27 33 36 34 50 54 53 44 58 76 63 51 45 28 16 35 33 40 43 38 39 35 31 34 36 21 27 25 21 19 22 25 24 21 20 19 17 18 18 18 18 18 18 19 19
28 29 28 32 30 29 31 30 29 30 40 37 43 44 52 46 39 60 62 67 46 38 19 19 28 32 32 33 40 35 29 29 36 32 23 20 27 20 19 23 24 26 25 27 25 22 20 19 21 21 21 21 22 22
23 23 25 26 26 26 27 29 30 26 32 36 41 40 44 36 37 65 69 51 42 34 7 16 28 33 42 41 45 36 34 35 36 37 30 29 23 21 17 25 25 24 25 23 21 20 18 21 23 24 25 25 24 26
23 23 23 25 26 24 27 27 25 27 32 30 32 33 36 40 53 68 64 45 32 33 17 4 18 41 35 34 42 44 41 39 40 35 29 28 23 22 23 25 24 23 21 20 19 19 20 22 24 24 25 26 27 26
24 24 23 24 25 27 31 33 32 31 29 32 31 31 28 27 49 54 39 31 28 29 24 7 14 46 35 33 34 41 38 35 33 29 27 24 22 27 24 28 21 19 18 18 19 19 21 23 25 26 26 27 28 27
23 23 24 29 28 27 28 27 32 31 33 29 30 29 34 34 52 50 22 8 20 21 13 13 13 27 39 34 28 21 22 27 27 30 29 27 28 29 27 25 21 23 21 20 20 22 24 26 26 27 27 28 26 24
35 28 28 29 31 30 28 28 28 29 33 42 39 39 47 55 39 39 27 26 10 10 6 9 20 19 29 29 28 26 21 14 15 24 26 29 29 32 28 24 20 21 22 23 24 26 25 25 25 26 26 24 24 21
44 41 40 40 40 46 47 48 46 41 40 25 18 23 36 54 34 14 6 4 8 8 13 15 18 17 24 28 28 24 16 13 10 16 20 24 29 28 25 24 24 24 25 28 28 28 27 25 24 24 22 21 18 15
37 39 40 43 40 41 44 46 41 29 26 34 35 34 24 17 6 6 9 10 7 8 14 13 15 18 21 24 18 21 14 10 7 16 19 18 21 23 27 28 28 29 29 29 27 27 26 24 22 20 17 15 13 12
31 34 36 37 40 42 38 40 24 29 35 28 30 13 9 6 5 7 9 11 11 19 18 17 22 21 18 22 12 13 11 13 10 9 8 16 19 21 24 24 27 28 28 27 25 22 18 17 17 15 14 12 13 11
24 29 29 29 30 32 36 39 23 34 26 8 8 8 5 5 6 7 10 14 16 19 19 15 16 20 20 21 8 7 8 8 10 8 12 14 16 18 20 22 23 23 22 21 18 16 15 16 16 15 13 11 9 11
28 31 37 39 28 29 32 34 24 19 14 6 7 6 6 11 13 13 11 9 13 17 22 23 19 9 11 4 6 6 9 7 9 10 12 14 15 16 17 18 18 18 16 14 15 15 17 16 15 12 9 9 10 12
23 27 29 30 30 24 26 22 19 13 8 5 6 12 12 11 11 9 9 9 8 14 18 17 12 7 6 4 6 6 6 6 8 8 8 7 9 10 12 14 12 9 11 13 15 14 14 13 11 9 9 9 11 13
13 17 19 16 15 14 14 11 12 9 4 5 9 9 9 8 9 11 11 10 11 10 16 8 8 6 6 5 6 5 5 6 7 7 8 9 9 8 7 5 9 11 12 12 12 12 11 9 8 8 8 11 14 16
10 14 16 15 12 11 13 16 13 4 12 14 11 8 5 4 4 5 6 8 11 13 14 8 8 8 6 6 6 4 4 5 6 6 6 7 6 5 6 9 11 10 12 12 10 9 7 7 8 9 13 15 17 19
15 12 9 10 11 12 15 13 10 13 20 16 11 8 7 7 6 4 4 5 6 8 9 9 4 7 7 9 8 7 5 6 6 5 3 5 7 9 11 11 9 8 8 8 8 8 9 10 11 14 17 20 22 24
21 18 14 10 7 11 8 12 17 15 19 17 13 11 11 12 10 8 7 6 3 8 8 10 15 13 11 9 6 5 7 5 3 3 5 8 9 10 9 8 8 8 9 10 13 14 14 15 17 19 22 24 25 26
19 18 20 17 16 11 15 13 16 19 18 14 9 7 9 7 5 5 4 6 4 15 20 15 10 10 10 7 4 3 4 4 4 5 3 4 7 8 9 10 11 13 15 17 17 17 19 22 23 23 24 26 28 30
13 16 13 13 20 22 18 16 17 16 13 12 7 6 6 7 7 7 7 3 11 15 13 10 8 7 6 5 4 4 3 3 2 3 6 8 10 12 14 16 16 17 19 20 20 22 23 24 25 27 27 29 30 31
10 10 9 11 11 10 15 14 13 10 8 10 9 8 9 8 7 6 7 13 14 11 8 4 2 2 3 4 4 4 5 7 7 10 13 14 15 16 18 19 21 23 25 25 24 24 24 25 25 27 29 31 32 34
7 5 8 6 8 9 9 11 11 10 9 9 8 9 9 8 5 7 11 10 8 6 4 2 1 3 4 6 8 9 10 11 10 10 12 15 17 18 18 18 19 19 20 21 22 23 25 27 28 30 32 34 36 37
5 7 8 10 8 9 10 12 11 11 12 9 10 9 5 4 5 10 9 7 7 5 3 3 2 3 3 4 4 5 6 8 10 11 12 13 15 16 17 19 20 21 22 24 25 27 29 30 32 33 34 36 36 37
7 8 6 9 12 11 12 12 13 13 11 10 10 9 7 5 5 6 6 6 5 5 5 5 5 5 5 6 6 7 8 9 10 12 13 14 16 17 18 19 20 22 24 26 28 30 31 32 33 34 35 36 37 37
12 13 16 16 13 12 13 12 11 9 9 6 8 6 3 2 2 3 2 2 3 4 5 5 6 8 9 10 11 11 12 13 14 15 16 18 19 21 23 24 25 27 28 29 30 31 33 34 35 36 37 38 38 38
23 21 18 16 14 14 12 11 8 7 6 5 3 2 1 2 3 3 3 4 5 8 9 10 11 12 13 14 15 15 16 16 17 18 18 19 20 22 23 24 25 27 29 31 33 34 36 37 38 38 37 37 36 36
23 19 15 13 10 10 10 8 7 5 4 3 3 2 3 4 5 6 7 9 8 9 12 12 12 14 16 16 16 16 16 16 17 17 17 18 20 23 25 28 30 32 35 37 39 39 39 38 37 36 36 35 34 33
16 13 10 10 9 9 7 6 6 6 7 6 6 6 5 6 6 7 8 9 10 11 13 15 14 12 10 11 12 13 14 17 19 21 23 25 26 29 32 34 36 36 36 36 36 36 36 36 36 35 34 33 32 32
13 12 11 11 10 9 8 8 8 8 7 7 7 7 7 7 7 8 9 9 7 7 8 8 9 11 11 12 13 15 16 19 22 24 28 30 32 33 34 34 35 35 35 36 36 36 35 34 33 32 31 30 29 29
11 11 12 12 10 9 10 11 12 12 9 9 9 9 7 6 5 3 4 5 5 6 8 9 11 13 15 17 19 21 23 24 25 26 27 28 29 31 32 34 35 35 36 36 36 36 36 35 33 32 30 28 27 27
9 9 10 11 10 9 9 9 10 11 10 10 7 3 3 4 4 4 5 5 6 9 11 13 15 18 20 20 22 23 23 24 26 27 29 30 31 32 33 33 33 33 33 34 34 34 34 33 31 30 28 27 25 24

GFSWCAN_700_spd_045.txt.gz
Wind_Speed
26 33 38 35 32 36 38 39 43 40 34 40 47 47 61 67 69 47 60 61 62 41 32 37 37 33 31 29 40 39 36 45 39 33 37 26 16 26 26 26 30 30 28 25 26 20 15 16 17 24 20 25 16 15
26 27 30 32 34 34 33 34 38 41 37 50 48 53 53 57 66 47 67 61 61 47 22 41 40 46 46 39 31 36 36 33 34 33 32 30 18 24 27 25 25 29 27 23 21 23 21 14 18 24 26 17 13 10
28 29 30 31 31 31 32 34 37 42 48 49 46 50 46 50 55 50 57 73 53 50 25 26 30 33 41 48 40 35 39 35 36 35 36 25 24 23 27 29 26 29 22 27 22 25 24 19 15 17 18 17 13 12
29 31 31 32 32 31 31 32 32 33 44 48 41 44 47 44 47 54 58 63 53 40 35 21 27 33 43 41 42 34 41 27 32 35 36 28 21 27 28 26 30 29 27 26 24 23 18 17 16 16 16 16 15 16
34 33 30 31 32 32 29 25 25 27 33 35 35 39 44 42 49 50 58 48 46 44 14 17 12 28 34 38 39 37 37 31 35 34 34 29 33 24 23 30 33 27 28 30 31 23 22 17 15 16 18 20 21 22
29 28 28 28 31 31 26 25 25 24 21 28 29 31 40 42 51 52 49 52 39 44 29 10 12 24 29 21 32 37 42 42 38 35 35 38 36 24 20 33 31 24 23 24 25 19 18 19 19 19 21 24 26 26
24 26 26 27 29 27 27 31 32 28 25 27 30 31 44 46 45 43 46 54 36 19 19 16 14 22 18 26 32 38 38 38 38 40 36 39 32 32 29 25 27 21 21 22 22 21 21 20 21 22 23 25 27 27
25 25 24 23 25 27 28 30 31 28 30 33 35 35 30 38 27 33 31 38 43 30 22 8 7 10 23 31 35 37 41 39 38 37 37 36 35 36 29 34 23 17 18 23 23 23 21 20 22 23 25 25 27 28
23 24 27 27 27 27 26 24 26 29 31 33 29 35 29 28 19 34 17 22 31 38 31 20 17 10 23 38 41 36 34 34 34 37 33 31 34 28 28 24 23 20 19 20 21 21 22 24 26 26 27 28 29 29
28 28 28 27 27 29 31 33 32 32 32 32 30 25 19 15 32 37 27 23 21 39 46 29 26 25 16 22 36 43 36 23 26 23 30 30 29 31 27 26 21 20 21 23 24 25 25 27 28 28 28 29 31 30
32 30 30 30 30 29 30 33 34 36 36 34 37 14 27 26 29 25 17 8 11 12 28 28 22 24 16 32 20 23 10 12 8 11 7 8 29 29 29 28 24 23 24 27 30 32 31 29 28 27 27 28 28 26
34 35 37 38 40 42 44 39 40 44 39 26 21 20 27 18 21 12 9 7 8 9 11 16 18 17 15 14 11 10 6 10 8 13 16 18 23 23 28 28 26 26 28 30 33 32 28 26 26 25 25 26 25 22
56 58 47 43 40 40 46 35 34 37 29 20 19 34 23 11 10 6 8 8 7 11 22 23 19 20 17 10 8 8 10 9 9 13 9 11 14 20 24 26 29 30 32 32 30 28 27 26 25 24 23 21 19 21
45 46 32 36 45 47 41 27 26 23 28 11 9 9 6 7 5 8 12 12 12 15 21 21 20 10 10 11 7 7 6 8 9 9 10 11 18 23 24 25 26 26 27 27 26 24 23 22 21 20 20 20 20 18
36 36 36 38 41 39 32 20 24 21 10 8 7 6 9 16 16 13 13 10 10 14 16 15 15 6 12 6 4 3 6 3 5 5 9 12 13 8 13 17 22 25 23 21 18 17 16 16 18 18 17 16 15 12
28 24 25 26 21 17 17 14 9 5 12 8 11 16 12 11 12 11 10 10 12 17 17 13 5 3 4 6 4 2 2 0 3 5 8 8 12 14 15 15 14 13 10 10 10 10 12 16 17 17 17 15 10 9
24 28 31 26 23 18 18 17 15 8 6 9 12 11 11 9 9 10 12 11 12 18 17 7 5 3 5 4 6 6 3 3 4 5 7 7 7 6 8 8 8 8 10 9 8 10 14 16 17 16 11 10 9 10
10 14 18 19 15 12 9 7 4 8 20 17 14 10 10 9 8 9 9 10 12 16 15 8 7 6 5 6 8 6 4 3 4 6 7 6 6 7 6 4 6 8 9 11 12 14 14 13 11 10 10 9 11 14
9 10 11 10 10 9 8 9 12 18 22 19 14 12 10 11 9 7 5 5 7 12 14 10 5 10 11 13 10 7 7 8 8 8 7 7 7 6 6 9 10 10 10 10 9 9 10 9 10 12 12 13 16 18
16 12 8 7 8 9 8 15 22 17 20 19 16 15 15 16 12 10 7 4 4 6 6 12 18 15 13 11 8 9 9 10 6 4 5 7 8 7 8 8 7 6 7 7 8 8 10 12 14 15 17 20 21 23
16 17 16 10 11 8 14 12 17 18 18 18 13 10 14 11 8 7 6 10 2 16 24 19 14 13 12 10 8 7 5 6 6 5 4 4 6 7 7 7 7 7 9 11 13 14 15 17 19 21 23 25 27 28
15 15 12 15 19 21 16 16 17 16 14 12 10 10 11 12 11 12 10 6 21 23 19 13 10 9 6 4 5 6 6 3 2 3 2 3 4 6 8 10 11 12 14 16 18 20 22 23 24 26 27 28 29 29
10 10 6 11 11 10 16 16 12 10 8 10 8 8 8 8 9 7 9 18 19 16 12 8 6 4 3 2 2 1 3 5 5 7 9 9 11 12 13 14 15 16 18 21 22 23 24 25 27 28 28 29 30 32
6 4 7 6 8 9 9 9 9 9 9 8 6 10 8 8 7 9 13 12 11 10 7 5 4 3 3 3 4 4 5 5 6 6 8 10 12 14 16 18 19 19 20 22 23 24 25 25 26 28 30 32 34 35
3 6 8 9 8 10 11 13 11 11 13 10 9 8 7 6 5 11 10 9 7 6 5 4 4 4 3 4 4 5 6 6 7 8 9 11 13 15 16 18 19 21 22 23 24 26 27 29 31 33 34 36 36 37
6 7 6 9 12 11 12 14 12 12 10 10 10 8 7 5 4 5 7 7 6 4 4 3 3 3 4 5 6 7 7 8 9 11 12 14 15 17 18 19 21 22 24 27 29 30 32 33 34 35 37 38 40 40
12 14 18 18 16 15 16 15 12 9 9 6 6 4 2 2 2 4 3 1 0 1 2 3 5 7 8 10 11 12 13 14 15 16 17 18 19 20 21 23 24 26 27 29 30 32 34 36 38 40 41 42 43 43
23 23 20 19 16 15 14 12 9 7 6 4 2 0 1 1 2 4 4 4 5 6 7 9 10 11 12 13 14 14 15 16 16 17 18 18 19 21 22 24 26 28 31 33 36 38 40 41 41 41 40 40 39 38
23 19 15 13 10 8 9 8 6 5 3 3 3 3 4 5 6 7 7 7 9 10 10 11 12 14 14 13 13 12 12 12 13 15 17 19 21 23 26 29 31 33 34 35 36 38 39 39 40 40 39 38 37 36
18 14 11 10 9 11 9 8 7 6 5 5 5 5 5 5 6 7 8 9 10 11 10 9 8 8 9 10 12 14 15 17 19 21 23 25 26 27 28 29 30 32 33 35 36 37 38 38 38 38 38 37 36 34
13 11 10 11 11 10 9 7 6 6 6 7 7 6 6 6 7 6 7 8 7 6 6 6 7 8 10 12 14 16 18 20 21 23 24 25 26 28 29 31 32 33 33 34 34 35 36 37 38 37 36 34 33 31
10 10 10 10 9 8 9 9 8 7 8 8 8 8 5 4 4 3 3 4 5 6 7 9 11 13 15 17 18 18 19 19 20 22 23 25 26 27 28 29 29 30 32 33 35 36 36 36 35 34 32 30 28 26
8 9 9 9 9 9 9 10 11 11 10 9 4 1 2 3 4 4 5 4 5 9 11 12 15 16 16 16 17 18 19 21 21 22 24 25 25 25 25 26 28 29 32 32 30 30 31 31 31 30 28 26 23 21

GFSWCAN_700_spd_048.txt.gz
Wind_Speed
11 16 18 24 29 33 36 36 45 47 46 45 43 51 56 55 50 54 47 54 53 48 23 23 38 44 37 35 40 36 27 38 39 40 33 19 22 22 22 27 33 34 31 26 26 18 15 23 22 27 26 19 17 19
32 23 20 21 28 33 34 40 40 40 43 43 41 46 52 54 50 44 52 55 53 48 31 28 37 30 37 31 29 22 27 30 41 31 29 23 20 19 26 29 31 34 35 32 28 28 27 18 15 15 19 22 18 13
25 25 24 26 29 26 30 33 36 40 41 40 40 39 42 43 48 46 58 34 38 49 50 26 22 28 27 37 39 36 27 20 18 39 33 28 17 33 23 30 27 35 30 34 30 30 30 29 25 24 20 16 17 12
25 26 29 31 31 32 34 35 41 41 37 37 37 34 33 36 44 49 59 36 16 43 53 22 29 33 31 30 34 38 27 24 22 25 32 36 29 27 30 29 31 33 32 32 33 34 34 26 22 19 18 16 16 15
26 26 26 27 29 31 36 38 39 35 29 34 33 31 31 26 42 39 49 18 22 41 45 29 21 25 27 32 43 44 39 29 29 28 34 35 37 29 23 30 34 32 31 30 32 29 27 20 15 17 18 17 16 16
28 32 34 33 31 30 29 27 29 29 33 35 33 33 35 39 33 39 41 28 49 27 25 40 13 21 22 25 32 38 30 34 34 34 31 32 37 28 24 30 32 33 29 28 33 24 20 17 17 17 17 16 17 18
26 28 30 29 26 27 27 27 26 28 35 32 31 29 27 29 26 27 28 33 25 42 29 15 12 9 9 21 24 30 34 35 35 33 34 33 33 34 33 37 29 26 28 27 30 25 24 21 19 18 20 20 20 22
28 28 27 26 26 28 28 28 28 30 32 31 30 29 26 24 21 26 31 29 33 31 13 7 7 8 10 17 32 29 36 37 38 41 39 35 30 31 34 38 35 32 27 24 31 28 24 21 19 20 21 21 22 24
25 27 27 28 31 32 30 31 31 29 30 31 32 31 31 28 26 27 23 20 39 31 2 5 11 5 5 9 14 27 32 37 34 41 40 34 36 35 41 39 34 28 28 20 24 29 25 24 22 22 22 23 24 26
26 28 28 28 29 28 27 27 31 32 32 40 39 29 26 31 30 25 26 26 40 46 33 12 15 14 12 12 14 16 28 24 28 34 31 42 44 44 45 35 28 25 26 26 24 23 23 24 23 23 25 25 26 27
27 27 27 26 26 26 25 26 25 27 29 31 35 31 26 26 32 18 18 18 16 19 25 36 27 23 20 20 24 17 16 22 24 22 28 16 33 30 32 26 25 24 19 23 26 26 26 25 24 24 24 25 26 28
26 29 32 35 35 36 37 36 36 39 36 35 26 28 26 22 13 4 7 9 9 11 10 17 27 30 32 24 20 17 9 15 10 21 18 10 30 28 29 28 22 18 20 23 26 29 31 29 27 24 26 25 25 25
27 28 29 32 35 37 38 34 32 36 33 35 35 17 13 9 8 5 9 7 8 12 18 16 20 18 20 14 5 2 3 5 12 12 9 14 13 15 19 26 33 32 34 35 33 30 28 25 25 24 24 21 22 23
30 27 27 26 27 28 36 42 36 20 19 27 11 9 4 5 5 6 10 9 9 15 19 19 19 10 9 7 4 5 7 12 8 8 7 13 17 21 23 26 29 30 27 24 24 24 23 24 22 23 23 23 24 24
38 39 41 35 42 35 28 29 26 9 7 6 6 4 6 8 10 9 6 5 9 12 16 17 12 7 9 4 3 4 5 3 2 1 5 11 15 15 15 15 16 16 17 19 20 20 19 19 18 16 17 20 21 20
30 33 27 25 25 24 24 19 17 12 17 7 9 15 13 9 10 10 10 11 15 16 17 11 6 5 4 4 3 4 4 4 2 1 2 3 8 12 13 14 15 15 16 17 18 14 11 10 11 15 16 14 14 16
20 17 16 18 21 20 20 19 12 12 9 9 13 14 11 10 10 9 7 11 15 15 12 7 5 3 5 5 4 4 5 3 1 1 3 7 8 7 6 7 7 8 8 8 8 7 7 8 11 13 14 14 15 13
18 19 20 17 16 15 13 14 19 15 24 18 15 11 5 5 5 3 3 3 9 9 8 4 6 6 5 6 7 6 3 3 3 2 7 9 9 8 7 5 5 7 6 4 3 5 7 10 11 13 14 12 11 11
12 13 12 11 10 8 11 14 17 17 20 18 15 11 7 8 7 5 3 1 4 5 5 5 6 12 13 12 9 7 7 9 8 9 11 11 10 7 5 5 6 5 4 5 4 5 7 8 9 10 11 14 16 17
10 10 11 11 9 5 9 17 22 17 22 20 16 13 11 14 13 10 6 3 2 2 4 12 18 15 12 11 10 9 9 8 6 4 5 6 6 5 5 4 3 2 2 3 3 4 6 9 12 14 16 18 20 23
12 10 12 10 6 5 15 14 19 20 22 19 13 10 14 11 8 10 6 8 4 14 25 21 16 14 12 9 8 7 8 7 7 6 5 3 4 5 3 3 4 3 4 6 8 11 12 14 15 18 20 23 25 27
23 19 14 11 11 17 15 17 19 15 17 17 13 12 13 13 12 14 12 7 21 26 21 15 12 10 7 5 5 3 4 4 3 2 2 2 1 3 4 6 8 9 11 13 14 15 16 18 21 24 27 28 30 31
12 8 10 16 15 12 22 21 16 12 9 11 9 11 10 10 10 7 11 19 20 18 15 11 9 7 6 5 6 4 2 1 2 3 4 5 6 7 8 9 11 13 14 16 18 21 23 25 26 28 29 30 31 32
8 6 11 9 10 13 13 13 12 13 12 11 9 12 11 11 9 11 13 12 12 11 8 7 6 4 4 4 3 4 4 4 5 6 7 8 9 11 12 13 15 16 17 18 20 22 23 25 26 28 29 31 33 35
6 9 9 11 9 11 14 17 15 17 16 11 10 8 7 7 6 9 9 9 9 7 5 4 4 3 3 2 3 4 4 5 6 7 8 9 10 12 14 15 17 18 20 21 23 25 27 29 31 33 35 36 38 39
8 8 6 8 11 10 13 15 13 14 11 11 9 9 8 6 4 6 8 7 6 3 2 1 2 3 4 6 7 8 9 10 11 12 14 15 16 17 19 20 21 22 24 26 27 29 30 32 34 36 39 41 42 43
12 14 18 18 17 16 17 16 12 10 9 7 7 5 3 2 3 7 8 6 4 4 3 4 5 6 8 10 11 12 12 13 13 14 15 16 17 17 19 20 21 23 25 28 30 32 34 35 37 38 39 40 42 42
21 23 20 19 16 15 13 10 8 6 5 4 2 2 2 1 2 6 6 5 6 6 7 8 9 10 10 11 12 13 13 13 13 14 15 17 18 20 22 23 25 26 28 29 31 33 35 37 39 40 41 41 42 42
23 20 16 13 10 9 9 9 8 6 5 5 5 6 6 6 4 5 7 7 7 8 9 10 10 11 11 10 9 9 11 13 15 16 18 20 21 22 23 24 25 27 29 31 33 34 35 36 37 38 39 41 42 42
18 15 12 10 9 11 10 8 7 8 7 7 8 7 6 6 6 7 7 7 7 7 8 9 8 7 8 10 11 13 15 17 18 19 19 20 21 22 24 26 27 28 29 28 29 31 32 33 33 33 34 36 36 36
16 13 10 10 11 10 9 8 8 8 8 8 8 7 7 7 7 7 7 7 6 4 5 6 7 9 11 13 14 16 17 17 18 18 20 22 23 24 25 25 25 26 26 28 30 29 28 28 30 30 31 32 33 32
11 10 10 9 8 7 7 7 7 7 9 9 10 9 5 2 2 3 3 4 5 4 5 8 10 12 14 14 15 15 16 18 19 20 21 22 22 22 21 22 23 24 27 27 27 26 27 28 28 29 30 31 31 30
9 8 7 7 7 7 9 11 11 11 11 11 8 3 3 4 3 4 5 4 5 8 9 11 13 13 13 14 15 16 17 18 18 19 19 19 18 18 20 21 21 23 25 25 25 25 26 27 27 28 28 29 29 29

GFSWCAN_700_spd_051.txt.gz
Wind_Speed
11 13 14 19 24 26 26 31 32 43 48 49 51 52 47 46 52 67 58 56 51 53 28 32 40 30 34 38 38 33 31 39 32 29 22 21 16 23 28 24 22 30 27 25 30 22 16 28 23 26 30 23 21 18
11 14 16 20 23 22 26 27 36 43 45 45 49 47 45 48 53 63 60 51 48 48 47 19 36 36 35 33 34 34 35 33 40 33 33 21 19 22 26 32 32 29 35 34 30 31 30 24 23 24 26 23 18 19
25 21 17 17 18 22 23 31 37 41 41 45 43 39 48 48 49 54 53 47 50 49 41 34 15 32 31 31 28 29 35 31 30 34 31 30 19 34 25 39 40 34 29 34 31 32 32 31 31 31 30 24 23 15
23 30 33 32 35 34 35 36 36 36 40 39 35 44 46 40 42 47 40 38 31 42 34 43 24 37 26 29 35 36 28 32 18 16 33 26 25 30 29 35 24 34 30 34 35 32 31 31 29 31 30 24 22 18
24 27 24 22 26 26 32 35 35 36 37 37 42 41 41 42 34 31 27 33 30 33 17 39 24 7 27 28 33 35 34 33 27 24 26 34 32 26 31 32 36 36 33 30 35 29 28 23 24 24 22 21 22 20
24 26 29 29 29 31 33 35 38 39 37 37 38 34 31 35 39 34 35 39 42 39 5 18 37 16 21 23 24 28 33 34 31 31 27 30 30 21 34 45 39 26 29 29 28 24 26 26 25 21 21 20 22 20
31 27 27 29 27 27 32 37 37 36 34 31 33 32 31 33 33 32 35 39 33 21 12 18 30 17 22 21 21 23 29 36 39 34 32 33 31 32 36 37 30 32 34 27 24 23 32 30 25 22 22 21 22 23
29 32 33 31 26 24 27 27 30 38 37 33 30 28 34 26 26 15 15 29 9 10 18 9 12 22 25 23 22 22 24 29 34 33 36 38 36 33 35 40 39 34 33 24 22 27 28 24 26 24 23 23 25 25
30 31 32 31 29 27 27 30 34 33 31 31 30 30 31 29 25 18 20 20 16 11 9 9 9 12 17 15 18 22 22 28 32 38 40 34 34 34 33 29 27 25 34 32 28 31 28 27 27 26 26 24 25 26
30 31 31 32 32 27 26 30 34 33 28 27 27 25 24 21 22 18 18 12 14 21 24 17 12 7 14 12 9 13 10 21 28 38 30 44 48 45 37 25 15 17 19 23 28 31 30 26 27 25 29 28 27 28
28 28 31 31 33 34 34 32 31 31 29 27 24 19 22 24 23 20 18 12 9 11 28 20 14 10 9 5 2 1 5 6 7 19 30 22 31 40 45 35 35 33 32 32 30 31 31 27 26 26 29 31 31 32
24 24 25 30 32 33 36 41 41 35 27 23 21 27 33 30 16 11 14 12 11 17 15 22 22 21 20 13 3 3 7 8 6 15 21 16 24 24 25 28 29 31 32 26 29 30 24 25 26 28 26 25 27 30
20 23 24 26 26 25 29 40 25 26 32 26 27 24 17 15 12 11 22 17 14 27 30 20 13 14 19 12 7 5 4 6 4 9 7 9 16 18 22 24 30 29 29 28 30 21 25 27 27 25 25 28 29 29
21 24 25 27 27 27 26 25 39 31 25 17 12 13 6 6 4 6 10 14 13 18 17 16 15 11 11 14 7 5 5 5 2 2 5 6 5 15 12 15 14 12 9 14 18 23 28 28 23 21 21 20 20 22
22 22 23 26 27 27 27 27 23 9 10 3 4 6 9 12 13 14 13 15 15 18 21 20 16 11 11 6 5 5 3 4 5 5 9 5 7 12 11 10 11 10 11 15 15 14 12 10 10 13 16 17 21 23
31 32 31 31 33 30 26 19 8 8 11 7 9 12 14 11 13 14 15 16 16 17 15 9 7 6 5 5 4 5 3 4 3 4 4 1 3 7 7 7 8 8 7 8 7 8 9 8 9 10 14 16 16 14
21 21 22 24 22 23 15 10 6 4 7 9 14 16 17 17 16 13 13 15 13 13 10 7 5 4 6 5 6 5 5 4 2 1 3 4 5 5 6 6 6 5 5 5 5 2 2 3 3 6 8 9 11 12
17 19 19 17 14 15 13 7 11 12 18 18 20 17 13 12 10 8 10 7 9 8 7 5 7 5 7 7 11 9 6 5 5 4 5 7 8 7 7 6 4 4 5 4 1 2 3 4 5 7 9 11 12 12
5 14 16 14 14 17 20 18 18 17 21 21 21 17 15 17 15 14 11 8 5 4 5 9 8 16 17 15 12 10 10 9 10 7 6 6 6 5 5 5 7 6 2 2 2 2 4 6 8 9 8 9 11 14
20 19 16 11 12 19 13 16 18 15 21 19 16 15 15 19 18 16 13 10 8 2 8 17 23 19 17 15 13 11 11 11 10 5 5 7 9 8 7 5 3 3 3 3 3 3 3 4 5 8 11 14 16 18
13 13 12 12 10 16 14 14 19 20 21 22 20 20 22 16 15 15 14 13 5 23 32 27 21 18 16 14 12 11 10 10 7 7 7 7 7 5 4 4 4 3 3 3 4 5 7 9 11 13 16 19 21 24
15 13 15 12 17 22 17 19 16 17 20 18 15 15 15 15 16 19 17 15 26 28 25 21 18 15 13 11 10 7 8 7 5 4 4 4 2 2 3 4 6 6 7 8 8 10 12 14 17 19 21 24 26 28
19 17 16 19 16 13 21 19 13 11 8 11 10 13 13 15 17 13 18 23 23 21 18 14 13 10 9 10 10 8 6 6 4 3 2 2 1 2 3 4 6 8 10 12 14 15 17 19 21 23 25 27 28 30
10 10 12 8 9 13 12 12 14 13 11 10 9 12 12 12 11 13 16 15 15 14 11 8 7 6 5 5 4 4 4 3 4 5 5 6 7 8 9 10 11 13 14 16 17 19 21 23 24 27 29 31 33 34
8 10 11 12 10 13 15 14 14 16 15 9 10 9 7 6 6 9 9 10 10 8 6 5 5 4 3 2 2 3 4 5 6 7 8 9 10 12 13 15 16 18 19 21 22 23 25 26 28 30 33 34 36 37
10 7 7 10 13 12 16 17 15 15 11 11 9 8 7 4 3 4 8 8 8 6 4 3 1 1 2 4 6 7 9 10 11 12 13 13 14 15 16 17 19 20 21 23 25 26 28 29 30 32 34 37 39 40
15 15 19 20 21 19 19 17 14 12 11 7 6 4 2 1 1 5 7 6 5 4 3 3 5 6 8 9 10 11 12 12 13 13 14 14 15 16 18 20 21 22 23 24 25 27 29 31 33 34 34 35 37 38
24 24 22 21 19 17 15 13 10 8 7 5 4 3 4 2 5 5 7 6 6 6 6 7 9 9 10 10 11 11 10 10 11 13 16 17 19 19 20 20 20 22 25 27 28 29 29 30 31 33 33 32 32 34
27 23 19 15 14 14 15 14 12 10 8 6 6 5 6 5 4 3 5 6 7 7 8 8 8 9 8 7 8 9 11 13 15 16 17 17 18 19 20 22 23 25 26 26 26 27 28 29 28 28 29 29 30 31
22 18 15 13 14 17 14 13 11 11 9 9 9 8 7 5 4 4 5 6 6 7 7 5 4 4 6 8 10 12 14 14 15 15 16 18 19 20 21 22 22 21 21 22 24 25 26 26 27 27 27 27 28 29
20 15 13 14 16 14 12 11 10 10 10 10 10 9 9 8 6 5 4 4 4 3 3 4 5 8 10 12 14 14 14 14 15 17 18 18 19 20 19 18 18 18 19 20 21 21 22 23 23 24 25 25 26 27
16 14 13 13 12 11 10 9 9 10 10 11 11 10 6 3 3 4 4 4 4 4 5 7 9 11 12 12 12 13 14 16 16 16 17 18 17 16 16 17 16 17 18 18 20 21 22 23 24 25 25 26 26 26
13 13 11 10 10 8 9 9 9 10 11 10 7 5 4 5 5 6 5 4 4 7 8 9 11 11 11 12 14 14 14 15 15 16 16 15 13 14 15 15 15 16 17 19 20 21 22 23 24 25 26 26 26 26

GFSWCAN_700_spd_054.txt.gz
Wind_Speed
12 9 10 12 11 15 22 32 39 46 49 51 55 53 53 58 62 52 52 49 58 48 29 31 28 31 33 35 40 33 28 34 34 24 20 14 11 17 14 20 27 17 16 21 19 14 17 20 23 26 28 22 21 20
6 5 11 14 14 19 25 30 39 43 48 51 48 49 54 60 57 49 53 54 52 35 28 33 30 26 38 35 37 32 43 32 30 21 17 15 14 13 19 15 28 23 27 19 22 21 27 22 18 20 22 22 24 23
9 13 15 13 16 19 24 28 36 43 44 42 47 51 51 53 47 45 43 48 53 50 35 30 25 37 30 40 35 35 38 36 41 39 23 22 17 23 23 26 21 30 32 34 25 30 28 29 30 29 28 28 27 25
16 14 15 18 17 18 22 33 39 43 45 43 45 46 47 39 43 48 50 28 40 44 38 27 38 35 34 34 36 36 29 38 34 25 32 31 28 27 27 26 30 30 28 37 43 37 27 27 29 28 26 24 23 25
22 30 26 28 31 35 38 35 43 42 41 42 45 43 39 40 41 41 50 43 31 33 16 33 31 24 39 39 42 41 35 30 32 29 34 34 26 21 26 30 36 35 34 31 42 36 30 26 28 24 26 24 24 23
22 19 22 33 36 37 34 38 38 39 42 41 39 39 38 38 35 30 32 34 43 38 35 15 11 28 24 40 40 42 42 27 32 29 26 27 32 32 20 34 34 34 32 27 31 30 30 26 24 25 23 25 24 24
25 26 27 28 27 30 34 37 38 37 34 33 34 37 34 30 28 30 30 29 31 31 32 17 9 24 15 23 30 36 37 37 34 31 27 25 27 32 36 37 27 23 32 25 22 25 32 30 26 24 26 25 24 25
21 25 27 29 31 32 34 35 35 37 38 35 33 32 33 32 26 26 20 16 28 32 31 9 7 10 14 18 29 29 33 33 34 36 33 33 29 30 30 35 38 32 18 23 26 32 35 29 27 25 26 26 25 26
25 23 23 26 29 31 34 35 37 34 31 30 26 27 29 27 20 16 15 18 25 26 11 10 13 16 19 21 23 27 28 31 28 37 37 31 34 27 26 30 29 21 25 31 31 31 30 30 27 25 24 27 24 27
26 27 26 27 29 32 34 34 36 35 33 36 36 36 36 29 22 17 17 18 15 14 11 14 15 11 18 19 24 20 22 21 18 31 22 41 43 33 29 20 18 18 21 22 28 32 34 36 34 30 28 30 30 32
25 24 26 27 33 36 36 35 34 32 33 35 32 28 33 31 22 9 8 9 7 7 10 22 21 10 26 23 23 16 8 5 7 11 23 16 22 29 40 36 32 27 24 23 22 25 28 31 32 31 31 31 28 30
22 24 22 28 36 34 33 30 28 25 25 24 25 27 26 20 7 4 5 7 8 7 6 9 18 20 3 18 10 11 8 7 4 7 13 7 14 22 23 26 33 37 41 44 44 44 43 40 38 33 32 32 34 36
20 25 27 32 38 34 32 31 29 18 25 22 25 22 12 8 10 6 11 9 10 8 12 12 13 10 9 11 6 7 6 6 6 9 5 6 7 17 22 23 25 27 31 33 34 36 40 41 35 34 31 28 29 30
20 24 26 30 34 29 23 17 14 14 26 16 11 9 6 7 10 14 19 22 23 15 15 17 6 5 7 13 6 5 6 7 4 3 2 8 5 2 10 16 16 16 16 16 13 12 12 11 11 11 13 18 23 28
20 23 22 19 17 14 16 18 23 16 10 10 4 4 2 7 15 21 20 23 24 19 14 10 15 11 15 8 7 6 5 4 4 3 6 5 4 3 3 2 1 2 6 9 10 10 11 12 14 15 15 13 12 13
15 17 18 16 14 13 18 24 21 2 5 1 1 6 7 12 13 16 18 20 23 26 25 24 9 7 5 7 5 5 5 5 2 3 3 3 2 1 2 2 2 3 5 5 6 5 5 5 5 5 7 9 11 9
14 17 20 20 18 20 20 15 8 1 4 5 10 14 15 16 15 20 18 19 20 22 17 8 5 5 7 6 6 6 8 7 5 3 3 1 0 2 4 5 5 5 3 3 1 1 3 4 3 3 2 2 3 5
17 18 19 21 18 12 4 1 11 10 15 17 19 20 20 20 18 15 11 12 10 9 8 8 8 7 7 7 11 12 8 7 6 6 4 2 2 2 3 4 4 5 5 4 5 6 7 7 5 3 1 3 6 8
13 11 11 11 11 12 9 15 19 17 24 24 23 23 23 22 21 19 14 9 6 5 6 10 10 20 20 17 15 12 10 8 8 8 6 6 7 6 7 9 9 7 6 6 6 6 4 3 3 4 5 5 5 7
17 15 11 9 15 19 17 14 17 15 24 25 22 23 24 24 21 17 14 12 8 6 11 24 27 23 19 16 13 11 11 10 10 7 7 10 12 11 9 7 5 5 4 4 3 2 2 2 2 3 5 8 11 14
17 17 15 14 16 21 14 16 21 21 25 27 26 24 25 19 17 17 16 15 9 30 35 30 24 21 19 17 14 12 11 11 8 5 6 6 6 3 3 3 4 2 1 1 2 2 3 5 7 9 12 15 17 20
21 21 18 16 20 21 17 16 18 21 20 18 17 19 21 25 26 26 24 27 34 32 29 24 22 19 16 14 13 11 11 8 6 4 4 4 2 1 1 2 2 4 5 6 7 8 10 12 15 17 19 22 24 26
24 23 20 21 16 14 21 16 14 15 10 13 14 18 19 19 17 13 20 27 27 25 22 18 16 13 10 9 9 8 7 6 5 4 3 2 2 4 5 5 7 8 10 12 13 15 16 18 19 21 23 25 27 30
7 7 12 7 8 12 14 16 16 17 14 15 16 17 17 17 15 17 20 19 18 16 14 12 10 8 6 6 4 2 0 1 1 2 3 5 6 7 8 9 10 12 13 15 16 18 20 21 23 25 26 28 30 31
3 8 11 11 11 14 15 16 17 17 17 15 15 12 10 8 8 9 10 11 11 9 8 7 6 5 4 2 1 1 2 4 5 7 8 10 11 12 13 13 14 15 16 18 19 20 22 23 25 26 27 29 30 32
5 5 8 11 16 13 15 17 15 15 13 12 9 8 7 5 3 4 6 6 6 6 5 3 2 1 1 2 5 6 7 8 8 8 9 10 11 12 13 14 16 17 18 19 20 21 23 25 26 27 28 28 29 30
10 11 15 16 20 20 21 19 15 13 11 7 6 5 3 2 1 1 4 5 5 4 3 3 3 5 6 7 8 8 8 9 9 9 10 12 14 15 16 16 17 17 18 20 22 23 23 23 24 25 26 26 26 26
23 24 22 21 20 17 17 14 12 8 7 5 4 3 2 2 4 4 5 6 6 5 5 6 7 7 7 7 7 6 6 8 9 12 14 15 14 14 15 16 18 19 20 20 20 20 21 22 22 22 22 23 23 24
27 24 20 18 16 16 14 13 11 10 8 6 4 3 2 2 2 2 4 5 6 6 7 7 7 7 6 5 5 7 9 11 13 13 13 14 15 16 17 19 19 19 18 18 18 19 19 20 20 21 21 21 21 22
24 21 19 17 15 16 14 12 11 9 7 6 5 4 3 2 2 3 4 5 5 5 5 5 4 3 4 6 8 10 11 11 11 12 14 15 15 17 17 16 15 16 16 17 17 18 18 19 20 21 22 22 23 24
22 18 15 15 17 16 13 11 8 7 7 7 7 6 5 4 2 1 2 3 3 3 3 3 4 5 7 9 10 10 10 11 13 13 14 15 15 14 13 13 14 13 14 15 16 16 17 18 19 20 21 22 23 23
19 16 14 15 15 12 9 8 7 7 8 8 7 6 5 2 2 2 2 2 3 3 3 5 6 8 9 9 9 11 11 11 12 13 13 13 12 11 11 12 12 13 13 14 15 16 17 18 19 20 21 22 23 23
18 16 13 11 11 10 8 7 8 8 7 5 6 6 4 4 4 4 4 3 3 5 6 7 8 8 9 10 11 11 10 11 12 12 12 11 11 10 11 11 12 13 14 15 17 18 19 20 21 21 22 22 22 23

GFSWCAN_700_spd_057.txt.gz
Wind_Speed
22 17 14 16 18 21 15 19 24 36 38 42 48 52 51 53 60 56 60 53 58 40 26 24 22 24 34 45 42 33 43 33 31 25 24 21 18 25 20 19 31 24 15 19 23 23 20 18 20 23 25 15 16 16
10 8 7 9 11 10 15 17 26 28 42 45 50 48 51 51 55 57 57 49 52 36 29 27 29 33 37 36 41 38 43 37 34 26 23 22 20 17 19 20 22 29 23 18 21 17 23 19 25 21 21 19 19 20
9 8 7 5 8 16 19 24 28 33 44 46 47 48 49 51 47 56 45 50 40 44 39 28 28 28 35 44 37 44 45 29 32 28 20 19 19 15 17 25 18 23 17 32 28 29 21 16 19 20 25 21 21 25
11 5 5 7 15 20 26 28 35 38 41 43 43 45 41 44 51 49 51 39 35 34 23 23 35 28 34 44 45 43 34 31 23 27 24 24 22 18 17 17 22 25 18 30 28 25 22 26 31 30 22 24 22 23
15 17 18 17 20 24 27 31 34 36 39 40 44 44 41 45 45 49 45 36 38 36 26 19 27 28 28 38 49 44 38 39 30 27 32 34 23 22 19 22 29 25 25 29 27 22 25 30 24 32 28 24 24 24
26 30 29 26 29 32 33 36 35 39 38 39 43 39 41 44 47 42 33 31 29 27 18 8 27 31 26 29 44 48 39 35 30 32 26 21 20 20 17 28 24 26 27 29 28 26 28 27 19 23 29 30 27 23
20 22 29 33 35 37 39 39 36 40 42 40 38 39 38 36 35 35 26 29 31 25 24 18 13 19 25 28 39 47 43 30 28 29 30 25 26 28 32 35 24 17 19 23 24 27 30 26 28 26 28 29 31 28
22 24 28 32 34 35 35 33 36 37 37 38 37 32 30 28 25 25 19 18 26 25 22 13 10 10 17 30 45 46 41 37 30 25 20 22 21 28 28 26 34 34 29 25 23 29 30 30 27 24 25 30 31 32
22 25 28 28 29 31 31 30 31 32 34 33 31 31 29 28 26 19 16 15 17 20 15 19 11 8 13 29 35 36 34 38 26 32 30 17 24 21 15 17 20 16 22 24 25 28 25 31 32 30 29 30 29 30
22 24 26 26 26 26 27 29 30 31 30 30 29 27 27 25 18 10 11 12 15 20 18 21 16 10 8 30 27 34 28 24 27 25 20 30 26 22 29 22 23 27 27 28 22 23 28 36 35 36 33 33 33 36
20 21 25 29 31 31 28 28 27 27 25 26 26 21 21 18 18 8 7 6 8 9 18 16 18 20 5 16 36 19 19 16 11 14 21 14 18 33 36 34 33 30 23 24 26 26 29 32 32 34 34 36 39 36
18 25 27 29 29 30 28 32 32 22 20 20 23 32 29 15 6 5 7 4 5 2 2 4 14 16 5 10 11 13 10 11 7 17 17 12 15 20 34 39 42 43 41 38 36 35 32 33 32 34 36 38 38 40
22 30 28 28 27 25 24 25 20 19 19 27 28 11 8 3 4 4 3 3 1 3 5 2 7 13 6 1 2 6 5 6 8 9 5 2 6 8 16 24 29 33 35 35 41 45 43 42 46 48 46 44 45 41
28 28 28 25 25 27 22 18 20 16 17 16 11 6 3 3 4 6 9 9 8 3 2 4 2 7 6 5 2 3 6 6 4 4 3 5 3 3 3 8 16 17 20 23 25 25 28 29 29 27 27 31 28 23
25 26 25 21 17 13 9 13 14 13 8 2 5 5 6 6 9 8 10 11 10 8 3 5 15 10 10 7 3 4 3 4 5 3 3 3 3 3 3 3 2 4 6 7 9 9 10 11 11 11 11 9 7 6
19 17 12 9 8 8 13 12 7 6 1 1 2 4 5 4 5 10 14 15 13 15 21 23 8 7 6 5 4 4 4 5 3 4 5 4 4 3 4 5 5 5 5 3 3 2 3 4 5 4 3 5 7 7
11 9 8 5 3 5 9 7 9 8 2 3 4 2 2 2 4 10 16 17 17 21 20 11 6 4 6 5 5 5 7 8 6 5 6 5 4 5 5 4 6 5 3 2 3 3 4 5 6 8 8 9 6 4
6 5 5 4 3 3 6 5 12 10 12 11 11 13 13 15 13 9 9 12 17 21 18 7 6 6 6 6 11 15 12 10 9 8 7 6 7 7 7 7 8 7 5 6 6 7 8 9 7 6 5 3 0 2
9 7 6 7 4 5 13 17 19 16 20 21 19 21 21 19 19 18 18 16 14 15 17 11 8 22 21 20 18 15 13 12 11 9 8 10 10 11 13 12 9 8 7 7 7 5 4 3 2 2 2 3 3 4
11 10 8 8 10 17 14 12 16 15 24 22 23 25 24 22 17 12 10 11 9 8 24 29 29 25 22 19 17 15 13 14 13 11 12 13 13 11 8 6 5 6 4 4 3 2 3 2 2 2 3 5 8 10
12 11 13 13 15 19 14 17 16 19 23 24 26 25 27 20 18 19 21 25 22 32 36 30 25 22 20 17 15 14 12 12 9 7 7 5 5 3 2 3 3 2 1 0 0 1 2 4 6 8 11 13 16 19
13 13 15 16 19 18 16 17 18 22 20 20 21 25 27 27 26 25 25 30 33 32 28 24 21 19 16 15 13 12 11 9 7 5 4 4 3 2 1 2 2 3 4 6 7 8 10 12 14 16 17 19 21 22
24 23 23 22 16 13 17 16 15 17 11 15 17 20 20 19 18 14 20 23 25 22 20 18 16 14 11 10 9 6 5 5 4 3 2 1 1 2 4 5 7 8 10 11 12 13 14 16 18 19 21 22 24 25
15 14 10 5 7 11 16 17 18 17 17 18 18 18 17 17 16 17 19 18 16 15 13 11 10 8 6 5 4 2 1 0 1 1 2 3 5 6 8 9 10 12 13 14 15 16 17 19 20 21 23 24 26 28
9 8 11 14 12 15 14 15 16 18 17 15 14 10 8 8 9 9 11 11 10 9 8 6 5 4 3 2 1 1 2 4 5 6 7 8 8 9 10 11 13 14 15 17 18 19 20 21 23 24 25 26 26 26
4 4 7 12 17 14 14 18 16 15 11 9 7 6 5 4 3 4 6 5 5 6 6 5 4 4 3 3 4 5 6 6 7 8 8 9 9 10 12 14 15 15 16 17 18 20 21 22 22 21 21 21 21 22
6 8 13 12 15 18 18 18 15 11 9 6 6 5 4 2 1 0 3 5 5 5 5 4 4 4 5 6 7 7 7 7 7 7 8 9 11 12 12 12 13 15 16 17 17 17 17 17 17 18 18 19 19 20
17 19 21 19 18 16 17 15 11 6 6 5 3 2 1 1 4 5 4 5 6 6 5 6 6 7 7 7 6 6 6 7 8 10 11 11 10 11 12 13 14 15 14 14 14 14 14 15 16 17 18 18 19 19
25 23 20 18 16 14 11 9 8 8 6 4 3 1 2 4 5 5 5 6 7 7 7 7 7 7 6 5 5 6 8 10 10 10 9 10 11 12 13 14 13 12 12 12 12 13 14 15 15 16 17 18 19 20
24 21 18 16 13 13 11 9 9 7 5 3 3 3 4 5 5 6 6 7 7 7 7 6 5 4 4 5 7 9 9 8 8 10 11 12 12 13 12 11 11 11 11 11 12 13 14 15 16 17 18 19 20 21
22 18 14 13 15 14 11 9 6 4 2 3 3 4 4 4 4 4 5 5 5 5 4 4 4 5 6 8 8 7 8 10 10 10 11 11 11 10 9 10 10 10 11 12 13 15 16 17 18 19 19 20 21 21
19 16 14 14 14 11 8 6 3 2 3 2 2 5 4 3 3 5 4 4 5 5 4 5 6 6 7 7 8 9 10 9 9 10 9 9 9 8 8 9 10 11 13 14 15 17 18 19 19 20 21 21 22 22
20 17 13 11 10 8 5 2 2 4 2 1 5 6 5 5 5 5 4 4 3 4 5 5 6 6 7 9 9 8 8 8 8 8 8 8 8 8 9 10 12 13 14 16 17 18 19 19 20 20 21 21 21 22

GFSWCAN_700_spd_060.txt.gz
Wind_Speed
26 22 21 20 23 29 35 38 43 44 40 40 45 43 52 53 54 58 59 44 55 53 38 30 36 32 34 35 38 38 34 39 28 30 33 20 17 24 24 26 21 23 23 24 13 9 18 11 24 31 30 27 26 14
21 17 17 21 23 26 16 17 13 30 38 37 43 41 48 50 48 58 54 58 53 46 42 37 33 34 28 26 33 37 45 40 33 24 20 22 12 24 28 23 21 26 28 23 19 23 17 15 26 18 22 18 19 13
18 16 14 12 13 5 5 4 9 23 29 36 39 43 47 47 46 50 42 51 46 46 38 29 36 29 23 31 41 41 45 41 36 36 17 18 15 16 24 26 22 20 24 22 18 23 27 16 16 18 23 22 24 21
17 11 6 6 9 9 10 10 21 26 28 34 41 43 41 45 45 40 46 45 47 31 26 27 31 26 32 37 38 35 40 34 31 34 27 22 24 20 28 24 27 27 14 23 24 26 22 19 19 23 23 25 23 23
19 15 9 10 14 19 21 25 30 33 35 38 40 41 40 42 44 38 34 37 48 36 25 24 25 29 27 25 43 39 40 36 46 35 37 39 25 21 16 18 25 24 22 22 22 22 22 26 26 27 27 32 30 32
24 22 21 19 20 25 26 28 33 35 36 37 39 41 40 43 39 39 41 34 39 41 19 19 20 20 23 24 25 38 41 47 41 42 46 23 18 19 16 28 23 25 26 26 30 28 27 30 29 26 22 23 23 26
23 25 24 23 26 28 29 30 30 33 37 39 40 39 42 43 48 37 35 39 34 37 20 10 3 7 15 18 19 38 46 36 39 38 26 30 30 26 27 24 18 15 15 18 20 22 27 32 34 29 25 25 23 26
23 26 29 28 28 31 31 31 32 32 34 33 32 38 38 35 34 25 25 29 29 25 21 8 8 9 13 19 21 18 51 37 38 23 22 26 26 25 28 25 25 25 26 23 22 22 28 32 29 28 29 27 22 24
22 23 24 23 26 30 34 33 32 32 29 28 29 29 29 28 30 25 19 15 19 23 12 11 14 9 15 16 20 20 44 40 25 31 22 16 26 22 23 22 21 24 26 25 28 31 28 32 29 26 31 31 30 29
19 21 24 25 27 29 26 25 28 30 28 28 28 28 26 21 16 11 9 10 13 20 15 17 20 20 3 17 25 20 29 35 26 34 21 27 14 28 20 24 27 32 33 30 26 24 27 26 25 31 32 31 31 31
18 20 22 26 29 31 29 28 27 28 29 27 25 23 23 18 13 9 7 6 7 6 11 20 20 20 17 11 31 24 24 25 21 20 22 17 25 27 31 33 32 30 28 27 30 31 32 26 28 31 30 30 33 32
19 22 23 24 25 27 27 26 25 24 21 20 21 23 19 10 7 5 5 5 5 4 5 10 18 14 13 9 17 33 24 16 12 21 18 3 9 19 30 35 35 37 37 39 38 36 32 31 33 34 33 31 31 32
22 21 20 20 21 27 23 20 17 16 18 20 26 15 4 5 5 5 3 3 3 1 3 4 0 5 5 7 10 14 8 7 16 17 7 1 7 9 16 28 33 35 38 41 42 42 43 43 44 45 44 42 43 43
24 22 21 22 19 16 14 15 16 27 21 15 9 6 4 4 4 6 8 10 8 6 5 3 2 1 5 2 5 7 7 10 5 5 4 4 1 2 5 9 14 19 23 25 25 26 29 32 33 32 32 33 34 30
24 22 20 19 16 12 12 16 15 17 13 4 4 3 4 6 9 12 11 8 6 3 2 0 1 3 1 2 2 5 4 8 8 6 1 2 3 3 2 2 2 4 6 7 8 10 10 10 10 10 9 6 4 2
15 14 13 11 7 10 13 11 10 7 5 3 3 3 6 8 8 11 12 13 9 7 5 3 1 2 2 3 3 7 6 7 3 3 3 2 3 3 4 4 5 6 6 5 4 4 5 7 7 7 8 10 11 11
7 4 4 5 6 13 6 7 3 3 5 4 7 3 3 4 7 9 9 10 10 8 9 5 4 2 1 4 6 7 7 4 5 4 3 3 4 5 6 7 8 7 6 6 7 7 8 10 11 10 9 11 10 9
6 4 4 5 9 14 13 9 11 10 19 12 10 10 6 6 8 8 10 13 12 11 11 3 3 3 6 6 10 15 9 8 6 6 5 5 7 8 8 8 8 8 7 8 7 9 9 10 7 6 6 6 3 2
7 7 6 8 12 12 18 21 23 20 25 26 21 17 17 16 11 10 11 12 12 9 8 6 4 12 16 19 17 13 10 10 8 8 9 11 10 11 11 11 9 8 7 7 7 6 5 4 2 2 2 2 3 4
6 6 5 5 8 13 15 20 23 18 25 24 25 26 21 17 15 16 15 13 12 12 9 23 25 22 20 17 15 13 13 13 12 12 13 13 12 10 8 6 5 5 3 3 1 2 2 3 3 4 5 6 8 10
9 9 12 13 13 19 17 15 17 19 20 19 22 26 28 21 19 16 18 18 22 31 32 27 23 20 18 16 14 13 12 12 10 8 8 6 6 4 3 3 3 2 2 2 2 3 4 5 7 9 11 13 16 18
13 13 17 18 18 16 16 19 18 20 22 22 22 27 28 27 26 25 26 30 33 29 26 22 20 18 16 14 13 12 11 9 8 7 6 6 4 4 3 2 1 1 2 4 6 8 10 12 13 15 16 17 19 21
20 20 18 19 14 12 17 19 16 17 10 13 14 17 17 17 17 14 21 26 26 23 20 18 15 14 12 11 10 9 9 8 6 5 4 3 2 1 2 4 6 7 8 9 10 12 13 15 16 17 19 20 22 23
17 13 9 5 6 10 14 14 17 16 16 15 16 16 16 15 14 15 18 17 14 13 12 11 10 7 6 4 3 2 1 1 2 3 3 4 5 6 7 8 9 10 11 12 13 14 15 16 17 19 20 21 22 23
10 7 8 12 11 14 13 14 15 16 15 13 11 9 7 6 6 7 8 8 6 5 4 2 2 1 1 1 2 3 4 5 6 7 7 8 8 9 9 10 11 12 13 14 15 16 17 18 19 19 19 19 19 19
5 5 6 9 15 13 12 15 14 14 10 8 7 6 5 4 3 2 5 3 4 4 4 3 3 3 3 4 5 7 8 9 9 9 9 10 10 11 12 13 13 13 14 16 17 18 18 17 17 17 17 17 18 18
6 8 13 14 12 15 15 15 13 10 7 5 6 4 3 2 1 0 2 2 3 4 4 5 5 5 7 8 9 10 10 9 9 9 10 11 12 12 12 13 14 15 16 16 15 14 14 13 14 14 15 16 16 17
11 16 15 15 16 16 16 14 10 5 5 5 4 3 3 4 6 7 5 4 4 5 5 6 7 8 9 9 8 8 7 8 9 10 11 11 10 11 12 13 14 13 12 12 11 11 11 12 13 14 14 15 16 17
21 21 19 19 17 15 10 7 7 8 6 4 4 4 5 6 7 8 7 6 6 6 8 8 9 9 8 7 6 7 9 10 11 10 10 11 11 12 12 11 10 9 9 9 9 10 11 12 13 15 16 17 18 18
23 21 19 16 13 12 10 9 8 6 5 5 5 5 6 7 8 9 8 8 9 9 9 9 8 7 6 7 9 10 10 9 9 10 11 11 11 11 9 8 7 8 8 9 10 11 13 15 16 17 18 19 20 20
22 18 14 12 13 13 11 8 6 4 4 4 4 6 8 9 9 8 8 8 8 9 8 7 7 7 8 10 10 9 9 10 11 10 11 10 9 8 7 7 8 9 10 11 13 14 16 17 18 19 19 20 20 21
19 15 12 13 14 11 8 6 4 3 5 4 4 9 11 11 9 10 8 8 8 8 8 7 8 8 9 8 9 10 10 10 9 10 9 8 8 7 8 8 9 11 12 14 15 16 17 18 19 19 19 19 20 20
19 17 12 12 11 9 6 3 4 4 4 4 7 10 11 11 9 9 8 8 7 7 8 8 8 8 9 10 10 10 9 9 9 9 8 8 8 8 9 10 12 13 14 15 16 17 18 18 18 18 19 20 21 22

GFSWCAN_700_spd_063.txt.gz
Wind_Speed
21 24 24 23 23 24 26 30 32 37 40 41 41 42 45 48 50 56 63 70 47 40 50 53 35 35 29 30 34 34 33 33 38 34 35 32 29 29 26 13 17 17 11 10 14 8 9 12 17 24 40 23 25 23
23 20 20 20 23 24 26 26 28 33 34 43 45 43 45 47 49 51 56 62 52 19 43 49 58 35 32 35 33 32 30 32 35 34 37 27 32 22 32 32 28 21 20 15 11 19 17 19 11 16 22 26 19 20
20 14 9 8 13 17 16 18 22 26 33 39 43 41 42 46 49 50 53 53 49 20 25 38 51 54 40 28 37 32 31 28 35 41 30 30 19 27 22 34 32 31 17 20 12 19 20 18 22 20 28 21 18 14
16 9 8 11 13 11 8 2 4 2 19 36 39 36 39 44 44 52 51 53 52 26 33 42 37 31 33 26 37 29 31 34 29 38 34 28 29 19 31 15 26 31 25 18 21 26 16 16 16 22 25 29 23 16
19 15 14 14 14 14 14 13 14 19 26 31 36 36 35 38 47 41 37 47 59 12 27 30 36 22 28 27 19 24 28 35 34 26 32 36 27 19 20 29 29 24 32 24 27 21 16 16 13 13 17 14 16 22
21 20 18 17 20 23 24 25 27 29 29 32 35 39 43 42 39 41 37 37 43 28 25 23 21 24 23 27 26 24 32 33 37 39 33 30 35 25 21 22 22 30 29 30 28 28 25 25 27 24 27 26 25 26
23 21 24 24 22 24 28 32 33 35 38 38 40 41 40 37 33 33 35 51 38 18 17 12 13 16 14 17 21 26 23 30 37 36 28 30 29 24 33 20 11 14 20 23 21 22 27 25 25 31 29 30 28 27
23 22 25 27 30 28 30 32 36 38 38 39 42 44 34 31 38 32 30 40 39 27 18 9 10 14 13 11 16 20 20 22 36 38 33 24 30 24 24 25 26 25 22 24 27 25 24 20 21 29 33 31 25 26
22 25 28 34 31 31 32 33 33 37 40 41 39 39 34 31 30 25 22 29 30 25 14 6 7 10 10 13 15 16 17 16 25 38 29 21 24 26 20 22 23 28 29 33 31 33 31 30 31 34 35 32 27 27
22 24 26 27 30 32 30 29 26 30 34 39 37 36 26 22 23 24 19 16 15 16 15 13 11 13 10 13 17 15 13 16 17 35 15 33 8 26 26 24 26 30 31 31 30 30 30 29 27 30 30 22 24 28
20 20 25 24 21 23 26 27 26 25 25 23 28 31 28 27 21 15 9 7 7 7 10 18 17 13 20 8 9 14 9 10 11 17 22 9 14 19 19 29 28 32 30 27 28 25 22 22 23 29 30 28 28 23
21 21 22 22 22 23 25 24 23 23 22 22 24 27 25 14 8 7 7 7 6 5 5 7 11 10 17 11 9 14 7 9 4 16 12 8 16 17 23 31 30 35 33 32 30 29 28 29 30 30 29 27 27 28
19 19 21 22 21 20 19 18 19 20 26 28 25 11 7 5 5 6 4 4 3 6 12 10 9 9 13 7 8 9 6 5 8 15 11 6 10 12 10 15 28 36 35 35 38 39 39 38 37 37 36 36 38 39
21 22 20 17 16 14 12 14 18 22 26 19 9 7 4 5 6 8 13 11 10 8 9 3 9 5 4 3 6 4 7 9 2 5 5 1 2 5 5 8 12 16 19 18 18 19 19 19 20 20 22 25 25 24
20 20 17 12 8 10 12 16 22 15 10 6 5 5 5 8 12 13 14 14 10 9 5 5 4 3 5 3 6 4 4 5 6 5 3 0 0 1 1 1 2 2 2 3 3 4 5 5 5 6 6 4 4 4
15 11 7 8 9 16 13 12 15 5 3 4 5 8 8 6 10 11 11 8 6 5 4 4 2 1 3 2 4 6 4 7 5 4 2 1 1 2 3 5 7 9 9 9 9 9 10 10 10 9 10 10 11 11
8 7 7 6 9 14 12 11 9 4 4 4 5 0 3 7 11 12 10 8 8 6 5 2 1 5 3 5 7 7 7 6 4 4 3 4 4 5 6 7 8 8 8 9 9 10 10 11 11 10 8 11 10 9
4 5 8 11 7 11 10 13 8 7 14 10 8 7 5 6 7 9 11 10 9 6 7 2 4 4 6 8 14 10 9 9 8 7 7 6 7 9 8 7 9 9 9 9 9 9 10 9 7 7 7 7 6 5
4 5 10 14 18 25 29 26 27 23 27 21 14 12 12 14 12 11 9 8 9 7 5 6 7 16 22 21 16 12 12 11 9 10 11 12 11 10 10 10 9 8 6 6 6 5 4 4 4 5 5 5 4 5
6 7 9 14 17 29 24 24 28 21 26 24 22 20 17 17 15 15 15 14 15 9 17 25 27 25 22 19 13 13 14 13 12 12 14 15 14 11 10 8 7 6 4 3 1 1 1 2 3 3 4 5 7 10
10 13 14 16 17 13 17 15 17 14 19 18 21 27 27 17 14 12 15 16 19 31 31 26 21 19 16 14 12 12 12 12 9 8 8 7 7 6 5 5 4 3 2 1 2 3 4 5 7 9 11 13 15 16
14 16 17 14 19 22 17 20 20 22 27 25 25 28 30 31 30 28 28 30 33 27 23 18 16 13 10 8 7 6 6 5 4 3 3 3 3 2 1 1 2 2 4 6 8 10 11 11 12 13 15 16 17 18
18 17 15 21 15 13 20 19 15 20 12 17 16 19 18 19 19 10 19 26 25 20 16 14 12 10 8 7 7 5 5 5 3 3 3 2 3 4 5 6 8 8 9 9 10 11 11 12 14 15 16 17 18 19
20 15 10 5 6 11 13 15 18 18 18 18 18 19 18 18 15 17 21 18 15 12 10 8 7 5 4 3 2 1 1 1 2 3 4 6 7 7 8 8 8 9 10 11 11 12 13 13 15 16 17 17 16 16
10 7 8 12 12 16 14 16 18 18 17 15 14 11 9 10 12 13 11 9 6 5 4 3 3 2 2 2 1 1 2 4 6 7 7 7 7 7 9 9 10 11 11 11 12 13 14 14 13 13 12 12 13 14
5 5 6 10 15 12 12 15 14 15 11 10 8 7 7 8 6 5 6 4 2 2 3 3 3 2 2 4 5 6 7 7 8 8 9 9 10 11 10 10 11 12 13 13 13 13 12 11 10 10 11 12 13 14
7 8 14 14 14 15 16 16 13 10 9 8 9 7 5 4 4 4 4 2 3 3 3 3 3 5 6 7 9 9 10 9 9 9 10 11 11 11 11 11 12 12 13 12 11 9 9 9 10 10 11 13 14 15
14 19 16 16 16 14 16 14 10 7 7 7 6 5 4 4 5 5 4 3 2 3 4 5 6 7 7 7 8 8 8 8 9 10 11 10 9 10 12 13 12 11 10 9 8 8 9 10 11 13 14 15 16 17
20 19 18 18 17 15 11 10 10 11 10 8 8 7 7 7 7 6 6 5 5 5 6 7 7 7 7 6 6 7 9 10 10 9 9 9 10 12 12 11 9 8 8 8 8 9 11 12 14 15 16 17 18 18
23 22 21 18 14 14 13 13 12 10 8 8 9 8 9 9 9 10 9 8 7 7 7 6 6 6 5 6 8 10 10 9 9 10 10 10 10 10 9 8 7 7 8 9 10 12 13 14 15 16 17 17 18 18
23 20 16 14 16 16 14 12 10 8 8 7 7 9 11 12 11 11 9 9 8 8 8 8 7 7 8 9 8 8 10 10 11 10 10 10 9 8 7 7 7 8 9 11 12 14 15 16 16 17 17 17 17 18
20 16 13 14 17 15 12 9 8 7 7 7 7 9 12 12 11 10 10 9 9 8 8 7 8 8 9 10 11 11 11 10 10 10 9 8 8 7 7 8 9 10 12 13 14 15 15 16 16 17 17 18 19 20
21 19 15 15 15 13 9 7 7 6 5 4 7 9 12 12 10 10 9 8 8 8 8 8 8 9 11 12 12 12 11 10 10 9 9 8 8 8 9 10 11 12 13 14 15 15 16 16 17 18 19 20 20 21

GFSWCAN_700_spd_066.txt.gz
Wind_Speed
23 23 25 25 25 26 26 29 28 29 33 35 35 38 38 39 42 50 56 56 54 40 27 52 52 54 48 32 31 29 23 24 33 33 33 27 20 28 26 21 13 9 7 6 3 9 8 12 11 12 19 28 30 21
23 22 20 19 20 23 27 28 29 29 30 32 37 42 43 45 48 44 53 52 50 56 25 26 45 46 45 37 30 26 25 25 33 26 36 19 27 18 32 31 27 24 13 8 5 17 10 11 21 17 11 7 29 29
19 13 10 10 12 15 18 22 27 29 32 36 39 40 42 42 43 47 50 55 52 44 50 27 39 42 35 40 32 31 28 30 28 24 30 30 27 19 28 26 28 33 33 31 25 27 14 6 11 21 28 18 22 21
16 12 12 11 11 9 7 8 13 21 29 35 38 41 45 41 41 42 52 42 46 47 44 43 29 40 38 37 32 22 25 27 32 31 28 30 28 31 26 27 22 26 27 36 41 33 22 18 17 19 16 22 16 27
16 15 16 17 14 9 8 5 1 6 17 32 36 37 45 41 39 40 38 35 37 40 32 39 32 35 48 45 42 38 35 35 34 20 23 30 29 27 26 30 24 29 24 23 35 27 29 26 28 21 8 11 17 23
19 15 17 20 17 16 18 20 14 22 27 34 33 38 35 37 41 43 33 31 35 35 16 29 28 25 24 27 30 21 11 14 18 22 28 30 27 23 29 32 23 27 27 22 13 15 15 17 13 16 18 17 20 20
19 20 18 20 22 22 26 27 29 28 30 34 37 38 41 41 40 39 37 34 33 48 15 14 20 19 23 25 23 18 16 19 21 26 31 30 30 19 26 33 20 21 19 20 20 23 18 15 20 22 25 23 26 26
20 24 22 23 25 26 27 32 34 37 38 36 33 40 37 36 33 33 27 24 27 26 10 7 13 25 23 20 15 19 26 27 28 23 27 29 25 23 26 26 26 25 21 19 19 19 26 25 21 24 29 28 24 26
23 25 26 26 27 29 31 32 37 38 43 47 42 38 33 29 30 24 28 34 30 20 8 12 20 18 19 18 19 18 19 19 18 19 25 20 21 12 20 31 32 26 35 37 27 25 25 27 26 25 25 26 28 30
25 26 29 25 24 26 32 35 35 35 29 37 42 44 38 29 33 30 33 18 13 14 11 14 12 10 15 19 19 11 9 13 7 13 13 17 19 21 23 24 27 28 30 33 34 32 30 29 28 29 30 27 24 25
19 21 25 29 29 24 25 27 31 30 25 31 40 41 42 37 34 23 14 10 7 5 7 11 10 8 9 9 13 10 6 9 7 8 17 13 21 25 24 21 21 24 25 28 30 28 27 28 30 29 26 24 22 23
17 17 19 21 21 25 27 25 24 19 19 20 34 34 28 19 11 8 9 8 6 6 10 14 14 12 9 13 9 13 9 10 5 17 13 10 12 13 13 20 23 22 24 25 28 26 24 23 26 26 26 26 27 29
18 17 16 16 16 17 19 21 25 27 29 29 21 13 7 6 6 7 6 7 9 11 9 12 11 12 11 9 7 8 5 4 9 14 6 2 9 11 14 14 15 15 20 26 30 33 33 33 35 37 34 33 33 34
16 15 14 10 8 8 11 13 19 25 22 13 8 7 4 5 7 11 14 12 12 13 12 10 13 9 6 7 7 6 8 7 4 4 4 1 0 3 5 8 10 9 13 17 19 21 21 21 21 22 21 22 23 24
10 8 8 6 7 9 13 15 19 18 8 4 5 5 6 12 14 16 14 13 12 11 5 13 13 5 8 5 4 4 5 5 4 6 4 2 3 2 3 3 4 5 5 6 7 6 6 7 7 7 7 6 5 6
7 6 5 5 11 13 20 19 12 10 8 4 7 12 14 14 13 12 12 9 7 5 7 6 5 3 3 3 2 4 3 4 7 7 5 5 5 5 4 4 4 6 8 9 9 9 10 11 10 11 12 12 12 11
5 5 6 1 12 14 17 12 6 3 4 5 8 9 9 10 11 10 10 7 5 3 5 2 2 4 3 4 5 5 8 12 11 8 7 7 8 9 9 9 10 9 9 9 10 11 11 12 11 10 9 11 9 8
4 7 7 1 6 20 15 9 6 6 12 10 7 9 9 9 10 11 10 8 7 6 6 2 3 4 6 8 15 14 12 12 11 10 9 9 10 12 12 10 11 11 10 10 10 9 8 8 5 5 6 7 6 6
6 10 11 15 11 13 18 9 11 16 17 14 12 10 10 12 11 10 9 8 10 8 7 7 6 17 21 21 16 11 10 10 9 11 12 12 12 12 12 11 10 9 7 6 5 4 3 3 3 5 5 5 4 5
9 13 15 23 26 36 29 24 27 21 23 20 16 13 14 14 14 15 14 12 10 7 8 23 27 21 17 15 11 10 11 11 9 8 9 10 10 9 7 7 5 5 4 3 2 3 4 5 6 6 7 9 10 12
15 20 17 11 12 23 20 15 16 15 21 27 28 26 24 13 11 11 10 9 8 23 29 25 19 17 16 15 13 13 12 13 11 9 8 7 7 6 4 3 3 3 3 3 4 5 7 9 11 12 13 13 14 16
18 16 13 17 25 26 20 21 25 30 32 31 33 34 35 33 28 26 24 25 33 29 26 21 19 16 14 13 12 11 9 9 7 5 5 3 3 2 1 1 2 3 5 7 9 10 10 11 12 13 14 15 16 18
19 17 18 21 16 14 19 19 19 22 13 17 18 22 22 22 19 14 27 31 29 24 21 18 16 14 11 11 10 8 7 6 4 3 2 3 3 4 6 7 8 9 9 10 11 12 13 13 14 14 15 16 16 16
17 13 9 6 7 11 17 18 20 20 19 20 21 22 22 21 19 22 25 21 18 16 13 10 9 7 5 4 3 3 3 3 3 5 6 7 8 8 9 9 9 10 11 11 11 12 14 14 15 16 15 14 13 12
10 7 8 14 13 18 18 21 22 23 21 18 17 15 13 14 17 18 16 14 13 11 8 5 4 2 1 1 3 4 5 6 6 7 8 8 9 10 10 10 10 10 11 12 12 12 13 13 11 10 9 9 9 10
4 5 7 11 18 16 17 20 19 17 14 14 11 11 12 11 9 7 9 8 8 7 5 3 1 2 3 4 6 8 8 9 9 8 7 6 6 8 9 9 10 10 10 11 12 10 8 8 7 7 8 9 10 11
6 9 15 17 17 19 19 19 16 14 14 10 11 9 7 5 5 5 6 5 3 3 1 2 4 5 7 7 8 8 8 8 8 8 8 9 8 8 8 8 10 10 10 9 8 7 6 6 7 8 10 11 13 14
16 20 19 20 19 17 19 18 15 11 11 10 8 7 4 4 5 6 5 5 4 2 2 3 5 7 8 8 8 8 8 7 9 10 10 9 9 9 10 10 9 8 7 5 5 5 6 8 9 11 12 13 14 16
24 24 22 22 21 18 14 13 13 14 13 11 11 12 11 10 8 7 6 5 5 4 4 4 5 6 6 6 6 7 8 9 8 7 8 9 9 10 9 8 6 5 5 5 6 7 9 10 12 13 14 15 16 15
26 26 25 21 18 18 17 16 15 14 12 12 11 11 11 10 9 8 7 7 6 6 6 5 5 6 6 6 7 8 8 8 9 9 9 9 9 8 7 6 5 5 6 7 9 10 12 13 14 15 15 16 16 17
26 24 20 17 19 21 18 16 14 14 12 11 11 12 11 12 11 9 8 7 5 5 5 4 3 4 4 6 8 9 10 10 9 9 9 9 7 7 6 6 6 7 8 10 11 13 13 14 14 15 16 16 17 18
22 19 15 17 21 19 17 16 15 12 11 10 9 10 11 11 10 10 8 7 5 4 5 5 4 5 6 8 9 10 10 9 9 8 8 8 7 7 7 7 8 9 10 12 13 13 14 15 15 16 17 18 19 20
21 20 17 19 20 19 16 14 13 11 9 8 7 8 9 10 9 9 7 5 4 4 4 4 5 7 9 10 10 10 9 9 9 9 9 8 8 8 8 9 10 11 12 12 13 14 15 16 17 18 19 19 20 21

GFSWCAN_700_spd_069.txt.gz
Wind_Speed
27 29 29 25 26 27 29 30 30 30 32 34 35 37 38 38 43 51 52 49 54 50 30 40 44 42 42 42 37 28 20 23 20 32 29 21 14 12 24 18 17 13 8 11 12 10 9 14 14 13 15 20 22 15
28 24 19 17 17 20 24 25 28 31 30 33 35 36 35 38 38 41 45 50 56 49 34 28 15 30 32 30 33 33 24 20 22 20 35 16 21 14 14 20 19 17 14 5 11 8 9 12 13 18 13 10 18 28
23 17 17 15 15 16 19 22 25 29 31 31 33 35 35 36 39 43 43 40 41 43 47 35 24 20 25 31 21 28 25 25 24 25 23 18 24 15 19 28 21 24 26 33 32 33 23 19 18 14 20 17 21 26
17 16 18 16 12 10 10 14 22 28 31 34 33 32 36 38 39 38 40 42 41 42 40 37 33 22 27 24 25 28 29 25 28 24 24 24 24 21 28 25 17 20 22 25 32 34 41 37 35 24 24 22 21 24
17 16 16 15 12 10 10 10 13 21 28 36 38 36 38 40 39 38 42 41 33 35 11 39 36 30 24 25 25 24 24 24 22 22 26 31 31 24 22 22 24 27 23 25 25 25 32 26 22 23 24 22 19 14
15 17 17 16 17 13 12 5 3 16 29 35 36 36 37 37 40 40 50 46 42 25 32 9 28 35 26 26 27 27 28 29 21 27 30 33 33 34 17 28 29 21 26 32 34 21 20 20 16 22 24 24 19 17
18 18 19 20 23 17 16 18 19 17 28 34 39 35 37 42 38 37 36 35 31 29 29 13 19 24 32 30 33 31 33 30 24 17 21 21 16 16 19 15 21 29 34 29 30 24 21 18 17 18 20 21 22 24
20 21 22 23 27 27 28 25 30 32 34 34 37 37 42 41 32 35 25 16 29 29 22 11 15 25 24 28 37 35 30 21 20 20 20 18 17 21 17 26 24 23 27 30 16 14 18 20 21 20 20 22 24 20
19 21 24 24 31 35 39 34 32 33 37 42 44 40 38 35 34 27 15 16 24 20 8 8 22 20 28 27 25 23 23 22 19 23 22 18 20 14 24 23 23 28 26 30 31 26 24 22 21 21 21 23 23 22
17 19 22 23 28 31 30 35 39 33 34 33 34 35 31 27 30 25 25 18 17 12 6 14 21 17 25 26 25 19 13 14 9 15 15 22 23 27 26 22 25 22 23 30 30 30 29 27 25 28 28 27 26 26
14 15 19 22 23 20 22 32 32 35 33 24 24 32 33 31 35 22 6 10 12 9 14 17 13 16 22 21 20 14 9 8 7 10 18 13 22 27 24 22 24 21 20 22 24 25 24 26 27 27 30 28 27 28
12 16 19 19 19 18 18 25 26 29 31 49 45 36 21 15 8 6 8 9 9 8 17 19 16 17 14 15 12 12 12 10 8 15 15 10 14 21 24 23 22 18 17 18 18 24 24 24 25 24 25 26 26 27
8 8 12 15 15 17 14 14 24 28 32 28 28 20 9 6 5 5 6 8 9 14 16 19 18 15 12 13 9 7 8 7 10 16 7 7 9 12 14 14 13 13 15 18 19 23 23 24 29 30 27 26 27 27
11 10 8 9 12 16 20 22 29 19 13 10 6 6 4 5 6 9 15 13 13 9 8 12 15 11 9 11 7 5 8 4 3 5 5 3 2 4 7 9 10 11 13 12 15 16 14 16 17 16 16 16 16 16
7 7 4 5 6 9 13 22 21 14 8 4 5 5 8 17 21 19 17 15 13 11 7 10 13 10 13 7 8 6 5 3 2 4 6 4 1 0 2 2 2 3 4 6 5 5 4 4 3 4 2 1 0 0
7 5 3 5 5 13 13 13 19 12 7 6 7 16 18 20 19 18 16 15 13 7 10 14 9 6 6 5 5 3 4 3 7 10 7 5 4 4 5 5 4 6 7 8 9 11 11 12 12 12 12 12 12 11
6 9 4 11 9 15 19 12 11 9 2 7 11 14 16 15 14 13 12 10 9 6 4 4 5 3 3 4 4 4 6 15 11 9 7 6 6 8 10 11 12 12 11 12 12 11 10 11 11 10 7 10 9 8
8 6 3 10 17 21 15 10 6 6 10 12 9 11 10 11 9 8 6 4 4 5 5 0 4 3 5 6 10 14 11 9 8 6 4 4 6 9 10 10 12 12 11 11 10 9 9 9 6 6 7 8 8 6
4 2 4 10 21 20 16 9 5 8 11 10 7 8 9 9 8 6 5 3 3 2 2 6 8 19 23 19 16 13 11 9 7 6 6 8 10 10 9 9 8 8 7 6 7 6 6 6 5 5 5 4 3 5
5 6 9 7 13 19 9 13 17 14 15 14 12 10 9 9 8 7 6 4 2 2 11 27 28 24 22 20 18 15 14 13 12 10 8 8 9 8 6 5 4 3 3 4 3 3 3 3 4 5 7 8 10 11
18 18 21 16 22 25 20 17 23 25 27 27 19 17 18 15 11 10 10 13 21 31 33 29 24 22 20 18 17 15 13 12 11 10 7 6 5 5 3 1 1 1 1 2 3 5 7 9 10 11 11 12 13 14
18 18 16 20 31 31 21 24 26 29 35 35 36 33 31 28 25 25 26 23 31 28 24 21 18 16 14 13 11 9 7 7 6 5 4 3 2 2 2 3 4 5 6 8 10 10 11 11 12 13 14 15 16 16
22 24 26 27 20 17 25 23 24 25 15 22 22 24 24 25 24 19 22 24 27 23 20 17 15 14 11 9 8 6 4 4 4 2 1 2 3 4 6 8 9 9 9 10 10 10 11 12 13 14 15 16 16 15
17 12 9 7 8 13 20 20 23 22 22 23 25 26 25 24 21 22 25 23 20 18 14 11 9 7 4 3 2 2 2 3 3 3 5 6 6 7 7 8 8 9 10 11 11 11 12 12 12 12 12 11 10 10
8 7 10 17 15 19 17 21 23 26 25 22 21 18 15 16 17 18 15 14 13 11 8 5 3 3 2 2 4 5 6 6 7 8 9 9 9 9 9 9 10 10 10 11 12 12 12 12 10 8 7 8 9 10
4 5 7 12 19 19 20 22 22 23 20 14 13 16 15 9 7 7 10 8 7 5 3 3 3 4 5 6 7 8 9 9 9 9 9 10 10 10 10 10 10 10 10 10 11 11 8 7 7 7 7 8 10 12
5 8 17 20 21 24 23 21 19 18 16 13 16 11 6 4 4 6 7 5 3 2 2 2 3 5 6 8 9 10 10 10 9 9 9 9 10 9 9 9 9 10 10 8 6 6 6 6 7 9 11 12 13 14
13 23 21 22 21 21 23 20 18 13 12 10 8 6 4 4 8 7 5 3 2 2 2 3 4 5 6 7 8 8 8 8 10 11 11 9 9 9 9 10 9 8 6 5 5 5 6 8 10 11 12 13 15 16
26 26 25 25 24 21 16 14 15 16 14 12 11 11 12 11 9 7 6 4 2 1 1 3 4 4 5 5 5 7 8 10 10 10 10 11 11 9 9 8 6 5 5 5 6 7 9 10 12 12 13 14 14 15
30 29 28 24 21 21 19 17 17 15 14 14 11 11 11 10 9 7 6 5 4 2 1 2 3 3 4 4 5 5 6 7 8 9 8 8 8 8 7 6 5 5 6 6 8 9 11 12 13 13 14 16 17 17
30 27 24 22 22 23 21 19 17 16 13 12 11 11 10 9 8 7 6 5 3 2 2 2 2 3 4 5 6 7 8 8 7 7 7 7 7 6 6 6 6 6 7 9 10 11 11 12 13 14 15 16 18 19
25 23 21 20 24 23 21 19 17 14 13 11 10 9 9 8 7 6 5 4 3 2 2 3 4 5 7 8 9 8 8 8 8 7 7 7 7 7 7 7 7 8 9 10 11 12 12 13 14 15 17 18 19 21
23 23 21 21 23 22 20 18 16 13 10 9 8 7 7 6 5 5 5 4 3 3 3 4 6 7 9 9 10 9 9 8 8 8 8 8 8 8 8 9 9 10 10 11 11 12 13 14 16 17 18 20 21 23

GFSWCAN_700_spd_072.txt.gz
Wind_Speed
24 27 33 28 26 25 26 30 28 29 30 34 36 38 38 39 42 44 49 52 53 47 34 34 39 39 40 33 32 27 23 22 22 26 21 17 12 9 14 19 12 9 11 12 16 9 12 1 6 5 14 19 17 22
29 27 26 22 22 22 23 22 25 26 29 29 28 35 37 34 37 42 44 49 52 50 29 38 43 30 31 30 29 31 28 18 18 17 19 10 16 11 14 10 19 22 24 15 17 15 11 9 12 18 22 25 16 20
25 25 20 21 21 22 22 20 23 26 28 31 31 28 31 39 37 44 45 45 46 43 40 29 21 24 27 26 25 26 25 26 16 15 21 15 15 7 15 19 19 19 14 23 22 29 22 19 21 33 34 30 26 20
23 19 19 21 19 17 16 16 19 26 25 29 31 28 30 35 39 41 43 44 43 38 32 29 33 14 19 19 26 24 19 21 23 19 22 23 18 15 17 19 21 14 17 24 31 29 30 25 26 31 27 29 22 22
19 18 18 20 18 12 12 12 16 20 29 28 32 33 28 31 37 35 31 33 36 30 4 19 33 30 17 19 26 28 26 24 23 25 23 22 24 25 27 24 21 20 24 27 28 26 28 27 23 24 26 21 19 16
16 18 20 19 9 14 10 7 12 18 26 30 32 34 35 32 33 32 28 26 26 22 23 12 3 31 36 24 26 31 32 29 29 29 28 27 25 19 17 29 32 32 27 28 30 31 33 34 31 28 21 22 20 26
16 21 22 21 20 17 15 8 9 22 29 35 31 31 34 35 35 38 30 24 26 21 15 14 14 16 31 33 28 36 36 36 30 22 26 23 24 22 26 26 25 25 31 33 33 37 34 30 26 22 21 15 18 21
16 23 25 31 25 27 26 24 24 31 34 34 35 32 36 36 34 28 27 21 14 27 22 7 7 18 33 38 20 21 15 16 20 21 25 20 12 13 11 17 22 21 21 22 25 30 32 29 23 22 20 18 20 22
14 18 27 35 34 31 32 30 31 36 34 34 38 36 32 40 32 23 18 13 15 25 21 17 21 11 23 27 28 25 23 19 21 23 25 19 19 14 23 27 27 23 19 19 26 28 30 29 20 18 20 18 19 23
13 12 17 23 34 31 29 32 35 36 34 36 37 39 35 27 25 20 19 20 18 22 16 16 14 17 29 32 31 26 27 23 7 17 17 23 26 28 32 31 22 21 23 21 20 21 24 22 24 23 25 26 25 26
11 13 12 18 17 24 30 25 26 37 36 38 33 37 32 32 28 19 13 9 9 6 5 8 12 25 22 26 24 13 9 8 6 9 14 9 15 29 31 29 25 26 27 25 21 18 19 20 21 22 23 26 26 26
10 11 13 14 19 17 23 24 27 29 27 37 39 43 36 24 8 5 7 7 7 7 12 15 15 18 19 18 12 11 6 5 5 9 10 9 17 19 22 24 27 26 25 23 22 18 17 18 20 24 28 27 23 22
7 8 7 7 9 14 19 28 28 29 33 29 33 25 10 4 5 4 5 8 10 19 21 19 19 16 15 13 7 5 6 8 6 7 9 11 11 14 16 19 21 24 24 23 24 23 20 22 23 25 27 27 25 25
7 7 8 9 10 15 26 32 29 22 18 11 7 8 5 4 5 9 15 16 17 17 21 21 20 15 13 14 7 6 9 8 6 5 5 5 7 9 10 13 14 14 15 14 14 16 17 17 16 16 15 13 12 13
6 5 5 9 12 14 19 19 15 14 7 4 5 4 7 15 21 20 17 15 14 14 11 15 18 9 12 6 7 7 5 4 3 5 7 6 4 4 5 6 8 8 8 8 7 7 7 6 4 3 2 2 2 2
4 2 5 9 13 17 19 16 9 5 6 4 5 17 21 20 20 18 16 13 12 9 12 13 10 5 7 5 5 4 3 3 5 7 4 2 2 2 1 1 2 3 4 6 8 8 9 9 9 9 11 11 10 9
8 5 7 11 14 15 18 19 14 3 5 9 15 19 18 17 15 13 13 10 9 7 9 5 6 5 4 3 4 3 3 11 10 6 4 4 4 5 8 9 11 13 13 13 13 12 12 12 12 10 8 11 10 10
8 2 12 14 17 19 16 14 12 6 18 20 18 17 15 13 11 9 7 5 2 1 3 4 3 3 3 3 9 15 13 11 9 7 7 7 9 11 13 13 13 12 11 11 10 10 10 9 7 5 7 8 7 5
4 4 16 18 20 18 13 9 10 12 16 15 15 12 10 8 6 5 3 3 4 2 2 3 7 17 21 20 18 16 14 13 10 9 9 10 11 12 11 10 8 7 6 5 5 5 4 4 3 3 4 5 6 8
4 7 17 22 20 17 8 7 9 12 13 13 12 11 9 8 6 5 5 5 5 10 28 29 29 25 23 21 19 17 16 15 13 11 10 10 10 10 8 6 5 4 3 2 1 1 1 3 4 6 8 10 10 11
12 13 16 22 21 15 7 11 12 18 17 16 16 13 16 15 11 11 17 26 28 29 33 29 25 23 20 17 16 15 13 12 11 10 8 6 5 5 5 4 3 3 2 2 4 6 8 9 10 11 11 12 12 13
14 15 13 16 21 19 13 15 19 22 22 23 22 22 23 24 27 28 27 24 29 28 25 22 18 16 13 11 8 7 6 5 5 4 3 1 0 1 2 3 4 6 7 9 10 10 11 11 12 12 13 14 14 15
26 24 28 29 23 17 25 30 28 29 24 30 30 28 27 27 24 20 18 23 24 21 18 15 12 10 8 5 3 2 2 3 3 2 3 5 6 7 8 9 10 10 10 10 11 11 12 12 13 14 14 14 14 13
15 10 10 7 11 19 25 26 29 28 26 25 25 24 22 22 19 19 20 18 16 14 12 9 7 5 4 2 1 1 2 3 4 5 6 7 8 9 9 10 10 10 10 10 10 11 12 12 13 13 12 10 9 8
7 7 11 22 16 21 20 22 26 27 29 27 24 21 17 15 14 15 13 12 10 9 8 5 3 2 1 1 2 3 5 6 7 8 9 9 8 8 8 9 9 9 10 10 10 10 11 10 9 8 7 7 8 9
4 5 8 12 20 19 20 21 26 25 24 18 16 19 17 10 6 6 9 8 7 6 5 3 2 3 4 5 6 7 8 8 8 8 7 7 8 8 9 9 9 9 10 10 10 9 8 6 6 6 8 9 11 12
5 9 19 22 23 26 24 23 23 17 12 11 17 12 5 4 3 6 7 6 4 4 4 4 5 6 7 7 7 8 8 8 8 8 8 9 8 8 8 9 9 10 10 9 8 7 6 6 7 8 9 11 12 13
11 23 23 23 24 22 24 21 17 11 11 14 10 6 4 4 7 8 6 4 3 2 3 4 6 7 8 8 8 8 8 8 9 9 8 8 9 9 9 9 9 8 7 6 6 6 7 8 10 11 12 13 14 14
24 26 26 25 24 24 20 18 10 13 13 11 10 9 11 11 9 7 5 3 2 2 3 4 5 6 6 7 7 8 9 9 10 10 11 11 10 10 9 8 7 6 5 6 6 7 9 10 12 12 12 13 14 14
29 30 29 27 25 21 17 17 16 15 15 13 10 10 10 10 8 6 4 2 2 2 3 4 5 5 5 6 8 9 10 12 12 12 12 12 11 10 9 8 6 6 6 7 8 10 11 12 12 12 13 14 15 17
32 30 28 26 24 23 21 20 18 16 14 14 13 11 9 9 8 5 3 2 2 3 4 5 5 6 6 7 9 10 11 11 12 11 11 11 10 9 8 7 7 8 9 10 10 12 12 12 13 14 14 15 17 18
29 27 26 24 25 24 23 21 18 16 14 12 11 10 9 7 6 4 3 2 3 4 5 6 6 8 9 10 11 12 12 12 11 12 12 11 11 10 9 9 9 10 11 12 12 13 12 12 13 14 15 17 18 20
23 24 23 24 26 24 22 21 19 15 12 12 9 8 6 5 4 4 4 5 5 6 7 8 9 9 10 11 12 12 12 12 13 13 12 12 12 11 11 10 10 11 11 12 12 12 13 14 15 16 18 19 20 22

GFSWCAN_700_spd_075.txt.gz
Wind_Speed
25 25 28 29 27 27 24 24 24 27 29 30 31 33 34 38 45 46 50 48 51 49 40 33 41 41 39 37 27 23 21 23 22 21 17 9 11 11 14 11 4 13 14 17 17 9 12 6 7 1 10 12 15 11
23 28 29 26 24 25 26 26 26 26 25 26 28 31 33 34 38 41 46 49 47 46 32 38 32 30 28 29 27 30 24 17 15 16 18 11 15 10 16 8 15 14 13 10 14 12 5 7 8 18 22 23 26 22
26 26 25 23 24 25 25 23 23 23 24 23 27 28 31 35 35 39 46 45 43 42 44 31 34 26 20 19 16 18 20 26 23 11 14 16 9 10 14 17 12 13 15 21 23 26 26 23 26 29 29 31 30 29
23 23 23 23 25 24 22 21 19 17 23 26 25 29 23 35 37 40 43 43 43 41 37 30 29 24 22 22 20 17 24 24 22 18 21 17 15 13 15 14 13 12 13 20 27 26 27 25 25 29 24 25 30 32
21 22 21 20 22 17 17 16 17 16 21 26 25 30 27 33 37 40 37 30 35 38 24 36 27 20 24 26 25 27 32 22 27 24 21 20 17 14 14 17 18 20 21 23 27 27 28 28 27 29 29 27 27 22
17 23 21 21 21 19 16 13 12 17 22 24 27 31 30 35 35 35 33 23 26 33 17 17 19 32 22 23 26 28 21 22 22 27 25 27 17 16 10 16 19 17 21 25 31 28 30 34 33 32 27 27 25 22
21 23 25 26 26 19 13 8 15 19 23 25 30 32 36 35 33 31 23 23 24 22 20 15 11 7 24 32 22 25 27 31 31 30 28 25 19 18 24 28 29 28 24 19 22 27 32 32 30 31 30 26 26 24
15 24 33 36 29 26 19 18 23 27 27 28 36 36 33 34 31 21 15 13 19 18 16 8 8 13 19 35 36 28 31 37 36 32 16 27 25 19 17 27 25 21 18 19 19 21 26 31 30 24 26 21 18 20
11 19 23 29 30 29 29 29 31 31 31 35 32 38 31 29 34 22 19 14 17 19 9 7 9 2 20 27 30 21 24 30 18 22 22 11 18 16 24 25 22 22 23 21 20 25 22 25 27 27 30 32 20 21
11 17 18 22 28 26 28 28 29 36 37 40 41 39 33 27 25 20 15 11 10 15 12 9 10 8 14 28 31 12 16 12 13 19 15 20 23 28 31 32 31 27 25 24 21 24 18 19 25 26 25 25 28 21
11 17 15 15 19 21 22 21 24 33 29 41 26 35 32 33 30 12 10 7 6 4 8 13 13 10 29 27 25 16 7 8 8 9 13 6 15 27 30 32 33 30 30 29 28 28 27 25 20 22 24 25 26 23
6 11 14 13 18 17 19 23 27 27 27 34 38 38 30 16 7 6 8 7 5 4 6 10 15 19 27 23 11 8 7 8 3 8 8 8 18 19 21 24 24 26 26 27 27 26 25 26 24 21 22 21 22 22
6 6 10 10 11 15 18 14 21 24 31 38 37 19 9 4 4 5 5 8 7 15 16 18 19 17 17 9 6 6 7 7 7 9 8 12 16 17 18 19 20 21 22 22 22 22 24 24 23 20 17 17 17 14
6 7 8 17 21 25 27 27 30 29 28 18 11 9 3 4 5 9 12 14 16 18 17 18 17 9 12 9 5 5 6 6 6 7 7 9 10 11 12 13 13 14 16 15 15 14 14 14 13 12 11 9 8 6
6 7 9 14 22 26 22 17 14 9 6 3 6 4 5 14 19 16 13 11 13 17 17 14 12 5 9 4 4 4 5 5 5 5 5 5 6 7 7 7 7 6 6 7 6 4 3 2 1 2 2 3 4 4
5 4 8 13 23 23 21 17 11 5 4 3 4 15 21 20 19 15 12 13 13 12 13 12 10 4 5 5 5 5 3 3 3 5 3 1 2 3 3 3 2 4 6 6 7 10 10 11 11 10 11 11 11 11
1 2 10 13 16 20 17 10 4 5 4 6 14 20 21 19 17 14 13 12 10 11 12 4 7 5 4 4 4 3 4 8 8 6 4 5 5 7 10 12 14 16 15 15 13 13 12 12 12 12 9 11 11 10
0 8 15 15 15 14 16 13 6 3 14 22 19 19 17 15 14 13 10 9 6 3 3 4 2 4 2 2 4 11 11 11 10 9 9 10 12 14 14 12 12 12 10 9 9 8 8 9 7 5 5 6 5 3
2 13 19 20 19 15 15 13 11 16 20 18 18 17 14 12 10 9 8 7 4 3 3 5 5 10 16 17 16 15 14 12 10 10 11 12 14 13 11 10 8 7 6 5 5 4 4 3 1 1 3 4 6 9
5 22 21 24 22 17 11 13 19 15 17 16 15 14 11 10 9 9 9 7 8 13 20 22 24 20 18 17 15 13 12 12 11 9 8 8 8 7 6 4 4 3 2 1 1 0 2 4 6 7 8 9 9 10
14 24 23 24 21 13 12 14 13 17 16 15 16 14 13 12 9 11 15 21 22 27 30 26 22 19 17 14 12 11 9 7 7 5 5 3 2 2 2 2 2 2 3 4 5 7 9 9 10 10 10 10 11 12
18 20 22 19 15 10 12 14 16 17 17 18 17 20 22 23 25 26 24 25 26 24 23 21 18 16 13 11 9 7 6 4 3 2 2 1 1 2 3 4 5 6 8 9 9 9 9 9 9 10 10 11 11 11
22 17 17 16 11 9 20 25 24 20 13 23 27 26 26 25 23 22 14 18 21 20 18 15 13 11 10 7 5 5 4 3 3 3 3 4 5 6 7 8 8 9 8 8 8 9 9 9 10 10 11 10 10 8
15 16 11 5 6 13 24 19 24 25 28 26 24 24 20 18 15 15 17 16 15 14 13 10 7 6 4 3 3 4 4 5 6 6 7 8 9 10 10 10 10 9 9 9 9 9 10 10 10 10 9 7 6 6
8 8 9 14 17 20 21 26 30 31 28 26 22 17 18 14 12 13 13 11 9 9 7 5 3 3 3 4 4 5 6 7 7 8 9 9 9 9 9 9 9 10 9 9 9 10 10 9 8 6 5 5 6 8
5 7 8 13 25 22 24 26 26 29 27 18 14 16 18 12 5 6 10 9 7 5 3 2 2 3 4 5 6 7 7 8 8 7 8 8 9 10 10 10 9 9 9 9 9 8 7 5 4 4 5 7 9 10
6 9 19 24 25 27 25 27 28 23 14 10 17 16 6 4 4 9 9 7 5 3 2 3 4 5 6 7 8 8 8 8 8 8 9 9 9 9 9 9 9 10 9 8 6 5 4 4 5 6 8 9 10 11
12 23 24 24 25 24 27 26 20 12 9 14 14 7 5 5 9 11 9 6 4 3 3 5 6 7 8 8 9 8 8 8 9 8 8 9 9 9 9 9 9 8 7 6 5 4 5 6 8 9 10 11 11 12
23 25 25 25 23 24 22 18 12 12 12 13 8 7 10 11 11 10 8 6 4 4 4 6 7 9 9 10 10 10 10 11 11 11 11 10 9 9 9 8 8 7 6 5 6 6 8 9 10 11 11 12 12 13
28 29 28 25 25 22 18 12 14 15 13 12 10 10 11 11 10 9 7 5 4 4 5 7 9 10 10 11 12 13 14 14 14 13 13 12 11 11 10 8 7 7 7 8 8 9 10 11 12 12 12 13 14 15
30 29 28 27 24 20 19 19 18 17 15 15 14 12 10 10 9 8 6 4 4 5 6 7 9 10 10 11 13 14 14 15 15 14 13 12 12 11 11 10 9 9 9 9 10 11 12 12 12 13 14 14 16 17
29 28 28 27 25 24 23 21 18 16 16 14 12 12 10 8 7 6 5 5 5 6 7 8 9 10 11 13 14 14 14 14 14 15 14 13 12 11 11 11 10 11 11 11 12 12 12 12 13 14 15 16 17 18
23 22 23 23 26 25 23 21 19 16 13 13 11 10 8 6 4 3 4 5 6 8 8 9 10 11 12 14 14 14 15 15 15 15 14 13 13 12 11 11 11 11 11 12 12 12 12 13 14 16 17 18 20 21

GFSWCAN_700_spd_078.txt.gz
Wind_Speed
21 23 23 25 29 27 24 22 24 24 26 25 26 32 34 38 38 48 46 45 43 43 34 32 30 23 27 30 28 22 17 26 24 20 14 10 10 12 10 7 10 15 15 15 19 13 12 9 4 8 8 9 12 15
21 22 28 27 26 24 24 25 26 27 26 27 26 27 33 38 38 42 49 44 40 42 30 33 36 32 33 30 26 31 28 18 19 15 15 9 10 10 12 8 14 9 12 11 12 12 7 9 3 12 18 21 22 21
20 22 23 23 25 27 27 27 26 26 26 28 28 27 33 35 38 41 45 42 39 40 39 35 23 30 25 27 21 21 27 25 22 14 13 12 10 12 12 14 11 11 12 13 8 9 9 12 21 21 25 26 27 27
20 20 24 25 24 24 23 22 22 23 24 23 25 29 30 32 37 37 45 39 40 41 41 29 38 21 29 21 19 14 15 19 24 22 17 12 12 11 11 10 10 12 10 10 15 15 19 17 26 24 24 25 23 23
16 21 23 22 26 26 23 19 18 18 19 21 26 23 28 32 34 37 38 39 40 44 21 36 21 23 28 22 14 11 23 21 18 25 23 20 16 13 14 15 13 12 14 15 16 19 22 24 29 28 27 30 31 27
15 21 29 32 29 25 19 16 17 15 18 24 24 25 27 35 36 37 37 34 32 37 27 11 27 24 28 22 19 22 26 29 24 18 19 19 18 18 9 13 18 23 20 22 25 22 25 28 29 29 29 28 27 27
18 25 29 28 30 25 9 11 17 16 21 23 28 31 27 34 36 39 39 41 33 28 32 20 12 26 23 19 25 27 29 25 27 27 22 25 25 23 18 13 22 20 20 24 26 26 24 25 24 26 30 30 30 32
16 22 26 27 27 21 17 17 18 23 24 27 33 31 30 38 35 31 28 22 28 32 25 8 9 18 27 32 26 23 25 23 22 22 24 23 22 20 14 26 30 28 25 26 22 21 23 23 24 22 23 26 30 25
13 16 23 25 24 20 21 22 25 27 30 35 36 36 34 30 31 29 26 23 24 23 13 13 14 12 21 26 31 30 27 26 23 27 26 12 21 18 25 33 33 27 23 20 19 23 25 26 28 25 27 29 29 28
13 14 18 20 22 16 16 22 28 31 39 38 39 39 37 30 30 30 29 25 22 15 10 13 15 10 6 21 22 29 26 24 13 16 22 33 27 27 28 30 28 26 25 27 27 26 27 27 27 26 27 29 29 27
10 14 18 19 21 22 26 32 36 42 39 38 37 32 31 25 25 13 12 9 9 8 13 14 14 13 7 19 19 18 10 9 7 12 14 10 20 31 31 29 30 31 33 33 31 31 30 31 30 30 28 30 28 26
8 11 16 20 21 22 22 24 31 38 36 34 40 39 31 18 6 6 9 9 7 8 9 11 11 10 16 25 16 6 5 7 3 12 9 8 22 21 23 26 27 26 26 26 27 26 24 25 25 26 26 27 31 26
8 7 10 16 18 20 22 15 27 21 32 38 21 16 8 4 5 7 7 8 8 15 15 16 19 21 18 12 9 6 5 5 9 13 8 11 15 18 19 20 21 22 23 23 23 22 22 22 24 24 24 22 22 20
12 12 10 11 15 21 23 28 34 35 29 10 8 6 3 5 5 9 11 15 19 21 19 17 18 6 15 7 6 6 7 7 6 5 6 11 14 14 15 16 17 17 17 18 18 17 16 16 15 15 15 13 11 10
12 16 18 19 23 26 26 28 29 20 7 3 2 2 4 12 19 16 16 19 20 18 18 16 11 10 10 3 3 4 6 5 6 6 9 9 10 11 11 11 9 9 8 6 6 5 4 4 3 4 5 5 6 5
11 15 23 25 25 23 19 16 14 8 5 4 0 12 20 20 18 16 14 14 15 15 14 10 6 4 5 4 5 6 5 4 6 7 6 5 5 5 4 3 1 2 4 4 5 6 7 9 9 9 11 12 12 11
9 11 17 26 24 22 18 11 7 2 5 5 14 19 19 17 16 15 13 12 11 11 10 5 5 5 3 4 4 4 5 5 6 4 3 3 2 4 7 9 11 13 12 11 10 10 10 10 11 11 10 12 11 10
5 12 17 20 26 22 13 5 1 1 6 18 19 19 17 15 14 13 11 10 9 9 10 7 4 7 4 3 4 5 9 9 8 7 6 7 9 10 11 10 9 8 7 7 7 7 7 7 6 4 4 4 3 0
8 17 19 19 18 18 14 10 4 7 18 18 18 17 14 13 12 10 10 10 10 8 6 6 3 6 8 11 13 11 10 8 7 6 6 7 8 8 7 6 4 3 3 2 2 2 2 2 0 2 4 5 5 6
12 21 22 21 19 15 10 11 13 16 20 19 17 16 14 11 10 9 7 5 8 10 7 9 19 17 15 13 11 9 7 6 6 6 5 5 5 4 4 3 3 3 2 2 2 3 4 6 8 8 8 8 8 9
22 24 25 23 19 14 12 15 11 18 19 16 14 13 12 12 11 9 10 14 16 22 24 21 17 14 13 11 9 8 6 5 4 3 3 3 4 5 5 5 5 5 5 6 7 9 10 10 10 9 9 10 10 11
28 24 25 23 14 17 14 15 16 17 15 16 12 11 14 15 17 18 19 19 22 21 19 18 15 13 11 9 7 5 3 2 1 1 2 3 4 5 6 7 8 9 10 11 12 12 11 11 11 11 11 12 12 12
26 24 23 19 11 7 17 19 21 19 14 19 23 23 23 25 23 22 16 16 19 18 15 14 11 9 8 6 4 3 2 2 3 3 4 5 7 8 9 10 11 11 12 12 12 12 12 12 12 12 12 11 11 10
24 20 15 9 8 9 24 18 18 20 24 23 22 22 21 21 17 11 17 15 14 13 12 10 8 6 5 4 3 3 4 5 6 7 7 8 9 10 10 10 11 11 11 11 11 11 11 11 11 10 10 9 7 6
14 11 6 8 9 19 18 20 22 24 25 26 23 18 18 14 12 13 15 13 11 9 8 7 5 4 3 3 3 4 5 6 7 8 8 9 9 9 10 10 11 10 10 10 10 10 10 9 9 7 6 6 6 7
6 7 8 13 18 18 16 23 23 30 29 21 15 16 16 13 6 8 12 10 9 7 5 4 2 2 3 5 6 8 8 8 7 7 8 9 10 10 10 10 10 10 10 10 10 9 8 7 6 5 6 7 9 10
5 7 16 21 23 25 28 25 31 28 19 10 18 20 10 5 5 11 11 9 7 5 4 3 4 6 7 8 8 9 9 9 9 10 10 10 10 11 11 11 11 11 10 9 8 6 6 5 6 7 9 10 10 10
12 22 23 26 28 28 31 32 28 18 11 16 21 10 7 7 9 13 11 9 7 6 5 4 5 6 7 7 8 9 9 10 10 11 11 11 11 11 11 10 10 9 8 6 5 5 5 6 8 9 10 11 11 11
25 26 25 26 25 28 29 24 16 13 13 19 13 9 9 12 13 12 11 9 7 5 4 4 5 6 7 8 8 9 10 11 11 11 11 11 10 10 10 9 8 7 6 6 6 6 7 8 9 11 11 11 11 12
28 28 28 26 26 25 22 16 12 14 17 13 10 13 14 14 14 12 10 8 5 3 3 4 6 7 7 8 9 11 12 12 12 12 11 11 10 10 9 8 8 7 7 7 7 8 9 10 11 11 11 12 12 13
28 28 27 26 24 21 17 15 18 17 16 16 15 12 12 13 13 11 8 6 3 3 4 5 6 8 8 9 10 12 12 13 13 13 12 12 11 10 10 9 8 8 8 8 9 10 10 11 11 11 12 13 14 15
27 26 26 26 24 21 21 21 20 20 18 17 16 14 13 11 10 8 6 4 3 3 5 6 7 8 9 10 11 12 12 13 14 14 13 12 11 10 10 9 9 9 9 9 9 10 10 10 11 12 13 14 15 17
22 20 19 21 24 24 24 24 22 19 16 16 14 13 11 8 6 4 3 3 3 5 6 7 8 9 9 11 12 12 13 14 13 13 13 12 11 10 10 9 9 10 10 10 10 10 10 11 13 14 15 17 18 20

GFSWCAN_700_spd_081.txt.gz
Wind_Speed
18 19 21 22 24 25 26 26 24 23 24 27 26 27 30 35 39 42 40 37 42 40 31 24 20 26 22 22 23 16 16 18 17 19 10 12 7 8 11 7 13 20 17 18 18 10 18 10 8 10 5 1 3 5
19 19 21 23 24 25 24 24 24 25 26 26 27 27 27 31 35 42 45 40 36 41 28 33 30 30 22 24 20 23 19 9 11 13 16 11 9 10 12 12 13 14 16 16 17 16 5 7 13 7 7 8 11 13
18 18 20 21 22 22 23 25 27 27 29 30 30 28 27 28 29 43 42 40 37 35 35 32 29 30 27 25 25 24 24 22 21 15 15 15 9 9 11 16 9 12 13 10 12 10 12 4 12 10 12 16 19 21
16 17 19 21 27 30 31 31 28 26 26 28 28 29 29 26 28 42 42 38 43 35 35 26 29 26 24 27 26 22 26 17 23 18 16 12 10 9 12 14 10 12 10 14 14 10 9 5 5 20 16 21 22 23
17 18 24 26 30 31 34 31 29 27 24 29 26 27 29 27 31 39 37 34 37 34 16 29 22 22 21 26 30 29 17 16 13 20 19 17 11 10 13 11 10 10 11 12 9 12 10 9 17 19 22 28 30 29
15 20 26 29 30 34 31 24 21 24 23 22 24 25 30 28 37 38 35 33 31 33 17 12 14 22 20 20 23 18 11 16 19 18 15 23 20 14 7 13 17 17 18 19 20 18 19 24 28 28 25 28 29 30
16 19 23 28 28 24 14 4 13 19 20 22 24 24 28 36 39 42 36 36 33 30 33 10 3 9 24 21 20 17 17 22 23 20 20 16 12 19 15 11 13 18 20 21 19 18 22 26 30 27 25 27 25 27
15 18 22 23 19 16 10 13 15 20 23 25 24 28 31 35 37 35 29 20 31 32 31 13 7 7 17 24 20 21 23 24 23 18 21 22 18 17 15 20 24 23 23 24 22 23 25 23 21 23 26 25 27 26
15 17 16 19 13 10 10 14 17 21 28 27 32 32 33 31 36 34 24 21 25 26 14 13 14 8 15 22 22 14 19 21 16 19 14 12 16 14 12 17 23 26 28 24 22 24 25 23 24 25 27 26 26 26
12 15 16 19 20 14 16 19 28 34 36 35 34 36 35 30 27 30 25 32 32 27 17 11 14 10 12 21 21 21 20 17 4 13 13 18 20 21 24 26 26 29 29 24 23 28 29 31 33 32 31 30 29 29
11 14 17 19 23 19 22 30 32 36 37 43 33 38 33 29 33 24 15 13 11 9 18 16 17 14 11 17 21 12 7 8 8 12 13 7 18 32 34 34 35 28 27 29 30 31 30 29 28 28 30 30 29 29
10 14 18 19 20 26 31 33 37 34 32 38 44 42 36 18 11 7 11 10 8 8 12 18 18 16 9 13 10 13 7 11 6 10 10 8 16 18 21 25 27 27 27 27 27 27 28 26 25 24 25 25 24 25
7 12 16 15 17 24 25 26 25 25 30 31 37 24 6 5 5 7 7 8 7 11 15 17 16 14 12 16 7 6 5 5 6 7 4 7 15 15 18 20 22 22 24 25 25 25 24 23 22 22 22 22 22 20
10 10 11 16 17 16 24 28 29 27 25 14 2 4 4 5 6 10 16 16 14 15 17 18 19 9 12 10 5 4 4 7 6 4 5 14 11 14 16 19 17 18 20 21 21 20 19 18 17 16 16 15 13 10
11 13 19 19 17 22 26 30 21 10 6 2 2 2 4 7 13 15 15 18 19 20 19 18 12 11 14 5 5 4 5 3 6 5 14 9 10 9 9 10 12 13 13 12 11 10 9 8 7 6 6 5 5 5
16 18 24 26 28 26 25 24 9 2 7 4 3 15 21 20 19 19 21 23 22 20 16 10 6 5 5 4 5 4 3 3 6 8 7 6 7 8 9 9 8 6 4 3 2 1 2 2 3 4 5 6 7 7
25 23 28 24 29 25 18 14 8 5 3 1 12 17 16 18 19 18 19 20 20 20 14 6 5 4 4 3 4 5 7 9 6 6 6 6 6 5 3 1 1 3 5 5 4 5 5 6 6 6 6 6 7 6
15 25 24 23 20 15 10 6 1 1 2 12 17 16 14 15 15 15 14 14 14 14 10 5 3 6 4 2 4 4 4 4 3 2 2 1 1 2 3 3 3 2 2 2 2 2 2 2 2 1 1 2 3 5
14 20 25 26 21 16 9 4 1 1 10 16 18 16 14 13 12 11 11 10 8 7 6 4 3 5 4 4 7 7 6 4 3 2 1 1 2 2 3 3 3 3 3 3 3 3 3 3 4 6 8 9 10 10
15 21 19 21 23 16 9 4 5 7 17 18 16 14 12 9 7 6 6 7 8 7 4 3 11 15 13 11 9 7 5 3 2 1 1 2 3 5 6 7 7 7 7 7 7 8 8 9 11 12 13 12 11 11
18 23 22 20 18 15 7 10 8 15 19 17 15 12 9 7 5 3 4 10 13 10 19 17 15 13 11 9 7 5 4 2 2 2 3 5 6 8 9 9 9 9 9 10 11 12 13 15 15 14 13 13 13 13
23 25 24 20 14 12 9 13 14 17 14 15 12 9 10 9 8 10 15 16 21 19 17 14 12 10 8 6 5 4 2 2 3 4 6 7 8 9 10 11 11 12 13 14 15 15 15 15 14 14 14 14 14 13
26 26 22 15 8 7 13 16 19 14 10 13 15 15 16 18 18 17 13 15 17 15 13 11 9 7 6 4 4 4 4 6 7 8 9 10 11 12 13 14 14 14 15 15 15 15 14 14 14 14 14 14 13 12
26 21 15 11 7 7 19 15 16 14 15 17 16 20 21 19 15 11 15 13 13 12 10 8 6 5 4 3 3 4 6 8 9 10 11 12 13 13 13 13 13 14 14 14 14 13 13 13 13 13 12 12 11 10
15 14 7 10 11 13 16 18 18 15 21 20 21 18 18 13 10 10 13 13 11 9 8 6 5 3 2 2 3 5 6 8 8 9 10 11 12 12 13 13 13 13 13 12 12 12 12 12 11 11 10 9 8 9
9 8 9 13 14 16 15 17 16 21 26 20 15 17 15 12 8 7 14 12 11 9 7 5 3 2 1 3 4 6 7 8 8 9 10 10 11 11 12 12 12 12 12 12 12 11 11 10 8 8 7 8 9 11
7 8 14 15 18 19 20 18 22 29 24 12 18 19 13 6 6 11 15 13 11 8 6 4 2 1 2 4 5 7 7 8 8 9 10 11 12 12 12 12 12 12 11 11 10 9 8 7 7 8 9 10 11 12
11 13 20 20 22 22 23 28 30 22 16 16 21 15 9 8 10 17 16 13 10 8 6 3 1 2 3 5 7 8 9 9 10 11 11 12 12 12 12 12 12 11 10 9 8 8 7 8 9 10 11 12 12 12
20 23 23 23 25 26 30 28 20 19 16 18 23 15 9 8 16 16 14 12 10 7 3 1 1 3 5 6 8 9 10 11 11 12 12 12 12 12 12 12 11 11 10 9 9 9 9 10 11 12 13 13 13 13
26 27 27 28 29 26 27 22 17 13 14 19 14 8 10 16 16 15 13 10 7 4 1 1 4 5 6 8 9 10 11 11 11 11 12 12 12 12 12 11 11 11 10 10 10 11 11 12 13 13 13 13 13 14
27 25 25 25 25 25 23 17 13 16 16 13 14 14 13 15 15 13 10 7 4 1 1 3 5 7 8 9 10 11 11 11 12 12 12 12 12 12 12 11 11 11 11 11 11 12 12 13 13 13 13 13 14 15
26 25 25 25 24 22 20 18 19 19 21 19 18 17 16 14 12 10 8 5 2 1 3 5 7 8 9 10 11 11 11 12 12 11 11 11 11 11 11 10 10 11 11 11 11 11 11 11 12 13 14 15 16 17
22 19 18 20 22 22 21 22 22 20 19 18 17 15 14 11 10 8 5 3 2 3 4 7 8 9 10 11 11 11 11 11 11 11 11 11 11 11 10 10 10 10 10 10 10 10 11 12 13 14 16 17 19 20

GFSWCAN_700_spd_084.txt.gz
Wind_Speed
23 23 20 20 21 21 22 24 25 26 28 28 28 29 29 29 31 37 31 33 39 37 30 26 19 21 14 15 20 17 12 25 18 14 10 12 11 11 14 7 19 21 18 16 18 11 15 3 6 8 8 8 6 4
22 21 20 20 21 21 21 21 23 23 23 24 24 27 31 31 37 33 41 35 34 39 27 30 29 21 24 19 13 22 19 6 10 8 10 8 10 5 6 6 10 13 17 15 14 16 6 8 12 13 13 8 3 5
20 20 19 20 19 20 23 25 24 23 24 26 28 26 27 27 28 33 37 38 35 33 28 34 27 29 28 26 15 18 11 14 13 15 15 15 13 6 8 9 9 8 16 18 20 14 11 9 15 14 10 8 12 8
20 19 21 20 22 26 29 29 28 28 27 25 31 32 29 27 26 29 31 40 39 33 32 22 17 27 24 28 29 25 21 17 20 17 19 19 13 8 8 10 8 8 9 12 10 9 15 12 8 7 7 12 12 15
18 20 22 23 27 30 33 34 34 33 33 30 29 32 32 30 26 27 29 32 37 39 14 25 22 17 22 20 24 24 25 18 21 18 19 15 14 15 13 9 7 12 4 6 7 6 4 4 4 9 17 21 22 24
17 20 21 23 28 31 30 30 30 29 30 31 28 29 29 29 28 31 44 32 32 28 29 17 10 20 18 24 19 19 22 26 23 18 17 14 15 9 6 8 6 11 9 10 6 4 12 19 23 20 23 25 25 25
17 19 20 23 25 24 23 15 9 9 19 26 27 30 29 32 31 28 36 30 28 26 38 24 4 16 20 19 18 19 26 18 14 15 17 15 10 15 19 12 11 19 16 12 12 13 18 21 24 22 24 23 24 23
15 18 19 22 22 14 8 3 6 12 21 25 27 29 28 31 24 33 31 25 30 30 32 19 6 9 18 24 20 17 17 17 18 17 15 14 13 15 8 15 18 15 11 12 14 19 20 19 24 25 21 20 24 25
13 16 15 17 8 4 4 8 15 16 20 24 29 32 31 28 35 35 25 18 26 29 17 13 9 6 13 17 22 14 18 16 16 17 19 10 11 10 8 13 15 14 15 19 20 24 25 25 23 25 28 28 30 30
10 9 11 6 10 11 8 16 18 18 21 33 37 40 38 35 32 30 18 26 26 29 21 13 13 7 12 18 17 12 10 12 6 14 12 17 13 17 18 21 23 23 26 24 20 23 21 23 26 29 29 28 29 29
7 8 12 13 15 19 21 22 23 30 30 35 31 27 34 29 30 23 13 15 14 13 22 16 14 9 9 14 16 10 5 4 5 8 8 7 9 15 19 23 26 27 25 28 31 29 27 27 26 26 28 27 28 28
7 13 15 19 23 25 30 34 31 23 28 32 36 33 32 28 12 6 11 10 9 11 10 18 16 11 9 12 11 11 5 5 4 7 8 4 14 22 21 21 21 24 26 26 26 27 26 25 25 26 25 25 25 26
10 12 19 24 27 26 20 21 22 23 30 32 34 24 10 5 6 8 8 8 8 11 13 19 16 18 12 8 6 6 6 6 4 6 4 6 10 11 15 17 16 18 20 21 22 24 24 23 23 22 21 21 21 20
11 13 15 21 21 18 20 28 41 41 41 23 7 7 5 5 7 11 16 15 11 13 17 20 16 13 12 10 3 4 4 4 4 3 4 11 12 14 14 15 15 16 17 19 20 19 18 17 16 15 14 14 13 12
13 16 17 16 20 21 26 25 24 23 5 2 3 4 4 6 11 17 15 14 15 17 18 16 17 9 12 5 4 2 3 2 4 6 13 9 11 11 13 14 15 16 16 15 14 13 11 11 9 7 6 5 4 3
17 19 17 17 24 23 19 13 9 10 7 3 1 13 15 12 16 17 19 19 19 20 18 14 6 5 4 4 5 5 4 4 7 10 8 7 8 9 10 10 9 8 8 8 7 7 7 7 6 5 4 3 2 3
19 19 22 27 27 27 18 7 6 7 4 5 11 14 16 16 19 19 21 22 20 18 14 7 5 3 4 1 2 4 7 8 6 6 5 5 5 4 4 5 6 6 6 6 6 6 6 5 5 4 4 4 3 2
22 24 25 26 25 18 11 4 2 3 1 15 14 14 13 14 16 16 16 17 18 16 11 4 3 6 6 5 2 3 3 2 0 1 2 3 4 4 4 5 5 6 6 6 6 5 5 4 4 4 4 6 7 9
27 25 24 21 17 11 6 2 3 2 9 13 15 13 12 12 12 12 13 13 13 12 6 3 2 3 4 3 7 8 7 6 5 4 4 4 4 4 5 6 7 8 8 9 9 9 9 9 9 9 11 12 13 13
22 27 25 21 15 9 3 1 1 4 11 15 14 13 11 10 9 9 10 9 9 7 4 2 4 12 12 11 10 8 7 6 6 5 5 6 6 7 9 10 11 11 11 11 11 12 12 12 13 15 16 16 16 15
17 20 21 20 17 12 5 2 2 4 14 13 12 11 10 7 6 6 8 10 9 5 10 16 15 14 12 10 8 6 5 4 4 5 5 7 9 10 11 12 12 12 12 13 13 14 15 16 17 17 16 16 15 15
18 20 18 17 16 13 7 6 6 12 12 14 13 9 7 5 5 6 10 12 15 19 16 14 12 10 8 6 4 3 3 3 5 7 9 11 12 13 13 14 14 14 15 16 17 17 17 17 16 16 15 15 15 15
19 22 19 15 10 10 7 10 14 12 8 11 10 9 10 12 13 16 13 17 18 16 13 11 9 7 5 3 2 3 4 6 8 10 12 13 14 15 15 16 16 16 16 15 16 15 15 15 15 15 14 14 13 13
21 21 16 10 7 9 12 13 14 12 11 14 12 12 16 15 12 12 16 14 13 12 10 9 7 5 3 2 3 5 7 9 11 12 13 14 15 15 15 15 15 16 16 16 15 15 14 14 14 14 13 13 12 11
16 14 7 9 9 8 13 15 15 11 14 14 17 16 18 13 9 10 14 13 11 10 8 6 5 3 2 3 4 6 9 10 11 12 13 13 15 15 15 15 15 15 15 15 14 14 14 13 13 13 12 10 10 9
10 7 9 12 13 11 11 14 14 13 18 18 15 16 15 11 7 6 13 13 11 9 7 5 3 1 2 4 6 8 10 11 12 12 13 14 14 16 16 17 17 13 15 15 15 14 13 12 10 10 9 9 10 11
7 5 13 11 14 13 16 17 15 20 22 11 18 19 11 6 6 8 16 15 11 8 6 4 2 2 4 6 8 10 11 12 13 13 14 14 15 15 16 16 15 15 14 14 13 12 11 10 9 9 10 11 12 13
9 10 12 15 16 18 20 20 20 22 16 14 21 15 10 8 7 11 16 13 11 9 6 3 3 4 6 8 10 11 13 14 14 14 14 15 15 15 15 15 15 14 14 13 12 11 11 11 11 11 12 13 14 14
13 13 14 19 19 21 21 22 17 19 18 17 22 16 9 5 4 14 15 13 11 8 5 3 3 5 7 9 11 12 14 14 15 15 15 16 15 14 15 14 14 13 13 12 12 12 12 12 13 14 14 15 15 15
14 19 23 23 24 19 20 18 17 16 16 12 15 12 8 6 14 16 15 12 9 6 4 3 4 7 9 11 12 13 14 14 14 15 15 15 15 15 15 14 13 13 13 12 12 12 12 13 13 14 15 15 15 15
22 22 22 24 22 19 20 17 15 13 12 14 14 9 7 12 14 13 12 10 8 5 3 4 6 8 10 12 13 14 14 14 14 14 15 15 15 15 14 14 13 12 12 12 12 13 13 13 13 13 14 14 15 16
21 21 21 22 22 22 22 18 15 14 14 13 15 16 16 16 15 13 11 8 6 4 4 6 8 10 11 13 14 14 14 14 14 14 15 14 14 14 13 13 13 12 12 12 12 12 12 13 14 14 15 16 17 18
19 17 17 16 20 21 19 18 16 17 20 21 20 18 18 16 13 12 9 6 5 5 6 7 9 11 12 13 14 14 14 14 14 14 14 14 14 13 13 12 12 12 12 12 12 13 14 15 16 17 18 19 20 21

GFSWCAN_700_spd_087.txt.gz
Wind_Speed
28 24 21 21 18 20 18 18 19 21 22 21 21 21 23 25 27 28 25 26 29 31 26 25 23 21 13 9 13 13 11 13 17 14 9 8 8 11 13 23 7 20 20 22 24 9 11 6 4 7 13 19 19 14
26 22 21 19 19 20 18 18 18 18 19 21 23 25 26 26 26 29 28 27 28 30 22 24 28 26 20 12 9 10 11 12 2 5 8 6 9 12 12 7 13 12 23 15 16 15 6 7 10 14 14 21 15 10
24 21 20 19 20 19 18 18 21 22 22 22 22 22 23 24 28 29 32 26 36 31 26 27 23 24 25 19 22 17 3 8 8 11 13 10 10 11 10 4 5 14 19 10 13 13 12 13 12 16 17 14 12 12
22 20 19 19 20 23 23 24 25 26 27 27 27 26 25 23 25 30 31 35 30 37 31 17 11 23 25 29 26 24 21 14 12 12 14 11 15 9 12 8 12 7 5 14 15 16 21 18 12 14 13 6 4 9
21 19 19 19 22 25 28 31 32 33 32 31 29 29 28 27 23 23 24 25 21 35 9 14 21 14 16 24 27 25 24 19 20 19 13 14 15 15 13 12 6 9 4 2 13 6 17 12 1 10 9 9 11 13
19 17 18 21 25 27 30 30 32 33 31 32 33 32 31 30 25 25 30 25 24 27 33 11 3 8 18 18 21 24 22 20 18 20 15 15 14 9 3 5 8 8 3 4 6 7 7 12 13 11 11 15 16 14
15 15 17 21 26 27 28 24 23 20 22 27 32 32 33 34 33 31 26 30 25 22 36 26 22 18 16 16 20 18 14 16 16 19 16 13 12 11 6 11 8 10 10 4 3 5 7 9 14 14 14 16 15 13
12 15 19 24 24 20 13 10 9 6 6 21 31 34 32 30 28 29 27 19 21 30 32 18 12 8 19 19 17 17 17 16 19 16 15 11 10 10 6 9 12 9 6 11 13 9 12 18 19 20 18 18 21 21
11 14 18 17 10 9 4 3 7 11 23 29 32 33 30 28 28 28 23 15 24 27 14 15 17 15 20 20 19 17 14 12 10 14 13 9 10 7 8 8 9 9 10 11 14 14 16 20 22 20 18 19 25 26
7 8 8 3 3 3 8 10 12 17 24 31 33 32 29 30 24 28 23 25 27 27 20 18 15 13 19 17 19 16 11 18 6 9 10 12 14 13 13 12 17 20 18 18 21 20 20 22 25 26 26 25 25 25
1 3 2 7 12 16 14 14 17 21 25 29 30 24 28 31 27 19 15 16 14 13 21 26 12 7 7 14 16 19 5 5 6 6 10 8 10 17 20 20 20 19 21 22 24 24 25 26 24 26 26 27 26 27
5 13 18 23 24 27 28 25 25 34 23 30 34 37 33 29 20 7 14 11 9 10 8 16 12 11 9 10 8 11 7 7 4 8 10 6 15 15 16 18 18 18 18 17 17 18 19 21 22 23 26 27 26 26
15 21 28 24 23 25 24 16 25 24 24 35 35 21 18 8 6 7 11 8 9 14 13 15 15 9 8 9 6 5 6 6 4 7 4 9 10 10 12 14 13 14 16 18 19 20 20 21 21 21 22 23 22 22
20 24 21 13 17 22 16 23 28 27 37 24 9 8 6 7 7 10 18 17 12 15 18 15 18 13 12 6 5 5 5 6 5 5 6 8 7 8 9 10 10 11 13 14 16 16 16 16 15 15 14 14 13 12
21 23 18 18 18 24 26 30 31 30 11 10 8 4 4 8 14 18 18 17 10 14 19 18 16 7 9 4 5 4 4 3 5 7 6 6 9 10 9 9 11 12 12 12 12 11 11 10 9 8 7 6 5 4
20 20 17 19 23 24 26 27 11 7 6 5 5 12 11 14 18 19 18 14 16 18 18 16 10 6 6 5 5 6 6 5 5 2 3 5 6 9 10 10 9 8 8 8 8 9 9 9 8 7 6 6 5 5
21 23 23 25 29 23 12 7 8 6 4 6 15 15 16 15 17 18 18 21 22 21 21 11 5 4 6 4 5 5 4 2 2 4 4 5 4 3 3 3 4 5 6 7 7 7 6 6 5 4 4 4 4 5
19 20 22 27 19 16 6 6 7 6 15 18 15 15 15 19 20 20 19 19 19 17 10 4 3 5 3 3 2 1 1 0 2 3 3 2 2 1 2 4 5 6 6 7 7 7 7 7 7 7 7 8 9 10
17 24 26 24 17 10 5 5 8 6 14 16 17 17 16 15 15 15 16 15 13 10 5 2 1 3 4 4 8 10 10 9 7 5 3 2 3 4 6 8 9 11 11 12 12 12 12 12 12 12 13 14 15 14
23 25 24 19 15 10 4 3 5 8 14 15 15 15 13 13 12 11 10 9 9 8 6 4 4 10 14 13 12 10 9 7 6 5 5 6 8 9 10 11 12 12 13 13 13 13 13 14 15 16 17 17 16 15
22 23 22 18 11 6 2 3 3 9 15 14 14 12 11 10 9 10 10 10 9 6 6 16 17 15 13 11 10 8 6 6 7 7 8 9 11 12 13 14 15 16 15 14 14 16 17 17 17 17 17 17 17 17
22 22 18 14 10 6 3 1 3 11 12 16 14 11 9 7 7 9 12 13 10 15 16 16 15 12 10 9 8 6 5 6 8 10 11 13 13 14 15 15 15 15 16 16 16 15 16 17 17 16 16 16 15 15
18 18 15 13 9 8 5 6 13 11 12 14 11 9 9 11 13 16 13 17 20 18 15 13 11 10 8 5 4 3 5 7 9 11 13 14 15 15 15 15 16 16 15 14 14 14 15 15 15 15 15 14 14 14
18 18 13 9 6 7 8 11 11 12 13 15 10 8 13 14 12 15 19 18 16 14 12 10 8 6 4 3 2 4 6 9 11 13 14 14 14 15 14 15 16 16 16 16 14 14 14 14 14 14 13 13 12 10
14 12 7 7 7 7 8 12 13 10 13 13 13 12 16 12 11 12 16 14 13 10 8 7 6 4 2 2 4 7 9 11 12 14 16 16 17 15 14 15 16 16 16 15 14 14 14 13 13 12 11 10 9 9
8 6 8 11 11 8 8 12 13 11 12 13 12 15 16 11 7 7 13 12 10 9 8 7 5 3 1 3 6 9 11 13 14 15 16 17 18 18 19 19 16 14 16 16 16 13 12 11 10 10 9 9 10 11
6 4 11 10 12 12 11 15 12 14 14 8 16 19 12 6 6 9 15 16 13 10 8 6 3 1 3 5 7 10 13 14 15 16 17 16 17 17 17 17 17 16 15 15 15 13 11 10 10 9 9 9 10 13
8 6 9 11 12 14 14 16 16 16 13 11 19 14 10 8 4 8 14 15 12 10 7 5 2 1 4 7 9 11 13 15 16 16 17 16 16 17 17 16 16 16 15 14 14 13 12 11 11 11 11 13 13 13
6 8 8 12 14 14 15 18 14 16 15 15 20 16 10 7 2 6 14 15 13 11 8 4 1 3 5 8 10 12 14 15 16 17 17 15 15 15 15 15 15 15 14 14 13 13 12 12 13 13 13 13 14 14
14 12 13 14 16 15 17 17 15 12 14 14 15 15 11 7 7 14 16 14 12 10 6 3 2 4 7 9 11 14 16 17 17 17 17 16 16 16 15 15 15 14 14 13 12 12 13 13 13 14 14 14 14 15
14 16 17 18 19 16 15 14 14 15 17 16 15 13 9 7 13 14 15 15 12 8 5 3 4 6 9 11 12 15 16 17 17 16 16 16 16 16 16 15 14 14 13 13 12 12 12 12 12 12 13 14 15 16
14 17 17 20 20 19 19 19 19 17 16 15 13 13 13 16 17 16 15 12 9 6 3 3 5 8 10 12 14 15 16 17 16 16 16 16 16 15 15 14 14 13 12 12 12 12 13 14 14 15 16 17 18 19
15 14 14 15 18 19 19 17 16 16 16 17 18 20 19 19 17 16 14 11 8 5 5 5 7 9 12 14 16 16 17 17 17 16 17 16 16 15 14 13 12 12 12 13 14 15 16 16 17 17 18 18 19 20

GFSWCAN_700_spd_090.txt.gz
Wind_Speed
28 27 24 23 22 21 19 19 18 15 15 15 15 16 19 20 21 22 21 18 23 22 19 21 21 16 16 6 5 8 6 5 6 7 8 8 9 8 11 15 14 15 11 18 24 13 14 24 17 9 12 19 17 16
28 26 24 23 21 21 19 19 18 17 16 15 16 17 19 19 20 25 26 21 19 27 14 17 25 21 19 18 6 6 5 4 2 3 7 7 7 7 11 9 12 15 19 10 13 18 16 15 14 12 18 19 18 14
28 25 24 23 22 21 19 18 18 17 16 16 16 16 17 21 23 25 28 22 22 26 21 22 16 20 24 22 17 13 8 2 3 2 4 6 7 9 9 10 15 9 20 8 14 13 16 15 12 18 19 19 16 15
26 25 24 22 22 20 19 19 20 23 20 19 19 20 20 20 21 25 30 26 23 26 29 18 5 17 20 24 23 21 17 16 13 8 9 7 10 9 12 12 21 6 5 14 16 14 12 14 16 14 18 13 4 1
25 24 23 22 21 20 20 20 24 27 29 26 25 25 23 23 24 21 27 29 24 23 8 12 20 10 10 23 23 24 22 18 17 16 14 15 12 13 13 9 2 5 3 3 5 17 17 12 6 5 5 5 5 6
23 22 20 20 20 22 24 24 25 27 29 29 29 28 27 26 28 26 29 28 25 25 23 8 4 9 18 16 18 22 22 20 19 16 16 14 13 14 11 7 3 3 3 8 13 11 4 5 9 7 4 3 4 5
21 19 18 19 20 22 25 25 27 28 28 27 27 28 28 30 34 32 27 27 22 23 25 22 17 14 12 18 19 21 17 16 15 15 16 13 10 9 9 3 7 7 7 5 7 9 4 1 5 5 7 6 5 6
16 16 17 19 20 22 21 17 16 18 20 22 25 26 31 35 33 32 26 14 23 23 22 13 9 9 10 19 16 16 17 16 17 16 14 10 8 9 7 8 8 10 9 7 6 9 10 10 8 12 14 13 13 13
14 14 16 16 15 9 8 5 6 7 9 17 28 32 35 36 36 31 30 15 12 24 26 16 13 13 11 17 17 18 17 15 14 15 15 11 12 9 7 6 8 6 6 7 13 14 14 17 18 16 17 18 19 20
11 10 11 7 4 3 6 6 9 15 21 31 39 39 37 35 30 26 20 17 24 22 21 14 14 15 12 25 20 16 15 13 6 11 11 16 18 16 15 13 14 13 16 16 17 18 21 22 21 21 24 25 23 22
7 7 5 4 11 11 12 14 18 26 29 36 41 28 31 28 26 19 12 14 13 13 19 17 16 15 9 24 22 16 8 8 7 6 12 8 13 18 17 16 18 20 19 18 18 20 19 21 22 21 21 21 23 23
8 12 16 17 16 17 19 20 24 29 35 34 32 31 30 15 9 7 14 10 10 9 8 15 17 15 5 14 15 19 7 8 4 7 8 5 14 13 14 14 15 17 17 16 15 16 16 17 18 19 20 21 21 22
23 22 20 24 25 27 24 17 24 26 23 27 39 9 15 8 5 9 10 9 10 15 9 12 11 14 11 8 4 6 7 5 3 4 4 7 5 7 8 10 12 12 13 13 13 13 14 15 16 16 17 17 17 16
26 22 21 19 22 18 25 18 24 27 26 35 17 9 6 7 6 11 14 16 12 17 14 10 12 9 8 8 5 4 5 5 6 5 4 4 5 6 9 10 9 10 11 12 12 12 12 12 12 11 11 11 10 9
22 18 20 20 16 24 25 30 42 37 16 10 11 5 8 11 16 22 20 15 11 11 15 16 11 5 9 2 4 4 5 4 6 5 4 5 6 7 6 8 10 10 8 7 7 8 8 8 8 8 7 7 6 6
23 21 30 28 26 35 35 38 18 15 12 10 7 9 15 17 20 22 21 17 12 13 16 16 10 6 6 5 5 6 4 4 3 4 5 5 4 5 5 3 3 4 5 7 8 9 9 10 9 8 7 6 5 5
22 22 27 26 22 28 20 11 8 10 10 11 11 10 14 16 20 20 20 16 16 21 21 11 6 6 6 5 6 6 6 5 5 4 3 2 1 1 2 2 4 6 8 9 10 10 10 9 9 8 8 7 7 8
24 23 26 23 22 13 6 3 5 6 11 17 16 14 16 17 19 19 19 20 18 17 13 8 3 6 4 5 6 5 4 2 4 5 5 3 2 2 4 5 7 8 9 10 10 11 11 11 11 11 11 11 12 13
24 23 26 22 13 7 4 10 13 12 20 18 18 19 18 17 17 18 19 19 17 15 9 6 4 6 6 4 5 9 9 8 7 5 3 2 3 5 8 10 11 12 12 13 13 12 12 12 12 12 13 13 14 15
24 25 23 18 12 8 6 10 14 12 19 20 20 20 18 18 18 18 17 16 15 13 9 5 4 4 8 11 12 11 10 8 6 4 4 5 7 8 10 12 13 14 14 14 14 14 13 13 14 16 17 17 17 16
28 26 24 18 11 8 7 6 7 16 18 18 18 17 16 16 16 16 15 14 13 11 6 5 14 17 16 13 12 10 7 6 6 7 9 10 12 14 15 16 16 14 13 13 13 14 15 15 15 15 17 17 17 16
27 24 19 15 9 6 5 5 8 14 14 18 16 15 15 15 15 15 14 12 9 6 14 16 17 15 13 11 10 9 6 6 8 9 11 13 14 15 15 15 15 15 15 15 15 16 16 16 16 16 16 16 16 15
19 19 14 9 5 4 5 8 15 15 12 15 14 11 10 11 13 15 12 14 14 18 18 16 13 11 11 9 7 6 6 8 9 12 13 14 15 16 17 16 15 14 13 14 15 15 15 15 14 14 14 13 13 13
19 17 11 8 5 5 8 11 12 15 16 16 12 8 12 13 14 11 17 21 20 18 15 13 12 10 8 6 4 5 6 8 10 12 14 15 15 16 17 17 16 16 15 14 14 15 15 15 14 13 13 12 11 10
13 11 6 7 7 9 10 14 16 12 17 15 12 11 16 12 14 17 21 19 16 14 13 12 10 8 6 3 2 4 7 10 12 13 14 14 14 14 14 15 16 16 16 15 14 14 14 13 12 12 11 10 9 8
9 6 8 12 11 11 10 14 15 10 16 14 11 14 15 12 7 8 16 15 13 11 11 10 8 6 3 1 2 4 7 11 13 15 16 17 17 15 14 14 15 16 16 14 13 13 13 12 11 10 10 10 10 10
6 4 11 13 12 11 11 14 13 14 13 8 13 17 12 6 7 9 16 17 14 11 10 10 9 6 2 2 4 7 9 12 14 15 16 17 18 17 16 16 16 16 16 15 14 12 11 11 11 11 11 11 12 14
9 4 12 11 12 13 11 14 15 14 11 8 14 15 11 8 5 11 15 15 14 13 13 12 9 5 2 2 5 8 11 13 14 15 16 18 17 17 16 16 16 15 15 15 14 13 12 11 11 12 12 13 13 13
9 8 7 10 10 12 11 14 12 12 11 11 17 16 12 10 7 9 14 18 17 16 13 9 6 4 2 4 7 10 12 14 15 16 16 16 16 16 16 16 15 15 15 14 14 13 12 12 12 12 12 13 13 14
6 5 7 8 11 13 13 12 14 11 12 13 15 15 13 11 9 12 18 19 17 15 12 9 6 4 4 6 9 11 12 14 15 16 17 16 16 16 15 15 15 14 13 12 12 13 13 13 13 12 13 13 14 15
14 13 12 12 13 13 12 13 14 13 11 14 16 14 12 11 12 16 20 20 18 15 12 8 6 4 5 7 10 12 14 15 17 18 18 17 17 17 16 15 14 14 13 12 11 11 12 13 13 14 15 16 16 17
13 15 15 17 16 15 14 15 15 14 15 17 17 16 15 14 16 18 19 17 16 13 10 7 5 4 6 9 11 13 15 16 16 17 17 17 17 16 16 15 13 12 11 12 12 13 14 15 16 16 17 17 18 18
10 12 12 12 14 15 13 13 15 16 18 20 19 19 18 17 20 19 17 17 15 12 10 6 5 6 8 10 11 13 15 16 17 17 16 16 16 15 14 13 12 12 12 13 14 15 15 15 16 17 18 18 18 18

GFSWCAN_700_spd_093.txt.gz
Wind_Speed
31 29 28 27 25 23 22 20 19 17 16 15 15 15 15 18 19 21 14 14 16 14 11 12 15 16 13 10 6 6 3 4 5 1 3 4 4 3 6 8 9 10 6 6 8 8 11 19 20 15 11 13 14 13
31 29 27 27 25 23 22 20 19 18 18 17 18 17 16 16 20 22 21 15 16 18 12 7 12 19 17 15 9 6 7 3 2 5 7 5 4 4 6 7 13 7 9 13 11 7 15 16 8 12 9 12 16 15
31 29 28 26 25 23 22 21 20 19 19 18 16 15 17 17 19 22 23 20 19 21 17 16 9 8 18 16 18 13 11 8 2 6 8 4 5 6 6 9 12 13 16 14 14 13 16 16 10 9 15 20 22 21
30 29 28 26 24 23 22 22 21 20 19 19 18 18 17 18 19 20 25 21 20 20 20 9 5 8 14 19 21 19 14 13 13 9 8 5 6 6 9 14 20 16 15 7 6 16 17 15 12 15 21 19 20 14
30 29 28 26 24 23 22 22 21 22 21 23 22 20 18 18 20 19 22 25 22 19 6 3 6 18 8 13 18 19 20 17 16 18 16 14 12 8 10 14 13 6 6 5 2 8 11 13 11 11 8 5 9 6
28 27 27 25 23 22 21 22 23 23 22 24 28 27 23 19 20 24 28 24 24 22 24 22 9 7 14 10 13 18 17 16 15 17 19 17 8 10 7 8 8 4 4 4 6 13 8 7 4 1 1 2 2 4
27 26 25 23 21 21 22 22 23 24 25 26 27 28 28 24 28 32 28 24 22 22 22 18 15 12 9 8 16 13 19 15 13 15 20 14 6 6 13 5 8 6 5 4 8 5 3 5 4 2 1 3 7 10
25 24 21 20 20 20 19 21 25 28 28 29 29 29 27 27 33 34 33 20 16 23 19 12 8 12 17 13 19 18 16 16 18 15 15 11 8 12 5 6 9 10 7 7 8 10 10 9 9 9 10 10 9 12
22 20 18 17 15 15 19 20 21 22 22 21 21 24 26 32 35 35 29 23 14 22 20 18 13 10 7 13 17 15 16 20 16 18 16 9 15 9 8 9 8 9 9 9 9 13 15 16 15 16 18 17 18 19
18 17 15 13 12 13 12 13 12 12 17 24 28 33 35 35 34 29 29 19 13 21 30 22 15 11 10 9 17 16 13 14 8 13 10 15 20 18 18 18 15 12 13 16 18 18 19 17 19 21 22 23 23 23
16 14 13 12 12 12 12 9 8 13 21 34 32 28 26 34 35 23 14 19 13 11 19 22 16 14 11 12 20 12 7 8 6 8 11 8 15 21 21 21 20 19 17 18 17 18 20 18 16 17 17 18 20 20
13 11 12 15 15 14 16 15 19 24 33 25 33 33 33 30 11 7 15 12 10 8 11 21 21 15 16 17 20 20 7 8 5 8 9 6 16 8 10 13 14 15 16 17 17 16 16 16 15 14 14 15 16 17
19 18 15 16 18 20 21 25 29 30 24 27 30 29 26 11 8 11 14 12 11 17 16 19 17 16 6 10 11 12 8 6 4 5 4 7 8 8 9 10 10 11 12 13 13 14 15 16 16 16 16 17 16 15
20 20 18 25 27 26 26 30 30 28 24 28 11 10 6 7 7 12 23 24 15 19 16 14 10 10 8 6 6 5 7 6 4 5 6 8 8 7 6 7 9 9 10 12 13 12 11 10 10 10 10 10 10 10
22 23 30 29 27 24 30 32 28 31 28 10 7 5 9 9 11 16 19 20 20 22 18 15 11 7 13 5 5 5 7 5 6 6 6 6 6 6 7 7 9 10 8 7 7 7 8 9 10 10 10 10 9 9
22 24 23 27 25 20 26 31 27 23 21 14 8 9 13 18 18 21 23 19 21 23 20 17 10 6 7 4 6 5 4 4 4 4 4 4 4 5 7 6 4 4 6 8 9 11 11 12 11 11 11 10 10 9
25 25 25 26 32 34 33 26 11 12 10 10 9 13 16 16 21 24 21 19 18 19 22 11 8 8 6 6 6 6 5 3 4 4 5 5 3 1 1 3 6 8 10 12 13 13 14 14 14 14 13 14 14 14
32 31 28 28 33 34 11 14 14 9 9 12 14 14 15 18 22 21 18 17 16 19 18 11 4 7 4 4 5 5 5 5 4 5 5 4 2 2 4 6 8 10 12 14 14 15 15 15 15 15 15 15 15 16
26 28 25 25 24 10 7 11 16 13 16 16 14 18 19 19 20 18 17 17 19 19 11 6 2 3 3 3 3 7 9 10 9 7 5 4 3 4 6 8 9 11 12 13 13 13 13 14 15 15 16 16 17 18
24 25 22 14 10 5 5 8 13 14 20 20 20 20 19 19 19 20 19 17 16 15 9 5 5 5 6 8 12 12 10 9 7 5 4 3 4 7 10 12 14 15 15 15 15 15 15 15 16 16 17 18 18 18
26 24 18 13 8 6 7 8 11 19 21 21 21 20 19 19 18 19 18 17 15 13 9 7 6 14 15 12 13 11 8 6 5 5 7 9 11 12 13 14 15 16 15 15 16 16 16 16 16 16 17 17 17 17
25 20 16 11 8 8 7 10 16 17 15 21 20 19 19 18 18 16 15 14 12 10 7 12 17 16 15 13 9 8 7 6 7 8 9 11 12 14 15 16 17 17 16 16 16 16 17 17 17 17 16 16 16 15
25 20 14 10 5 4 9 14 17 14 13 17 16 15 15 16 15 15 11 14 11 14 18 18 17 16 13 11 9 8 6 5 6 9 10 12 13 14 15 15 16 16 16 16 17 17 16 16 16 16 16 15 15 14
19 15 9 5 3 3 10 10 13 14 13 16 14 8 12 14 16 17 15 15 16 19 18 18 16 13 12 10 7 4 3 5 7 9 11 13 15 16 17 17 16 15 15 16 16 17 17 16 15 15 14 12 11 11
12 9 5 5 5 6 7 11 13 12 16 14 10 6 11 12 12 12 18 20 20 19 19 15 15 15 12 7 4 1 3 5 8 10 13 14 16 17 18 18 17 16 15 16 16 16 16 16 15 14 13 11 10 10
8 5 7 10 10 8 8 10 11 10 14 12 9 10 13 11 8 7 19 19 19 17 13 14 12 9 7 4 1 2 4 6 9 11 13 14 15 16 16 16 15 15 15 15 14 14 15 15 14 13 13 13 13 13
6 3 10 13 11 10 9 14 13 11 15 9 10 16 11 7 6 11 20 21 20 18 17 16 14 11 8 5 2 3 5 8 11 13 15 16 17 17 16 15 16 16 15 15 14 14 14 14 13 13 13 14 14 15
9 4 11 12 13 12 9 13 14 12 11 7 13 15 10 9 7 12 21 21 20 18 18 16 12 10 8 5 2 4 6 9 12 14 15 16 17 17 17 16 16 16 16 15 14 13 13 13 13 13 13 14 15 15
12 6 11 11 11 12 11 13 12 13 11 11 16 15 12 11 9 15 20 22 21 21 18 13 11 10 7 3 3 5 8 10 13 14 16 17 18 18 18 18 18 17 16 15 14 13 12 12 12 12 12 13 14 14
10 9 7 8 10 11 12 12 13 11 10 10 13 14 13 12 13 16 21 22 22 20 19 17 13 9 6 4 4 7 9 11 13 15 16 17 17 17 17 17 15 15 15 15 14 13 13 13 13 14 15 15 16 17
9 7 7 7 8 10 12 12 12 14 12 13 15 16 14 13 15 18 21 23 23 20 17 15 12 9 5 4 6 9 11 13 14 15 17 17 18 17 17 16 15 14 12 12 12 13 14 15 15 16 16 16 17 18
14 14 13 14 13 12 13 14 14 15 15 14 16 18 17 16 16 15 19 21 21 20 18 14 11 8 5 5 7 10 12 14 16 17 18 18 18 17 16 14 13 13 13 13 14 15 15 15 15 17 17 17 17 17
16 16 16 17 16 14 14 13 13 15 16 16 18 19 18 17 15 14 17 20 22 20 17 13 10 7 6 7 9 11 13 14 16 17 18 18 18 16 14 13 13 13 14 14 14 15 16 16 16 16 16 17 17 17

GFSWCAN_700_spd_096.txt.gz
Wind_Speed
33 32 31 29 28 27 25 23 21 18 16 16 16 16 17 16 15 18 15 14 14 14 9 10 8 8 9 8 7 5 4 3 5 5 5 2 1 1 2 2 3 3 4 4 5 6 8 8 11 8 10 14 15 12
34 33 31 29 29 28 26 23 21 18 17 17 17 17 17 14 15 19 19 14 13 15 10 6 4 6 10 11 7 5 2 2 5 5 7 3 2 2 2 2 4 3 2 9 10 7 15 17 14 8 6 12 12 12
35 33 32 30 29 28 26 24 21 19 19 19 19 19 18 15 16 18 19 18 17 17 11 9 6 12 12 12 12 12 5 4 6 8 10 4 1 3 3 3 8 5 12 9 13 7 12 12 10 9 8 11 14 15
35 33 32 31 30 29 27 24 22 20 20 20 20 19 17 18 19 18 25 16 16 17 16 7 6 5 8 13 15 15 13 10 9 5 10 10 8 5 6 9 14 15 12 8 1 8 9 11 10 10 12 15 19 19
32 31 31 30 30 29 27 25 22 21 21 21 22 16 18 16 17 20 19 16 14 15 6 5 4 6 12 6 12 14 15 14 12 11 11 13 12 8 6 11 11 11 9 8 6 10 9 7 8 7 8 8 10 14
30 30 30 29 29 28 27 24 22 23 23 23 19 21 18 18 18 19 19 21 18 18 19 21 10 7 7 10 9 13 13 12 13 10 13 14 11 10 6 6 11 9 7 4 4 2 4 3 1 1 3 2 3 4
30 29 29 28 28 27 26 24 23 25 26 26 25 22 25 23 22 23 23 17 21 16 21 17 19 17 13 13 10 10 15 16 14 12 14 14 12 6 12 15 15 10 7 5 4 6 5 3 6 8 6 7 9 12
28 28 28 28 27 26 24 23 23 24 26 26 24 24 24 27 26 28 25 21 2 24 20 11 8 8 12 12 11 15 14 14 17 12 16 15 11 9 7 7 9 14 10 9 9 9 10 11 13 13 14 14 14 14
27 27 26 26 24 23 22 22 23 24 25 25 23 23 23 27 32 32 25 26 23 23 13 14 15 12 10 17 15 16 13 15 14 18 20 15 15 10 12 12 11 12 11 11 11 10 11 16 18 19 20 21 21 22
25 24 25 23 21 20 20 19 21 24 24 24 23 26 28 31 30 27 25 24 24 28 27 21 14 17 13 9 12 14 9 10 6 13 16 20 23 21 22 22 19 15 15 15 16 18 20 20 21 22 23 24 23 22
24 24 22 21 19 17 18 15 15 16 21 30 31 27 27 29 28 26 17 20 15 13 20 26 23 14 13 11 9 11 5 6 7 12 10 7 16 20 22 23 21 20 19 19 18 18 19 20 21 20 20 21 22 22
23 23 22 23 21 18 13 17 19 29 32 35 37 28 39 29 15 9 16 15 11 12 9 16 24 21 18 13 12 14 9 8 6 9 10 7 17 14 11 12 13 14 14 14 14 14 14 15 16 16 17 19 20 21
23 21 19 19 22 19 17 18 13 17 32 32 29 38 17 17 9 12 15 18 16 14 21 17 22 24 19 14 9 9 7 5 4 6 5 10 10 10 12 12 11 9 10 10 10 10 11 10 10 10 10 11 11 12
19 20 22 23 24 24 29 22 24 21 29 33 19 14 8 8 11 13 24 27 25 13 14 16 19 17 13 12 7 7 9 5 5 5 7 9 8 7 7 6 7 8 8 9 9 9 9 9 10 10 10 10 10 9
20 18 23 26 30 30 34 24 33 40 29 13 10 10 9 9 16 17 19 21 18 15 19 22 17 12 12 5 6 6 6 5 6 5 6 4 6 5 5 4 4 6 7 8 10 12 13 14 15 16 16 15 15 15
26 27 27 30 32 32 28 32 25 29 16 9 8 11 15 17 15 18 19 23 21 26 25 19 9 6 7 4 6 6 5 5 4 5 3 3 2 2 4 4 4 6 8 10 12 14 15 16 17 17 17 17 17 17
33 32 25 28 35 32 27 26 27 23 8 5 7 12 16 17 20 22 25 25 29 29 24 9 8 6 5 6 6 6 5 5 3 0 1 1 1 3 3 4 6 9 11 13 15 16 18 19 19 19 19 19 18 18
27 34 32 28 29 30 25 24 20 9 9 8 11 14 15 17 24 24 22 23 26 25 22 8 5 10 4 4 7 7 6 3 2 3 5 6 4 4 5 6 8 11 14 15 17 17 18 18 18 18 18 19 19 19
25 28 34 34 29 28 20 17 14 12 11 13 10 14 17 20 25 24 22 22 22 21 16 8 4 6 6 3 3 5 6 10 8 7 4 3 3 4 5 7 9 11 14 15 16 17 18 18 19 19 19 20 20 20
21 24 29 27 25 12 10 13 21 11 13 13 11 15 17 20 21 21 19 19 18 21 11 7 5 2 2 4 11 14 12 9 8 5 3 1 2 4 7 9 12 14 15 17 17 17 17 18 18 18 19 20 20 20
26 21 21 17 10 8 7 12 14 14 18 17 17 19 19 19 18 19 18 19 19 18 12 8 7 7 10 15 14 12 10 7 4 3 2 3 6 8 11 13 15 16 17 18 18 18 18 19 19 19 19 19 19 19
22 18 16 12 9 8 7 12 14 18 18 21 21 20 19 18 18 19 17 16 15 14 9 6 10 15 16 14 13 11 7 6 5 4 5 7 9 11 14 16 17 18 18 17 16 16 17 18 19 19 19 19 18 18
18 15 10 7 7 7 15 20 16 15 14 19 19 16 16 16 16 16 12 15 14 13 10 15 18 17 16 14 10 8 8 5 4 5 7 9 11 13 15 17 18 18 18 17 17 17 17 18 18 18 17 16 16 16
16 11 6 3 4 6 15 11 11 13 13 17 15 10 14 15 16 15 14 13 14 13 17 18 16 15 14 12 10 9 5 3 3 5 8 10 12 14 16 17 18 18 17 17 18 18 18 18 17 17 16 15 14 14
10 6 3 3 4 7 7 10 11 9 14 16 13 8 10 14 16 14 14 13 14 19 19 19 19 17 15 13 10 6 3 1 4 7 10 12 13 15 16 18 18 18 18 18 18 19 19 18 17 16 15 14 13 13
6 3 4 6 6 6 7 9 9 8 13 12 8 6 12 11 10 7 19 17 18 18 17 17 17 14 12 11 8 5 1 3 5 8 11 12 14 16 18 18 19 19 18 18 18 18 18 17 16 16 15 15 14 15
5 1 7 7 7 5 6 9 10 10 11 5 6 12 8 5 4 8 17 21 21 20 19 20 19 17 15 12 8 4 2 4 7 9 11 13 15 17 18 18 19 19 18 18 17 17 17 16 16 16 16 16 15 16
7 2 6 8 8 7 5 9 10 8 9 6 9 11 7 6 5 12 20 22 23 23 22 21 18 15 13 10 7 4 4 6 8 10 13 15 16 18 18 20 19 19 18 18 17 17 16 15 15 15 15 15 16 16
7 4 6 9 9 9 7 9 10 10 8 9 11 13 11 11 7 11 22 25 23 23 21 17 15 14 12 9 7 5 5 7 10 12 15 16 18 19 21 21 20 19 19 18 16 15 14 14 14 15 15 16 17 17
9 6 6 8 8 8 9 10 10 11 9 9 10 13 14 13 11 14 22 25 24 23 22 21 20 16 13 10 7 5 6 8 11 14 16 18 20 21 21 21 20 19 18 16 15 14 14 14 15 16 16 16 17 17
9 10 7 6 6 7 9 10 11 10 12 10 11 14 13 12 13 17 22 25 26 26 22 19 16 15 13 9 6 6 7 10 13 15 17 19 20 21 21 20 18 17 16 15 15 15 16 16 16 17 17 18 18 18
11 9 9 9 9 8 9 11 12 13 13 14 13 14 15 14 12 14 20 23 24 24 22 21 18 16 13 9 7 7 9 12 14 16 18 19 20 20 20 18 16 15 14 15 15 15 15 16 16 16 16 17 18 18
15 15 14 14 15 14 13 11 12 13 15 15 15 14 15 15 14 14 14 16 20 22 21 18 15 13 11 9 7 8 11 14 15 17 19 20 20 18 17 15 14 14 14 14 15 15 16 16 16 17 18 20 20 20

GFSWCAN_700_spd_099.txt.gz
Wind_Speed
32 31 31 30 29 28 27 24 23 22 19 17 16 17 17 16 13 16 13 11 10 9 6 9 7 5 5 5 3 5 6 7 3 7 5 4 4 4 3 3 4 4 4 3 2 2 3 3 15 12 9 9 12 13
31 32 31 30 30 29 27 26 24 22 20 18 18 18 18 19 15 16 15 10 11 11 6 6 4 9 9 9 6 2 2 6 6 5 6 4 3 3 4 3 3 1 3 4 2 4 16 22 20 10 8 7 10 11
32 32 32 31 29 29 29 27 25 23 20 19 18 20 19 19 16 16 15 13 12 12 9 7 2 4 7 6 9 8 4 2 6 10 8 8 4 5 4 3 3 3 5 7 6 3 5 7 7 8 7 10 9 7
25 30 31 30 29 30 29 27 26 24 22 20 21 21 20 19 16 17 19 13 13 12 12 7 5 8 8 6 7 9 10 6 4 5 6 8 7 4 3 5 8 9 8 6 3 4 4 6 8 8 7 7 11 14
25 26 28 29 28 28 27 28 27 25 23 20 22 22 21 16 17 17 16 15 14 11 5 3 4 4 6 8 5 8 10 10 8 7 6 6 7 8 5 7 4 10 7 5 5 6 4 5 5 5 5 8 11 10
29 27 25 27 27 27 26 27 28 26 22 21 24 25 19 20 17 16 16 17 14 12 13 13 10 8 8 8 6 7 10 9 10 9 9 8 7 10 3 6 7 12 7 4 2 1 2 2 0 2 4 6 8 10
31 29 25 27 27 27 27 26 28 26 22 24 25 27 20 22 19 20 18 14 13 14 18 10 13 15 15 11 8 6 10 13 12 10 11 10 10 9 9 14 13 9 9 7 5 4 6 6 8 9 9 10 12 15
31 29 28 27 26 27 27 26 27 26 23 26 28 27 26 22 21 21 22 16 4 17 19 8 7 8 7 7 9 12 12 10 14 14 12 11 12 10 7 8 7 10 10 11 11 10 11 11 11 14 16 16 16 18
28 27 26 26 25 26 28 28 26 22 24 30 32 27 24 28 26 25 19 19 18 15 9 11 11 9 10 11 13 12 11 13 14 14 18 13 15 9 8 10 9 11 10 9 10 11 9 11 15 19 21 22 22 22
26 26 26 25 26 27 28 26 24 24 25 26 25 25 27 30 29 24 21 20 20 23 22 22 13 16 11 8 10 10 7 8 7 9 11 19 26 24 22 20 19 19 19 17 16 17 18 19 20 20 20 21 21 22
25 25 25 26 27 26 25 25 25 24 21 24 27 28 26 19 20 22 14 17 16 17 20 27 25 16 10 12 7 7 4 5 5 7 7 6 14 17 17 20 21 20 20 19 18 18 18 18 20 19 19 19 19 20
26 26 27 27 26 27 28 27 25 25 25 27 31 27 25 25 12 14 17 14 12 21 12 17 24 22 14 11 10 7 7 5 5 5 7 6 15 16 16 15 15 15 13 13 13 14 14 15 16 17 18 18 18 18
27 28 28 29 31 30 24 27 26 32 27 29 27 29 16 16 11 14 18 21 24 20 27 16 15 23 21 17 10 8 7 7 4 7 5 8 10 9 10 12 10 10 9 9 9 11 12 12 10 10 11 12 14 15
28 29 30 32 26 22 24 19 24 33 31 32 17 17 11 10 11 13 27 30 31 22 15 18 16 22 20 14 10 5 7 4 5 6 6 8 9 7 5 4 4 5 5 6 6 5 6 8 9 10 11 12 13 14
28 26 24 27 31 31 26 25 24 32 33 10 14 9 10 16 13 17 18 23 26 20 14 15 19 16 18 10 8 7 5 6 5 5 6 5 3 3 2 2 2 3 2 1 3 6 8 10 13 14 15 15 15 15
26 28 29 29 31 32 30 33 35 33 27 14 9 13 19 20 15 15 20 23 22 21 17 21 19 7 8 5 7 7 5 5 4 4 2 1 1 1 1 3 3 2 3 6 8 11 13 15 16 17 18 17 17 17
29 34 32 34 35 31 34 36 39 13 9 14 16 13 16 18 19 23 24 24 22 23 27 15 8 7 6 6 6 7 6 5 4 3 3 3 5 7 6 4 5 6 8 11 14 16 17 19 19 19 19 19 18 18
33 39 35 37 32 27 32 30 23 7 4 10 15 16 17 17 21 24 27 25 28 30 27 9 7 10 5 5 10 11 8 6 5 6 9 9 7 5 4 5 8 10 12 13 15 16 17 18 18 18 19 19 20 20
34 33 38 31 30 32 26 22 16 9 9 7 10 17 16 17 19 19 23 26 30 30 22 7 3 6 10 6 5 6 8 9 11 10 7 5 4 4 5 6 8 10 12 13 15 16 17 17 17 18 18 19 19 20
32 34 38 32 28 24 14 15 16 9 14 13 11 15 16 21 22 20 19 20 24 21 19 10 8 4 7 7 8 14 15 13 10 6 5 3 1 1 3 6 9 12 14 16 17 18 18 18 17 18 19 19 19 19
29 32 31 25 26 20 12 13 14 9 12 15 13 16 19 23 23 22 20 19 21 22 21 13 8 5 5 12 17 15 12 9 7 5 2 3 1 4 8 10 13 15 17 18 19 18 18 17 18 18 19 19 19 18
28 28 21 20 13 12 10 15 17 15 13 16 17 18 20 20 21 20 19 21 19 20 18 11 9 9 12 15 14 13 10 6 4 5 4 2 5 8 10 12 15 17 18 19 19 18 18 18 18 19 19 19 18 17
23 19 15 11 7 6 15 17 18 16 11 18 18 18 18 19 18 18 15 17 16 17 14 9 12 17 17 14 12 10 7 5 6 3 2 4 7 9 11 14 16 18 19 19 19 18 18 18 18 18 18 18 17 15
14 10 7 4 5 10 17 13 15 14 16 20 17 11 18 18 18 18 15 13 16 13 11 13 17 17 17 15 13 10 7 6 4 1 3 6 8 11 13 15 17 19 20 20 19 19 19 18 18 18 17 17 16 15
8 6 5 7 8 10 9 12 14 12 20 18 17 9 14 14 16 14 13 12 15 15 16 19 19 18 15 13 11 9 7 5 3 2 5 8 10 12 15 17 18 19 20 20 20 20 20 19 18 18 17 16 15 15
3 2 3 5 9 8 9 12 10 9 15 14 12 7 11 15 12 6 15 14 14 17 19 18 17 16 16 15 13 10 7 5 3 4 7 9 12 14 16 18 19 21 22 21 20 20 19 19 18 17 16 16 15 15
2 2 5 7 7 8 9 9 10 13 12 6 9 12 10 7 9 10 16 18 17 21 21 20 19 19 16 13 12 10 7 4 3 5 8 11 13 16 17 19 21 22 22 21 20 19 19 18 17 16 16 15 15 15
4 2 5 6 7 7 8 11 11 10 8 6 10 10 6 4 4 12 19 22 23 24 22 21 20 19 17 14 12 9 6 4 5 7 9 12 14 17 18 21 22 23 22 21 20 18 17 16 16 15 15 16 16 17
3 4 3 7 7 7 6 9 7 6 6 6 9 8 6 4 2 8 17 22 24 24 22 19 16 16 14 13 11 8 6 5 6 8 11 13 16 18 20 22 22 22 21 19 18 17 16 16 16 16 17 17 17 17
5 4 4 7 6 6 5 5 5 7 6 6 6 7 8 9 9 8 11 22 23 23 22 21 20 18 16 14 11 9 8 7 7 10 12 15 17 20 22 23 22 21 19 17 16 16 16 16 16 16 16 17 17 17
7 8 5 6 5 5 4 6 7 7 7 8 7 8 9 10 12 11 13 21 26 25 22 20 17 15 15 13 12 10 9 8 9 12 14 17 19 21 22 22 21 19 17 16 16 16 16 16 16 16 16 17 17 18
8 9 8 5 4 2 3 4 6 8 9 9 10 10 9 9 9 9 13 18 23 23 22 20 18 16 16 15 13 11 10 9 10 14 16 18 20 21 21 20 18 16 16 16 16 16 16 16 16 17 17 19 20 20
15 12 10 9 9 8 7 7 8 9 11 12 12 11 11 11 10 11 11 13 17 19 19 17 16 15 14 13 12 10 9 10 13 16 17 19 20 20 19 17 16 15 15 16 16 16 16 17 18 19 20 22 23 23

GFSWCAN_700_spd_102.txt.gz
Wind_Speed
29 27 27 27 27 27 26 25 24 22 21 20 19 16 16 16 14 13 10 8 6 5 5 6 2 1 4 6 5 4 4 6 3 6 4 4 3 4 2 3 2 2 2 3 3 1 1 4 15 7 3 7 10 11
29 30 29 28 28 27 26 26 24 23 22 22 20 18 18 19 16 12 10 9 8 7 4 5 5 6 5 6 7 2 1 5 5 5 3 4 2 2 3 2 4 2 5 2 2 1 8 17 11 5 6 6 6 7
27 29 30 29 29 28 29 27 24 24 24 23 21 19 19 19 19 16 13 10 9 8 3 6 4 3 4 4 7 7 5 4 6 7 5 3 2 2 2 1 3 4 3 0 3 4 7 6 4 4 6 5 8 8
26 25 26 29 28 27 27 27 25 25 24 24 22 20 20 20 20 16 14 10 10 12 7 4 4 5 6 4 2 8 9 6 4 1 3 4 2 3 1 3 3 3 6 2 4 7 7 6 6 7 7 7 8 9
28 25 24 25 27 26 26 26 25 25 25 25 22 21 22 21 21 15 12 13 11 13 5 2 7 3 3 3 2 5 9 10 8 5 4 3 4 6 5 4 1 5 7 2 6 7 8 6 5 4 4 6 8 8
34 28 25 23 24 27 26 25 25 25 25 24 21 21 22 23 19 16 16 18 14 13 18 12 10 12 8 7 5 4 7 8 9 7 7 6 6 6 3 4 4 7 7 4 2 3 4 3 2 1 5 7 7 10
38 31 27 22 21 24 25 25 25 25 26 24 22 25 26 24 21 22 14 14 15 14 13 7 10 14 15 12 8 7 4 7 8 10 12 9 9 8 8 8 10 10 8 6 6 5 6 7 8 9 9 11 12 14
36 32 30 26 24 24 25 25 25 27 26 24 25 27 27 19 20 20 17 13 9 12 15 8 7 6 7 5 6 8 9 7 9 12 13 10 12 10 8 6 6 6 8 9 9 9 10 10 10 10 13 16 18 18
33 38 34 29 26 24 24 25 26 29 25 22 28 32 29 20 24 23 18 18 14 9 10 12 11 7 6 9 8 7 8 9 13 14 13 11 14 9 9 6 6 8 10 10 10 10 8 9 12 16 18 20 21 20
33 28 35 28 26 25 24 26 27 29 27 26 26 26 26 21 25 21 18 15 18 20 20 20 15 15 9 5 8 8 6 7 6 9 9 13 17 21 20 19 19 19 18 16 15 15 16 15 15 15 16 17 18 18
32 32 30 29 24 26 26 29 28 29 29 36 28 23 19 16 23 20 13 12 12 15 21 26 23 19 12 9 9 7 5 5 3 6 6 5 10 13 16 18 19 19 18 17 16 16 15 14 13 14 14 15 16 17
31 31 27 26 28 27 28 30 31 35 36 34 24 26 22 22 10 11 14 12 12 17 19 14 20 25 19 10 9 6 6 4 4 6 4 5 12 12 11 11 13 13 12 12 11 13 13 13 13 14 15 15 15 16
32 28 27 28 28 30 32 34 35 33 29 25 20 27 17 14 13 14 18 21 21 20 22 23 16 20 20 15 8 5 6 6 4 5 5 10 9 6 6 7 7 8 8 7 8 8 9 10 9 10 12 15 17 18
28 27 29 30 32 34 34 36 37 26 26 22 18 25 18 10 16 18 33 35 33 28 18 12 14 17 20 14 8 4 6 5 5 5 7 8 7 7 6 5 5 5 5 5 6 6 6 8 11 13 15 16 18 19
29 30 30 33 34 37 37 30 22 31 31 13 11 12 24 14 22 23 19 25 25 23 17 18 20 15 18 7 8 7 5 5 6 6 6 5 5 6 6 5 4 3 3 2 4 6 8 10 13 15 17 18 19 20
28 31 33 34 38 33 26 30 33 42 41 17 11 17 21 19 20 21 13 16 22 24 21 18 18 8 9 7 8 8 5 6 5 5 3 3 4 4 3 3 3 2 1 4 7 10 12 15 18 20 21 21 21 21
27 30 37 33 27 29 33 30 30 36 20 13 11 24 27 25 20 15 22 22 24 26 23 16 9 9 8 8 8 9 11 7 4 4 3 4 7 8 7 5 3 1 3 7 10 13 15 17 19 19 18 18 18 18
23 27 36 36 35 31 27 38 27 9 12 17 14 20 25 23 26 24 23 26 27 26 23 15 9 12 6 7 10 11 9 8 7 5 9 10 9 7 5 2 1 4 6 9 11 14 15 16 16 16 16 17 17 18
35 35 38 36 37 38 38 30 16 13 22 25 20 18 18 17 19 21 26 26 26 27 19 13 7 11 10 7 5 6 10 10 8 12 11 9 6 4 1 2 4 6 8 10 13 15 17 18 19 19 18 19 19 19
37 35 35 32 40 25 20 13 9 9 11 15 17 18 16 17 18 21 23 25 25 30 19 12 7 4 8 9 7 8 11 14 13 10 8 6 3 2 4 4 5 9 11 14 17 19 20 20 20 19 19 19 20 20
37 34 28 24 28 16 8 19 13 9 14 16 16 16 16 18 18 21 23 25 28 31 29 20 11 6 4 7 9 16 18 16 14 12 7 3 4 3 2 6 9 11 13 16 18 19 20 20 20 20 19 19 19 18
33 30 30 26 21 16 9 17 14 15 17 15 15 16 21 22 21 21 19 21 26 27 23 19 15 11 8 10 17 18 15 12 9 6 3 4 2 2 5 8 11 13 15 17 19 20 21 21 21 20 20 19 18 17
29 25 21 14 17 14 13 17 19 16 11 18 17 17 21 23 22 21 18 19 20 19 20 20 17 14 14 17 18 16 13 11 7 4 4 3 2 5 8 10 13 15 17 19 20 22 21 21 20 20 20 19 18 17
20 17 12 7 8 8 19 18 19 17 14 21 19 15 20 21 20 20 19 17 19 19 20 19 16 16 21 20 17 14 11 8 6 4 3 3 4 7 10 12 14 17 18 20 22 23 22 21 20 20 19 18 17 16
8 6 6 8 11 13 14 17 19 15 21 20 20 12 17 18 19 19 19 17 19 20 18 17 18 21 19 18 16 13 11 8 6 4 3 4 7 9 11 13 16 18 20 22 23 23 22 21 20 19 18 17 16 16
3 3 5 8 14 12 14 15 12 17 21 19 13 10 18 17 14 8 20 19 18 19 18 18 21 22 21 19 15 14 11 9 7 5 4 6 8 10 13 15 17 20 22 23 23 23 21 20 19 18 17 16 16 16
4 5 9 10 10 14 14 11 12 18 17 9 14 13 13 8 12 12 14 20 20 21 21 23 23 21 18 15 14 14 12 10 8 6 6 7 9 12 14 17 19 21 23 23 23 21 20 18 17 16 16 16 16 16
4 7 8 10 10 11 13 15 15 14 10 10 13 12 8 7 8 13 18 22 22 22 25 26 26 24 22 20 17 15 14 12 10 8 7 9 11 13 16 18 21 22 23 23 22 19 17 16 16 16 16 17 17 17
5 6 8 9 9 11 12 10 8 8 10 11 13 10 7 5 2 10 18 25 24 23 25 24 21 19 17 16 15 15 14 13 11 9 9 10 12 15 18 20 21 23 23 21 19 17 16 16 17 17 17 17 17 17
5 6 6 9 9 7 7 7 8 8 8 8 8 8 7 6 4 5 10 19 23 24 24 23 22 20 18 17 17 17 15 14 12 11 11 12 14 17 19 21 22 22 21 19 17 16 16 16 16 16 16 16 17 18
6 7 6 8 7 7 6 7 7 7 8 8 7 7 7 7 7 8 9 15 21 24 25 24 22 20 18 18 17 17 16 14 12 11 11 13 16 18 20 21 21 20 18 17 16 16 17 17 16 17 17 18 19 20
8 9 7 7 6 6 5 5 6 8 9 8 8 9 8 7 6 7 11 16 21 24 24 23 21 18 17 17 17 16 15 13 11 11 12 15 18 19 20 20 20 18 17 16 17 17 17 17 17 18 19 20 21 23
12 10 10 8 6 6 5 5 5 6 8 10 11 10 11 11 10 10 11 14 17 20 22 20 18 18 17 17 16 14 13 11 11 11 14 16 18 19 19 19 18 17 16 16 17 17 17 18 19 20 22 23 25 26

GFSWCAN_700_spd_105.txt.gz
Wind_Speed
31 27 25 26 27 28 28 27 26 24 23 22 21 19 16 15 15 13 13 11 9 8 5 5 4 2 4 4 6 12 5 7 5 7 5 5 5 5 4 6 6 6 6 7 2 1 3 1 10 4 3 5 6 7
33 27 26 25 26 28 27 28 26 25 24 22 21 20 18 17 15 15 15 13 11 7 3 4 5 5 6 6 7 2 3 5 5 6 5 3 3 3 4 2 8 4 6 4 5 2 5 9 8 6 4 4 5 6
24 32 29 25 25 26 27 27 26 25 24 23 22 21 19 18 18 16 15 14 8 4 2 3 4 3 3 4 4 2 3 2 3 3 4 2 3 4 4 4 4 6 5 2 4 3 4 6 5 4 5 5 6 8
26 25 27 29 28 27 27 26 27 25 24 23 22 22 19 19 19 18 17 14 10 8 5 3 4 2 5 4 3 7 10 8 5 2 3 2 3 5 4 5 4 3 4 2 5 6 6 6 5 5 7 6 6 8
31 30 26 24 26 26 26 27 27 26 25 24 23 23 20 19 20 18 12 15 11 8 3 1 4 6 1 3 0 3 7 8 7 5 5 4 4 5 4 5 5 3 4 1 7 8 8 8 6 5 4 5 7 7
33 30 28 25 23 24 24 24 25 25 24 22 23 22 21 21 22 19 14 15 13 14 17 10 7 10 9 8 8 6 3 6 8 8 8 8 7 4 4 5 7 5 6 5 4 5 5 5 3 3 6 7 7 9
37 33 30 25 24 21 24 24 24 24 24 24 23 21 20 20 22 22 13 13 14 10 13 10 9 11 13 13 12 8 4 4 5 8 10 9 11 10 9 8 10 8 5 5 6 6 5 7 8 9 9 8 10 12
43 36 32 27 23 20 20 23 25 24 24 24 24 22 26 30 23 22 18 9 10 13 13 8 8 8 5 6 7 6 7 6 7 9 12 10 11 12 7 9 6 4 4 4 6 7 8 8 8 9 12 14 14 14
41 42 37 29 24 20 19 21 25 25 26 26 24 27 30 30 25 21 17 16 13 13 8 10 10 6 4 8 7 5 6 7 9 13 13 7 9 8 13 11 8 5 6 10 11 11 11 12 13 13 15 15 15 16
31 33 41 34 27 23 20 22 23 26 28 29 26 29 22 31 15 21 20 18 17 17 17 13 12 12 6 5 4 4 4 6 7 9 8 13 15 21 20 20 16 16 16 16 15 14 14 13 13 13 14 14 14 15
26 32 34 34 31 26 22 24 24 28 32 32 31 20 18 25 16 20 14 15 15 13 18 22 19 15 9 7 6 5 5 4 3 5 4 5 8 13 15 19 19 18 16 15 14 13 12 12 12 12 12 13 13 13
26 29 33 38 30 27 25 23 27 31 35 35 26 18 19 24 11 12 12 11 9 13 18 13 16 19 19 14 7 4 5 4 5 6 4 5 13 9 10 9 10 11 12 11 10 9 9 9 10 10 10 10 12 14
27 33 31 37 30 27 26 26 30 27 37 24 27 29 16 17 12 13 16 17 15 21 20 14 19 17 17 14 8 4 5 6 5 5 4 11 9 8 5 7 7 7 7 7 7 8 8 9 9 10 13 16 18 20
30 34 32 33 30 28 26 30 31 38 28 30 16 18 12 12 17 16 20 21 24 24 18 8 15 14 14 14 8 5 6 5 4 5 8 12 8 7 5 4 3 3 3 4 5 5 6 8 11 14 17 19 21 22
33 34 31 31 28 27 29 28 30 37 36 18 13 12 26 15 14 24 22 16 17 17 17 15 13 14 15 7 7 6 4 5 5 7 10 7 5 3 3 3 2 2 3 2 4 7 10 12 14 17 19 22 24 25
33 30 30 30 29 28 30 30 29 34 35 17 9 13 25 32 22 14 22 21 16 17 18 16 14 8 9 7 8 9 5 6 6 6 6 5 3 3 3 3 3 2 2 4 7 9 12 15 18 21 23 24 25 25
29 26 32 31 31 31 30 36 35 32 20 12 10 15 22 30 31 15 17 18 16 21 23 15 11 9 7 8 9 11 15 10 7 7 5 5 6 7 7 5 2 2 5 8 10 12 15 17 19 21 21 22 22 21
31 31 32 35 36 36 34 36 25 18 21 18 12 16 19 19 26 23 22 18 20 23 22 16 11 13 7 7 10 19 13 14 12 8 6 8 8 7 5 2 2 5 8 11 12 14 15 17 19 20 22 22 23 22
35 37 36 37 41 42 35 30 29 20 17 28 24 19 27 27 23 19 19 19 26 28 25 17 8 12 15 8 8 9 12 12 10 10 11 10 8 6 3 3 6 9 9 11 13 15 17 19 21 23 24 23 23 23
34 38 37 32 34 38 14 27 21 16 20 21 23 18 19 23 21 21 21 21 23 27 21 17 12 7 10 16 14 10 9 12 13 13 11 10 7 4 4 7 8 8 10 13 15 17 19 21 22 23 23 23 23 23
39 38 40 32 38 23 9 21 12 13 20 23 23 17 18 17 17 19 23 24 27 32 24 18 15 9 6 8 11 11 13 15 16 14 11 7 4 4 7 7 7 10 12 15 17 19 21 24 26 26 25 24 23 23
38 43 37 18 13 14 10 12 10 13 15 19 19 18 18 17 17 18 20 25 27 30 31 24 19 12 11 9 8 12 15 15 13 11 8 6 4 6 6 7 9 12 14 17 19 21 24 26 26 26 25 24 23 23
31 28 27 28 15 8 12 17 14 16 13 16 15 15 18 20 19 20 19 25 28 27 27 27 24 19 15 11 9 15 16 15 13 10 8 6 6 6 7 9 11 13 16 18 21 23 26 27 26 26 24 23 23 22
27 28 24 16 13 11 14 19 19 16 17 19 18 14 20 23 22 22 22 21 20 21 22 23 23 20 18 14 15 18 17 15 13 11 9 8 7 6 7 9 12 15 17 20 23 25 27 27 26 25 23 23 21 20
20 14 7 10 12 15 17 22 23 22 16 23 20 14 17 22 24 24 24 22 19 20 21 20 20 20 18 18 20 19 19 17 15 12 10 10 8 8 9 11 13 16 19 22 24 27 27 27 25 23 22 21 20 19
4 5 8 10 14 16 15 18 20 21 17 20 20 11 18 19 17 10 23 20 19 18 20 19 20 19 20 22 21 20 19 17 15 13 12 11 10 9 10 12 15 18 20 23 26 27 27 25 23 21 20 19 19 19
3 3 10 14 13 15 17 17 16 19 20 11 17 14 15 8 12 14 13 18 21 20 21 22 20 20 22 23 22 21 21 19 16 14 13 13 12 11 12 14 17 19 22 25 26 26 25 23 21 20 19 19 19 20
6 9 10 12 15 17 16 17 19 19 13 10 17 14 10 9 10 12 17 17 24 25 24 25 25 25 25 25 24 22 21 20 19 17 16 14 13 13 13 15 18 21 24 25 26 24 22 21 20 19 19 19 19 20
7 11 10 10 12 13 14 13 9 12 12 12 17 14 11 10 10 11 16 19 21 23 24 25 24 25 26 25 24 22 21 21 19 18 17 15 14 14 15 17 20 23 24 25 24 22 20 20 19 19 19 19 19 19
7 7 9 9 9 8 10 10 9 10 11 11 13 11 9 8 5 4 10 17 21 24 23 23 24 24 23 21 20 20 20 20 20 19 17 15 14 15 16 18 21 23 24 23 22 21 20 19 19 19 19 19 20 21
6 6 6 8 8 7 8 8 9 9 9 10 10 9 10 10 8 7 7 9 15 21 23 24 25 25 24 23 22 22 21 21 20 18 17 15 14 15 17 20 22 23 23 22 21 20 20 20 20 20 20 21 22 23
8 8 6 7 8 8 7 8 8 9 9 10 10 10 10 9 9 8 11 14 18 23 25 25 25 24 22 20 19 20 20 19 18 17 15 14 14 17 18 21 22 22 21 21 20 20 20 20 20 21 22 23 24 26
10 9 10 8 8 8 7 6 6 6 8 10 12 12 12 12 12 11 11 13 15 19 21 21 22 21 20 20 19 18 17 17 16 14 14 14 16 18 20 21 21 21 20 20 20 20 20 21 22 23 24 26 28 29

GFSWCAN_700_spd_108.txt.gz
Wind_Speed
30 27 21 18 19 23 25 25 25 25 24 23 21 19 17 15 12 12 12 13 12 10 9 7 5 4 1 4 8 12 6 10 7 10 6 6 6 7 7 10 10 8 10 9 10 7 4 10 5 4 7 5 5 6
36 29 25 20 20 22 25 27 27 26 24 23 21 20 17 15 14 14 10 16 13 8 4 3 4 5 6 7 9 2 5 8 8 5 6 4 6 8 11 3 11 8 9 4 6 4 7 9 10 10 5 4 4 7
30 27 25 24 23 22 24 25 25 25 24 23 21 19 17 17 15 16 15 14 11 8 4 3 5 3 4 6 6 4 4 2 1 6 7 4 4 9 8 8 5 6 8 5 5 6 6 7 6 5 4 4 5 7
28 29 28 26 23 22 22 24 24 25 23 22 20 19 18 17 16 16 16 15 13 9 3 1 3 3 5 7 3 2 8 7 5 3 6 3 4 7 6 5 7 7 7 4 4 4 7 5 7 5 4 4 5 7
28 27 29 30 25 21 20 22 24 24 23 21 20 19 19 18 17 17 15 15 13 9 5 4 1 5 3 5 4 6 5 7 8 4 6 5 6 5 5 4 4 4 7 5 5 9 8 7 6 5 4 6 6 6
31 28 24 24 25 25 24 22 23 22 22 21 19 20 19 18 17 18 12 16 15 11 7 5 2 4 6 9 10 10 7 3 3 5 9 7 6 7 6 6 5 3 6 5 4 5 6 4 3 4 5 8 7 8
33 29 28 24 22 21 20 22 21 23 22 21 20 20 20 19 22 21 13 13 15 12 10 5 6 6 8 12 12 11 6 5 4 6 7 7 8 9 9 7 10 9 6 4 5 6 5 5 6 7 9 8 9 12
34 32 30 26 24 21 18 20 20 21 21 21 22 21 19 18 18 21 14 9 12 15 10 5 6 8 5 6 6 6 6 5 5 5 7 8 10 11 7 11 6 5 3 1 4 6 6 6 6 7 9 11 13 14
36 33 31 28 24 21 18 20 22 22 21 22 23 22 22 24 19 16 18 11 10 14 7 8 10 7 4 5 5 5 5 7 6 9 9 6 8 8 10 12 9 8 6 5 9 10 9 11 11 11 12 13 13 13
35 37 33 29 24 21 17 15 21 23 24 25 25 27 28 26 21 16 14 20 16 18 18 16 8 9 7 5 2 3 4 4 5 8 5 9 12 17 15 20 20 15 13 15 16 13 11 11 11 11 12 12 12 14
28 33 39 33 27 23 20 17 20 24 26 29 30 29 20 24 24 17 14 14 12 11 14 16 16 9 9 5 4 3 3 3 3 5 4 4 7 11 13 18 19 18 17 17 15 13 13 12 11 11 12 13 13 13
26 29 37 36 29 26 21 18 20 24 27 28 29 22 18 19 12 9 12 11 7 13 14 7 13 15 12 10 7 4 4 4 5 5 5 4 10 10 11 13 12 12 12 11 11 10 9 9 10 9 9 10 13 15
22 25 31 36 35 29 24 20 21 20 24 30 25 26 20 14 12 12 14 13 18 17 15 9 13 15 14 11 8 5 4 5 5 4 4 10 9 10 9 6 6 6 6 5 5 6 6 7 8 11 13 15 18 20
22 25 32 34 33 30 23 20 25 22 35 26 13 14 15 13 13 11 16 22 22 19 13 12 11 11 14 9 7 4 5 5 4 4 7 10 11 8 5 4 4 3 2 2 3 4 5 8 10 13 16 18 20 22
24 29 30 35 30 26 21 22 29 35 28 22 12 6 18 13 18 21 14 14 15 17 15 14 12 11 10 6 7 6 4 5 5 7 9 8 7 5 4 3 3 2 1 0 3 6 9 12 14 16 18 21 24 26
26 34 33 36 31 25 22 33 31 39 18 20 18 7 11 19 10 17 22 19 15 9 10 14 10 6 8 6 8 8 5 6 7 9 8 7 5 3 4 4 4 3 1 3 6 10 13 15 18 20 21 22 23 24
32 34 36 34 28 25 29 30 41 33 21 22 22 19 10 17 25 16 7 15 19 15 17 13 9 8 7 7 9 9 15 18 11 8 9 6 5 5 5 4 3 0 3 7 11 14 15 17 18 20 20 23 25 26
32 33 35 33 31 28 33 30 31 26 27 33 21 17 12 16 22 25 20 11 15 18 19 16 10 13 7 8 10 15 19 12 10 13 11 6 6 6 6 4 1 3 7 11 12 14 16 18 21 22 25 27 29 29
29 31 34 32 29 31 32 28 29 7 23 33 31 20 12 15 16 19 25 18 17 22 22 18 9 13 15 15 10 7 10 12 13 11 11 9 9 8 5 2 4 7 10 11 13 15 17 20 22 25 28 31 31 30
26 30 33 32 33 28 19 14 31 16 13 18 22 28 28 16 16 14 18 19 21 26 22 21 22 10 11 14 17 15 14 12 11 12 11 12 10 7 4 4 7 10 10 12 15 18 20 22 23 25 28 30 29 27
30 28 32 33 30 26 14 21 23 19 23 17 16 20 21 17 18 19 19 19 23 29 28 26 22 19 11 8 10 12 13 11 11 12 11 10 8 6 6 6 8 10 11 13 16 17 20 23 26 29 31 30 29 27
33 34 32 30 26 35 18 17 22 22 23 24 24 22 19 17 18 19 19 20 22 29 31 27 22 21 15 9 9 10 12 13 14 15 13 11 9 8 7 8 9 10 12 14 17 20 22 25 28 30 31 31 28 26
39 36 33 37 28 17 11 21 20 18 11 21 23 18 18 18 19 17 18 25 30 27 28 29 27 24 18 14 13 12 11 13 14 14 13 12 10 10 10 10 10 11 12 15 18 21 23 27 28 31 31 28 26 25
40 31 18 11 10 8 15 15 14 13 12 20 19 14 13 18 18 19 20 24 21 24 25 25 28 28 24 21 17 13 13 15 16 16 14 13 13 12 13 12 12 12 14 16 19 22 25 27 29 30 29 26 24 23
27 16 7 10 13 11 15 21 19 17 15 21 18 14 10 14 19 21 22 23 19 18 19 21 22 22 22 22 19 17 16 18 18 17 16 16 15 15 15 14 14 14 16 18 21 24 26 28 30 29 27 25 23 22
9 9 12 12 16 13 16 19 22 20 17 17 16 16 13 17 19 9 26 22 21 19 18 18 21 22 22 22 20 19 21 22 21 20 18 17 18 17 17 16 15 16 18 20 23 26 28 29 29 27 26 24 22 22
10 9 16 18 17 17 18 20 20 21 19 14 17 18 12 8 12 16 18 17 19 23 21 20 22 23 22 21 21 22 22 22 22 20 19 19 20 19 19 18 18 18 19 21 24 26 28 28 28 26 25 24 24 23
7 8 14 16 15 17 18 19 17 17 18 14 17 16 11 11 11 10 15 17 15 21 24 24 25 25 22 18 17 18 21 23 22 22 23 22 22 21 20 19 19 19 20 23 25 27 28 27 26 25 24 24 24 24
7 9 11 13 15 15 14 17 13 14 16 15 21 19 14 12 10 8 10 14 17 18 23 23 21 19 19 20 22 24 24 23 23 24 24 23 22 21 21 20 19 19 21 24 26 28 27 26 25 24 24 24 23 23
10 9 10 11 12 10 12 13 9 11 12 11 12 15 13 11 10 9 10 14 17 19 20 22 22 22 21 21 22 22 22 23 23 23 22 21 21 21 20 20 19 21 22 24 26 27 26 25 24 24 24 24 24 24
8 8 8 9 8 7 9 9 8 8 9 10 11 12 11 11 10 9 8 8 11 15 18 21 21 21 22 23 23 23 22 22 22 21 21 20 20 20 19 19 20 22 24 26 26 25 24 24 24 24 24 24 25 26
7 7 6 7 8 8 8 7 7 7 8 10 10 11 10 10 10 10 10 11 13 15 18 21 22 21 20 19 20 20 20 20 18 18 18 18 18 18 18 19 21 23 25 25 24 24 23 24 24 25 25 26 27 29
9 8 7 7 8 8 7 7 7 8 9 11 12 12 12 12 13 12 11 12 13 13 14 16 18 18 18 18 18 18 17 16 16 16 16 15 16 16 18 20 22 23 23 23 23 23 24 24 25 26 27 28 30 32

GFSWCAN_700_spd_111.txt.gz
Wind_Speed
26 21 17 16 23 22 20 24 26 27 26 24 22 21 19 17 14 13 12 12 12 11 8 2 2 4 3 6 9 10 6 6 7 9 7 5 7 11 15 15 11 15 10 11 8 6 4 16 5 5 9 5 5 5
28 25 18 17 16 18 19 21 22 24 24 23 22 21 19 17 15 14 13 13 11 9 5 4 1 3 3 6 7 3 3 6 7 7 7 5 6 10 11 5 12 9 10 6 7 7 9 11 13 12 7 4 4 6
30 33 23 20 15 15 20 21 22 23 24 23 22 21 19 18 17 16 14 7 11 9 6 3 1 2 2 4 5 3 1 1 2 6 7 6 4 11 9 8 7 6 8 7 5 7 7 8 7 5 3 3 4 6
26 28 30 24 18 12 16 22 23 24 23 23 21 20 19 18 16 15 12 11 12 11 8 7 2 3 4 5 4 4 4 6 3 2 4 4 4 6 6 5 6 5 6 7 6 4 4 4 4 3 3 4 6 5
33 31 27 23 17 13 15 19 22 22 22 22 21 20 19 19 17 15 12 11 14 12 12 8 4 2 2 4 4 8 8 5 5 5 3 3 4 4 4 3 2 5 7 5 2 6 5 4 3 2 2 4 5 7
30 29 26 23 19 18 17 17 21 22 22 21 21 20 19 19 17 15 13 12 15 13 10 7 4 3 2 6 8 7 9 6 4 7 7 5 2 5 3 3 5 5 6 4 4 5 4 3 2 2 3 6 4 6
21 22 24 22 22 22 19 17 19 21 21 20 20 20 19 19 18 17 14 10 15 13 8 3 3 3 4 6 8 7 6 6 4 2 4 4 5 5 6 7 5 6 3 1 3 5 4 2 2 5 8 9 7 9
24 25 24 23 23 22 20 19 19 20 20 20 20 19 19 19 18 18 15 13 13 11 7 4 3 5 4 4 6 3 3 4 4 3 4 5 5 5 6 6 3 3 3 2 1 4 5 5 5 7 9 10 10 11
28 31 26 24 20 18 17 16 17 19 20 20 20 20 20 19 19 21 17 14 10 11 6 6 8 4 3 4 3 3 4 5 5 5 5 5 3 5 7 8 4 5 6 5 5 8 10 8 8 8 8 9 10 10
32 29 29 25 21 19 17 15 17 20 21 21 22 22 20 19 20 19 20 13 8 14 15 11 4 8 4 3 3 2 3 2 3 3 5 5 9 13 12 14 13 12 12 13 12 11 8 7 8 7 8 8 9 9
32 29 25 26 22 19 17 15 20 23 24 25 25 22 19 24 17 13 11 14 11 11 11 12 14 10 8 5 3 3 2 2 2 3 3 3 7 10 8 11 13 13 14 14 13 12 9 7 7 7 8 8 9 11
29 28 29 26 25 22 18 15 21 25 24 25 28 21 19 18 11 8 12 10 8 13 8 4 10 14 9 7 4 3 3 3 3 4 4 4 9 6 7 8 10 11 9 9 8 8 6 6 6 6 7 9 11 14
29 29 30 31 27 22 20 15 19 21 20 27 29 27 13 14 13 10 14 13 14 13 10 10 8 13 12 9 6 5 4 4 4 5 4 8 5 6 7 5 5 5 4 3 1 1 2 4 6 9 11 13 15 17
23 26 27 32 29 25 21 18 23 25 29 31 22 17 13 10 11 9 14 15 19 16 11 6 5 10 14 8 7 5 5 4 3 4 7 8 8 8 6 3 2 4 5 4 2 2 3 6 9 11 13 15 18 21
20 26 31 32 29 26 23 19 21 25 33 24 9 12 17 9 11 11 9 11 14 14 12 11 11 11 10 8 6 6 4 4 5 6 6 9 7 4 2 4 5 5 4 4 3 4 6 10 14 16 17 19 20 21
22 29 33 35 31 26 24 21 29 29 34 13 8 9 22 22 10 15 16 13 10 8 10 11 12 7 8 6 8 8 4 6 3 6 8 8 5 3 4 5 5 5 5 3 4 8 11 13 14 16 18 19 22 24
23 31 36 33 30 27 22 27 28 32 20 18 18 11 10 17 14 12 21 19 17 16 13 9 7 6 6 6 10 9 16 15 11 11 9 9 6 4 5 6 6 4 2 3 6 9 11 13 15 16 19 21 24 27
26 34 36 33 30 26 24 32 28 20 21 19 22 20 14 4 11 16 13 18 16 16 16 15 9 12 8 11 13 9 10 10 13 8 8 8 5 6 7 7 5 2 1 5 8 10 12 14 16 17 19 23 26 29
32 34 36 33 28 23 28 31 31 19 19 25 22 25 19 10 5 9 19 19 18 17 19 20 10 14 20 18 13 10 8 6 7 9 10 9 8 9 8 7 4 2 4 7 9 11 14 16 18 22 25 27 31 34
30 32 31 27 23 19 22 11 29 13 17 30 33 30 22 16 13 12 12 21 20 19 21 25 26 15 9 11 14 14 15 14 13 11 10 9 10 11 10 8 5 5 6 8 10 11 13 16 18 21 24 26 29 29
28 30 28 24 21 17 14 6 28 16 10 12 18 23 29 29 26 18 13 19 23 26 28 26 24 21 19 12 9 9 10 12 11 10 11 10 12 12 10 9 8 8 9 10 11 13 16 19 22 24 27 29 30 30
29 33 30 33 29 11 5 10 18 21 12 12 14 16 17 17 17 15 16 17 21 25 24 22 21 21 19 18 14 10 11 11 11 11 13 15 13 12 11 11 10 11 11 12 13 13 15 18 21 25 27 29 30 29
27 28 27 29 22 10 12 10 13 17 17 14 17 20 18 14 16 12 14 21 25 25 25 25 25 23 19 19 18 17 13 13 10 11 13 14 14 13 13 13 13 13 14 14 14 15 17 20 24 27 29 30 30 29
29 25 24 20 9 10 15 13 16 14 17 17 15 16 17 19 15 16 21 24 21 22 22 22 21 23 25 23 20 19 17 13 10 13 15 15 15 15 15 15 15 15 15 16 16 17 19 22 25 28 29 29 29 28
24 16 10 16 15 18 21 21 21 21 13 19 17 19 14 12 15 18 21 22 19 19 15 17 19 20 20 22 25 24 19 15 14 16 17 18 17 17 18 17 16 18 18 18 19 20 21 23 26 28 29 30 29 27
21 16 12 15 18 18 16 22 23 20 17 20 18 17 13 13 12 9 21 23 19 17 17 14 15 17 19 20 19 18 17 18 18 19 21 20 20 20 19 18 18 19 20 21 21 22 23 24 26 28 30 30 28 26
10 7 15 17 17 18 16 16 17 19 19 16 19 17 14 9 9 15 17 17 14 18 19 18 18 18 18 20 20 19 18 17 19 19 19 20 21 21 21 20 20 21 21 22 23 23 25 27 28 29 30 30 28 27
12 16 15 16 20 20 19 20 21 20 22 19 16 15 10 10 13 12 11 17 16 15 18 23 26 25 20 16 16 16 18 18 18 20 22 22 22 22 22 21 21 21 21 22 22 24 25 27 28 28 28 28 27 26
14 14 14 16 17 17 17 18 19 17 17 20 21 20 17 18 13 9 9 10 12 18 19 20 23 23 18 17 19 20 20 20 20 21 21 21 21 21 21 21 21 22 22 22 23 25 26 28 28 28 27 27 26 26
6 7 10 13 14 12 11 11 13 13 13 14 15 15 16 14 11 12 12 11 13 16 17 18 19 20 20 20 20 19 17 16 17 17 18 19 20 19 20 20 21 21 21 22 24 26 27 28 28 27 27 26 26 26
8 6 7 8 9 9 9 11 11 9 10 11 12 13 14 13 13 12 11 10 8 10 14 17 19 20 20 19 19 18 17 16 16 16 16 16 17 18 18 19 19 20 21 23 24 26 26 26 26 26 26 27 27 28
7 7 6 7 8 7 7 9 8 8 8 9 11 11 11 11 11 11 10 11 11 10 10 11 13 13 14 15 15 14 14 13 13 13 14 14 15 16 16 17 18 20 22 24 25 25 25 26 26 26 27 27 29 30
9 8 7 7 7 9 9 8 8 8 8 9 9 10 10 11 12 11 10 10 9 7 8 9 10 11 12 12 12 11 11 11 11 12 12 13 13 14 15 16 18 21 22 23 24 24 25 25 26 26 28 29 30 31

GFSWCAN_700_spd_114.txt.gz
Wind_Speed
25 27 31 26 23 27 29 32 34 29 26 30 29 25 23 21 17 16 16 14 14 15 6 6 3 2 2 3 5 4 4 2 3 4 5 4 7 9 5 14 7 16 9 9 6 6 4 14 5 2 9 5 5 7
25 23 26 25 26 33 30 24 32 34 31 28 26 25 23 20 18 17 15 14 15 14 10 7 4 3 3 4 5 3 3 4 6 5 5 5 9 7 10 4 13 8 10 7 5 7 8 11 14 11 7 4 5 7
27 24 24 24 25 25 29 33 28 25 26 27 26 25 23 21 19 16 13 13 16 15 11 9 7 6 4 3 4 2 4 3 4 5 3 5 6 8 8 7 8 7 8 6 3 6 7 8 7 4 4 4 5 6
26 29 25 19 19 22 23 26 25 28 29 28 25 24 22 20 18 15 13 13 17 16 11 12 10 8 5 7 6 6 4 2 2 2 3 3 4 4 6 5 6 5 5 6 7 5 7 4 3 3 4 5 6 6
31 33 28 27 22 17 18 17 21 24 25 26 24 23 21 20 18 16 14 15 17 15 14 11 10 8 6 6 3 6 8 5 4 6 4 2 2 2 3 3 4 6 5 4 3 5 4 3 3 3 4 6 6 6
30 27 30 29 24 19 16 21 22 21 21 22 23 22 21 20 19 17 15 16 18 12 15 10 7 7 5 4 5 4 4 6 3 4 6 3 1 2 1 2 4 2 2 3 4 5 5 4 3 3 2 5 6 7
31 26 35 28 22 20 15 16 23 26 27 24 23 23 21 21 19 18 16 16 18 16 14 9 7 6 2 1 4 5 4 2 2 1 2 5 6 3 3 6 3 3 2 3 4 5 4 3 3 4 4 3 6 9
29 34 32 27 22 19 18 16 20 24 25 25 24 22 21 21 20 17 15 15 18 16 13 6 7 8 4 1 2 1 2 3 2 1 1 3 5 5 5 4 2 2 1 3 2 3 4 5 5 7 7 7 8 10
34 35 31 26 23 20 17 16 19 23 23 24 23 22 21 21 23 21 16 13 17 15 9 8 9 6 4 5 3 3 3 2 3 1 2 3 4 6 5 3 3 1 2 4 3 5 8 8 8 9 8 8 9 9
26 30 28 26 22 17 17 18 21 23 24 24 22 22 21 23 26 21 17 13 13 14 11 7 8 6 3 2 2 3 2 2 1 1 4 5 10 10 9 9 7 6 7 7 7 7 7 6 7 7 7 7 7 7
29 27 26 25 22 19 18 18 21 25 24 24 24 23 23 23 24 21 11 11 9 7 10 10 9 6 5 2 1 1 2 3 2 1 2 4 8 7 5 6 5 6 8 7 9 8 4 4 4 4 5 5 7 9
29 30 28 26 23 21 18 18 22 24 23 26 24 24 29 25 13 8 11 10 7 9 4 8 9 11 8 5 3 2 3 3 2 4 4 4 5 4 4 5 6 6 6 5 5 3 1 1 1 2 5 7 9 12
31 33 32 28 23 20 16 15 22 22 27 29 26 26 18 14 11 10 14 14 12 9 12 7 7 14 13 9 5 4 4 3 3 4 4 6 3 3 4 4 5 5 5 5 5 4 4 3 2 5 8 10 12 14
29 30 29 27 25 21 18 20 27 27 38 28 19 18 11 8 9 7 13 13 17 12 8 8 9 12 11 9 6 4 4 4 3 4 6 5 5 5 3 4 4 6 7 6 7 7 4 3 5 8 11 13 14 15
28 31 30 30 27 24 21 21 26 29 37 22 9 10 10 10 12 16 11 17 15 12 11 12 10 9 8 8 6 6 3 5 6 2 3 6 5 4 4 5 6 7 8 9 8 5 2 4 7 9 12 14 14 16
28 29 30 30 26 24 21 23 26 31 32 20 9 9 14 12 17 18 16 14 14 14 14 14 11 7 9 6 8 8 5 6 3 1 4 6 5 4 3 6 8 9 10 9 5 2 3 6 9 11 13 15 16 18
26 28 28 29 29 27 23 21 25 25 24 13 12 13 19 20 14 18 17 15 14 14 17 11 6 7 5 7 8 10 15 11 8 9 10 11 8 3 6 8 11 11 8 5 2 1 4 8 11 13 14 17 19 21
23 32 33 32 30 27 24 21 28 15 21 21 16 12 15 11 19 14 20 20 21 17 16 13 10 11 7 9 11 6 5 6 10 9 7 6 5 4 8 11 11 8 7 5 3 4 6 9 11 13 16 18 20 23
29 35 36 31 25 23 22 26 31 9 18 29 16 11 9 5 9 14 14 20 20 21 19 21 10 14 19 18 14 10 8 7 5 4 8 10 9 8 11 12 10 9 9 7 6 7 8 10 12 14 16 19 21 24
32 33 31 28 24 18 17 17 28 10 11 26 26 16 17 14 8 8 6 14 21 20 21 24 25 19 8 9 10 11 13 13 13 13 11 10 10 11 14 14 12 12 10 9 9 10 11 12 13 15 17 21 24 27
35 30 26 25 21 17 12 9 21 19 8 16 31 31 26 21 20 12 10 13 17 31 29 25 19 18 18 15 10 8 7 7 10 12 12 11 12 13 16 15 14 13 12 12 12 12 13 15 16 17 20 23 25 26
33 33 28 25 20 14 12 7 20 17 19 9 12 21 27 25 24 32 29 25 22 25 29 23 20 19 18 17 16 16 13 10 12 11 12 13 14 15 15 16 14 14 14 14 14 15 17 17 18 19 22 24 26 27
32 30 27 24 20 6 4 13 12 19 18 10 10 12 16 15 18 22 21 20 21 17 18 21 21 19 18 18 18 17 16 16 15 13 11 13 16 18 19 18 17 16 16 16 16 19 20 20 21 22 23 25 27 28
26 23 20 14 16 7 8 10 12 13 15 17 16 13 13 17 21 19 20 18 17 19 21 21 20 20 21 22 21 19 17 15 15 14 11 12 14 16 18 19 18 17 18 19 19 20 21 22 23 24 25 27 28 29
23 17 10 14 19 11 11 16 13 14 16 12 13 15 15 18 17 19 20 16 14 16 16 15 15 18 18 18 19 21 21 21 19 17 14 14 17 19 20 19 19 20 20 19 20 21 22 23 24 25 26 28 28 29
11 8 10 9 16 17 14 16 20 15 15 15 14 13 16 14 14 9 13 11 13 14 14 14 15 14 17 19 19 17 16 17 17 16 16 16 18 20 21 21 21 21 21 21 21 22 23 24 25 26 28 29 29 29
10 8 16 18 14 15 16 16 15 17 22 20 19 18 12 9 9 15 16 16 15 13 16 18 18 18 16 16 15 16 15 15 16 17 17 17 19 20 21 21 21 21 21 22 23 23 24 25 26 28 28 29 29 30
13 9 13 14 18 20 19 17 18 17 18 18 17 15 11 11 16 16 17 14 12 13 15 18 20 19 19 18 17 17 18 19 18 18 19 19 19 18 19 19 19 20 21 22 23 24 25 26 27 28 29 30 31 30
25 22 18 14 19 24 25 24 22 19 19 19 20 21 22 20 19 19 13 10 10 11 16 17 17 19 21 20 20 19 17 17 17 19 18 17 17 16 17 18 19 20 21 21 23 23 24 25 26 27 28 29 28 28
34 32 29 22 21 25 23 22 21 21 20 19 20 20 22 20 17 16 14 12 11 10 12 14 17 18 16 17 17 17 17 17 17 15 13 14 15 16 16 17 17 18 19 21 22 22 24 25 26 27 27 27 28 28
21 14 9 9 13 16 13 11 13 13 16 17 16 17 17 16 16 15 14 13 13 12 12 13 15 16 16 17 18 17 16 15 14 12 12 13 15 15 15 15 16 18 19 19 21 23 24 26 26 26 27 27 27 28
8 7 6 6 7 9 10 10 12 13 12 12 14 14 15 14 14 12 12 12 11 9 8 8 9 12 13 14 14 13 13 11 11 10 11 12 13 13 14 14 15 16 17 20 22 24 24 25 26 26 27 27 28 29
8 8 7 7 7 7 7 7 7 7 8 8 9 10 10 12 14 12 9 9 10 10 8 8 8 10 10 10 9 9 8 8 8 9 10 10 11 11 11 12 14 16 19 21 22 23 24 25 25 26 27 28 29 30

GFSWCAN_700_spd_117.txt.gz
Wind_Speed
29 30 25 23 22 21 27 32 39 41 32 29 24 28 23 21 19 18 18 19 19 18 11 11 6 5 4 3 2 3 3 2 3 1 3 3 3 5 5 13 8 13 6 6 4 4 3 4 11 3 10 8 6 8
30 24 29 26 26 22 20 33 30 30 33 30 28 27 23 20 19 19 17 17 17 18 10 9 9 6 3 2 2 1 4 3 3 2 4 4 5 3 7 3 11 4 9 3 4 6 8 12 13 11 9 7 6 8
28 29 30 31 26 23 23 31 33 32 34 30 29 25 21 20 20 16 16 16 18 17 12 13 10 8 5 4 5 4 4 4 3 4 5 4 4 4 3 5 8 7 7 3 3 5 6 7 8 7 6 6 6 7
31 29 30 27 26 28 27 26 33 36 28 29 25 26 25 23 20 18 17 18 19 19 12 15 11 8 6 8 8 6 3 0 2 1 2 6 4 2 2 1 3 4 4 5 4 4 5 3 4 6 6 6 6 6
32 28 26 27 26 25 28 29 26 26 30 31 31 28 25 23 20 18 19 18 22 20 12 16 14 11 12 9 5 4 5 3 2 3 3 5 4 3 1 2 3 3 3 4 4 4 3 3 3 5 6 6 5 5
34 31 25 22 29 29 27 26 29 33 26 28 27 26 25 22 20 20 19 20 22 17 15 15 13 11 9 6 3 2 1 3 1 3 5 6 5 2 2 2 4 1 2 3 3 5 6 5 4 3 2 3 5 6
34 35 31 28 27 24 23 26 25 27 27 28 28 26 24 23 22 21 20 21 23 16 17 10 10 11 8 5 4 4 5 3 1 1 2 7 7 4 5 5 5 4 3 4 4 4 5 5 6 4 3 4 6 8
32 35 32 29 28 25 22 20 22 25 24 26 26 26 24 22 21 20 16 20 24 19 16 7 8 12 8 4 1 1 2 4 4 3 2 5 6 8 6 5 6 6 5 5 4 4 3 4 3 3 4 5 7 8
28 25 34 29 24 25 23 24 22 23 23 23 25 25 24 23 21 18 17 20 23 21 11 9 10 9 8 6 3 2 2 4 4 4 5 5 7 8 7 6 6 5 7 7 5 0 2 3 4 4 5 6 7 7
30 34 35 28 22 21 20 20 26 27 26 26 25 24 24 26 22 17 14 18 21 19 14 11 12 9 7 7 3 0 1 1 1 4 4 8 13 10 11 10 9 9 6 6 7 5 4 4 4 4 4 6 7 9
34 39 33 27 23 21 20 19 22 25 26 26 27 25 25 30 22 17 9 11 11 9 14 12 11 9 9 5 4 1 1 2 1 2 4 5 7 5 6 7 10 11 9 9 8 6 5 3 2 4 5 7 8 10
41 36 30 26 24 22 20 21 22 22 25 27 26 23 29 29 11 7 11 8 7 8 10 15 13 11 9 8 4 1 2 2 2 4 5 5 2 3 3 5 7 8 9 9 9 8 5 3 2 2 3 6 9 11
32 31 31 28 25 21 18 19 24 23 26 24 27 23 20 13 11 10 15 12 8 13 13 15 15 15 12 8 4 3 2 3 4 4 5 4 2 1 2 3 5 8 9 9 10 10 8 7 4 1 4 7 10 12
32 31 29 26 23 21 21 23 26 32 34 29 22 16 12 8 11 10 20 13 10 11 14 10 10 11 12 11 4 3 4 4 3 4 3 2 3 3 3 4 2 5 8 10 11 11 10 7 2 2 6 9 12 14
32 29 29 27 25 22 21 23 27 37 27 20 8 10 10 10 17 12 21 17 15 10 10 12 11 7 9 5 5 5 4 4 5 2 0 4 4 3 2 4 5 7 9 10 12 11 7 4 2 4 7 10 13 15
37 34 30 29 26 21 20 28 30 40 20 15 7 10 14 15 18 16 18 17 17 16 12 13 10 5 7 5 6 7 4 5 2 2 2 3 6 5 4 5 8 10 11 13 11 8 6 5 4 6 9 11 14 16
34 33 31 28 26 23 22 26 27 34 19 8 9 12 17 17 21 20 15 19 18 16 17 13 5 6 4 6 7 9 13 10 6 7 10 11 9 7 5 7 10 12 13 11 9 8 8 7 7 8 10 13 14 17
35 33 31 29 28 24 21 26 23 19 17 13 12 11 18 16 15 17 15 17 18 18 17 15 9 9 5 6 8 5 4 3 5 9 10 8 4 5 6 10 13 14 12 11 11 11 10 10 10 11 12 14 15 17
29 30 28 25 21 21 20 20 22 7 18 21 18 12 14 21 19 15 13 15 18 18 18 19 11 12 17 16 11 9 9 8 8 7 6 7 9 10 10 13 15 15 14 13 13 14 13 13 13 14 15 16 17 19
29 25 25 26 23 22 18 10 18 8 11 26 19 12 10 9 17 16 14 12 16 19 24 29 26 21 11 7 7 8 8 10 12 13 14 13 11 12 13 15 17 18 17 15 14 15 15 15 16 17 18 19 20 22
32 29 29 28 23 19 13 9 13 14 6 17 22 23 16 13 9 9 11 10 12 17 20 16 18 19 20 19 14 8 5 6 7 8 10 12 13 14 15 17 20 20 18 17 17 18 17 18 19 19 21 22 24 26
33 29 26 22 21 14 8 9 11 14 18 11 13 24 28 29 25 19 19 19 17 14 17 22 24 25 22 17 16 18 17 16 15 15 13 12 13 13 16 17 19 19 19 19 20 20 19 20 21 22 24 26 27 28
31 26 24 20 15 10 9 10 9 15 9 17 11 11 17 20 20 19 23 24 20 13 16 18 19 20 23 19 17 17 16 17 18 16 14 14 12 15 17 19 20 21 21 21 21 21 21 22 23 25 27 29 29 30
26 23 22 15 13 4 6 9 10 9 17 17 12 10 10 14 16 17 22 24 20 16 16 16 16 18 19 18 19 19 19 20 20 17 14 14 13 12 14 19 21 21 22 22 22 23 23 23 25 27 29 30 30 31
19 16 11 13 12 10 6 10 14 14 13 13 15 16 13 14 15 21 24 22 20 17 16 19 20 21 22 24 24 24 23 24 24 22 20 17 16 15 16 17 18 19 21 21 22 23 24 25 27 29 29 30 30 31
15 8 9 7 14 13 8 8 12 16 11 12 10 10 13 13 13 10 18 18 13 12 14 15 18 19 19 19 20 20 20 19 18 17 17 17 17 16 18 20 22 22 22 22 23 24 25 26 27 28 29 29 30 31
10 5 13 14 13 15 21 20 15 13 14 13 14 16 11 7 7 11 13 11 11 12 13 15 19 19 20 18 16 18 19 20 19 19 18 18 18 18 19 20 21 21 21 21 21 23 24 25 26 27 28 29 30 30
10 12 11 12 16 18 15 16 13 14 12 14 15 14 9 9 11 10 9 11 13 13 14 17 18 20 19 19 19 17 17 18 18 19 19 18 18 19 19 18 18 19 19 20 21 21 22 24 25 26 28 29 30 32
12 14 16 12 9 14 18 21 21 19 17 15 16 17 21 20 18 16 13 14 15 13 12 13 15 15 17 19 20 20 19 18 17 17 17 17 17 17 16 16 17 18 19 19 20 20 22 24 25 26 27 30 31 31
26 29 27 25 26 24 24 25 25 26 25 23 21 20 20 19 19 18 17 17 15 16 14 12 12 15 17 17 18 19 19 17 16 16 16 15 14 13 13 14 16 17 18 18 19 22 22 24 25 27 29 29 30 30
22 24 28 30 31 25 19 20 22 22 23 22 23 23 22 20 18 17 17 16 15 14 12 11 11 12 15 16 16 15 14 14 14 14 14 13 12 12 12 14 15 16 17 18 19 20 22 24 26 26 27 28 28 29
16 12 11 9 7 7 9 13 16 16 14 15 15 17 18 16 17 15 14 14 14 14 13 12 10 10 11 12 12 12 12 11 11 10 10 9 9 10 12 13 14 15 16 17 19 21 23 24 25 26 27 28 29 30
7 7 6 7 6 6 5 5 4 6 8 9 9 9 10 11 14 12 10 11 13 12 10 9 9 8 8 8 8 8 8 8 8 8 7 8 9 10 10 11 12 13 16 19 20 22 24 25 25 26 27 28 30 30